[[[{"header":{"parameterUnit":"kt","parameterCategory":2,"dx":1,"dy":1,"la1":29.285339999999998,"la2":30.599998999999997,"lo1":-89.70041500000002,"lo2":-87.6738589999976,"nx":112,"ny":82,"refTime":"2022-10-21T00:00:00:Z","depth":0,"parameterNumber":1,"parameterNumberName":"U-component_of_WINDS"},"data":[-0.0999,-0.0,0.0,-0.0,0.1337,0.0,0.1905,0.0,0.0,0.0,0.0,0.0,0.0,0.0,0.0,0.0,0.0,0.0,0.0,0.0,0.0,0.0,0.0,0.0,0.0,0.0,0.0,0.0,0.0,0.0,0.0,0.0,1.1535,1.2797,1.2807,1.2807,1.2807,1.3332,1.4064,1.5013,1.5439,1.6175,1.7114,1.7114,1.7114,1.7114,1.7613,1.8297,1.9076,2.0046,2.1411,2.2965,2.3481,2.4299,2.4925,2.3995,2.4484,2.5665,2.7013,2.8379,2.9575,2.986,2.9955,2.9955,2.9955,2.9955,3.0068,3.0519,3.1394,3.2259,3.3329,3.4254,3.5335,3.6791,3.7122,3.7326,3.8284,3.8485,3.8485,3.8485,3.8485,3.8884,4.023,3.9745,4.0011,4.2477,4.2477,4.3112,4.5583,4.5864,4.6388,4.7638,4.9005,5.0489,5.2205,5.3106,5.3699,5.3699,5.3699,5.3699,5.3699,5.3699,5.3699,5.3699,5.3699,5.3699,5.3699,5.3699,5.3699,5.3699,5.3699,5.3699,0.0,0.0,0.062,0.0583,0.0,0.0,0.0,0.0,0.0,0.0,0.0,0.0,0.0,0.0,0.0,0.0,0.0,0.0,0.0,0.0,0.0,0.0,0.0,0.0,0.0,0.0,0.0,0.0,0.0,0.0,0.0,1.0428,1.0343,1.1425,1.1434,1.1434,1.1434,1.1848,1.2577,1.3521,1.4481,1.5428,1.6382,1.6909,1.7114,1.7114,1.7114,1.7613,1.8399,1.889,2.0046,2.1705,2.2094,2.3096,2.4204,2.279,2.3193,2.4539,2.6166,2.8118,2.9955,2.9955,2.9955,2.9955,2.9955,2.9955,2.9955,2.9955,3.0612,3.1505,3.1948,3.2786,3.3955,3.5859,3.6378,3.6688,3.8184,3.8485,3.8485,3.8485,3.8485,3.8784,3.9647,3.9082,3.923,4.1297,4.1924,4.2932,4.4985,4.5612,4.6213,4.7086,4.8366,4.9645,5.0925,5.2205,5.3135,5.3669,5.3699,5.3699,5.3699,5.3699,5.3699,5.3699,5.3699,5.3699,5.3699,5.3699,5.3699,5.3699,5.3699,5.3699,0.0,0.0,0.0,0.1859,0.0,0.0,0.0,0.0,0.6062,0.0,0.0,0.0,0.0,0.0,0.0,0.0,0.0,0.0,0.0,0.0,0.0,0.0,0.0,0.0,0.0,0.0,0.0,0.0,0.0,0.0,0.8586,0.8749,0.8783,0.8783,0.8783,0.8783,0.8783,1.0037,1.0667,1.0773,1.3521,1.4897,1.4909,1.6382,1.7012,1.7012,1.7114,1.7114,1.7217,1.8486,1.8976,1.9177,2.0443,2.1705,2.2676,2.1411,2.1802,2.3096,2.4771,2.7301,2.9766,2.9823,2.9842,2.9842,2.9842,2.9842,2.9955,2.9955,2.9955,3.0294,3.1616,3.2039,3.2676,3.5627,3.6275,3.6688,3.8184,3.8485,3.8485,3.8485,3.8485,3.8485,3.8485,3.8485,3.8983,4.023,4.1391,4.2568,4.3937,4.5071,4.5864,4.5864,4.7086,4.8277,4.9616,5.0925,5.2205,5.3553,5.3669,5.3699,5.3699,5.3699,5.3699,5.3699,5.3699,5.3699,5.3699,5.3699,5.3699,5.3699,5.3699,5.3699,0.2468,0.0,0.0,0.0,0.0,0.0,0.0,0.0,0.0,0.0,0.0,0.0,0.0,0.0,0.0,0.0,0.0,0.0,0.0,0.0,0.0,0.0,0.0,0.0,0.0,0.0,0.0,0.0,0.0,0.0,0.8722,0.875,0.8783,0.8783,0.8783,0.8783,0.8783,0.9098,0.9725,1.0667,1.1514,1.2366,1.3437,1.4909,1.5543,1.5647,1.6691,1.7114,1.7114,1.7511,1.8196,1.9076,1.9463,1.9762,2.0061,1.9762,2.0443,2.1706,2.3273,2.4357,2.5207,2.621,2.7263,2.8205,2.8205,2.9026,2.9955,2.9955,2.9955,3.0068,3.0407,3.05,3.1263,3.4147,3.4786,3.544,3.7958,3.8485,3.8485,3.8485,3.8485,3.8485,3.8485,3.8485,3.8983,4.023,4.0685,4.1698,4.3849,4.4378,4.4899,4.578,4.7086,4.7929,4.8277,5.0401,5.1827,5.2176,5.3174,5.3699,5.3699,5.3699,5.3699,5.3699,5.3699,5.3699,5.3699,5.3699,5.3699,5.3699,5.3699,5.3699,0.0,0.0,0.0,0.0,0.0,0.0,0.4843,0.0,0.6567,0.0,0.0,0.0,0.0,0.0,0.0,0.0,0.0,0.0,0.0,0.0,0.0,0.0,0.0,0.0,0.0,0.0,0.0,0.0,0.0,0.8229,0.8743,0.879,0.8783,0.8783,0.8783,0.8783,0.8783,0.8783,0.9091,0.9931,1.0455,1.1091,1.1945,1.4064,1.5013,1.5013,1.6485,1.7114,1.7114,1.7114,1.7511,1.8196,1.8196,1.8196,1.8196,1.8196,1.9076,2.0399,2.1585,2.2451,2.3313,2.4583,2.5747,2.6797,2.7379,2.8205,2.9141,2.9728,2.9955,2.9955,2.9955,2.9955,3.0612,3.3524,3.4169,3.5019,3.7857,3.8485,3.8485,3.8485,3.8485,3.8485,3.8485,3.8485,3.8784,3.9451,4.0037,4.1161,4.3077,4.3849,4.4552,4.578,4.6562,4.726,4.7754,4.9238,5.0547,5.1623,5.2379,5.3048,5.3669,5.3699,5.3699,5.3699,5.3699,5.3699,5.3699,5.3699,5.3699,5.3699,5.3699,5.3699,0.0,0.0,0.0,0.0,0.6211,0.0,0.0,0.0,0.0,0.0,0.0,0.0,0.0,0.0,0.0,0.0,0.0,0.0,0.0,0.0,0.0,0.0,0.0,0.0,0.0,0.0,0.7225,0.863,0.774,0.7689,0.8723,0.8783,0.8783,0.8783,0.8783,0.8783,0.8783,0.8783,0.8783,0.8783,0.9931,1.0455,1.0561,1.3207,1.4585,1.4805,1.6279,1.6909,1.7114,1.7114,1.7114,1.7114,1.7114,1.7114,1.7114,1.7114,1.7803,1.8976,1.9817,2.1178,2.2813,2.3666,2.4262,2.505,2.6564,2.7379,2.7975,2.9482,2.9955,2.9955,2.9955,2.9955,3.0612,3.3308,3.4062,3.4891,3.7655,3.8385,3.8485,3.8485,3.8485,3.8485,3.8485,3.8485,3.8485,3.8485,3.9451,4.0685,4.1832,4.3077,4.4378,4.5527,4.578,4.6359,4.7551,4.7696,4.8889,5.1332,5.1623,5.2263,5.364,5.3699,5.3699,5.3699,5.3699,5.3699,5.3699,5.3699,5.3699,5.3699,5.3699,5.3699,0.0,0.0,0.0,0.0,0.0,0.731,0.0,0.0,0.0,0.0,0.0,0.0,0.0,0.0,0.0,0.0,0.0,0.0,0.0,0.0,0.0,0.0,0.0,0.0,0.0,0.81,0.8458,0.877,0.8576,0.8543,0.877,0.8783,0.8783,0.8783,0.8783,0.8783,0.8783,0.8783,0.8783,0.8783,0.8991,0.9091,0.9198,1.0781,1.2146,1.3332,1.4805,1.606,1.7114,1.7114,1.7114,1.7114,1.7114,1.7114,1.7114,1.7114,1.7217,1.7604,1.8175,1.8979,1.9783,2.0395,2.0994,2.1835,2.3364,2.5609,2.7975,2.9482,2.9955,2.9955,2.9955,2.9955,3.0407,3.2039,3.3329,3.468,3.6378,3.7655,3.8485,3.8485,3.8485,3.8485,3.8485,3.8485,3.8485,3.8485,3.8685,3.9353,4.0589,4.1858,4.3049,4.429,4.5357,4.5981,4.6243,4.726,4.8511,5.0052,5.1129,5.2263,5.364,5.3699,5.3699,5.3699,5.3699,5.3699,5.3699,5.3699,5.3699,5.3699,5.3699,5.3699,0.0,0.0,0.0,0.6261,0.0,0.0,0.0,0.0,0.0,0.0,0.0,0.0,0.0,0.0,0.0,0.0,0.0,0.0,0.0,0.0,0.0,0.0,0.0,0.0,0.0,0.8696,0.8797,0.8783,0.8783,0.8783,0.8783,0.8783,0.8783,0.8783,0.8783,0.8783,0.8783,0.8783,0.8783,0.8783,0.8783,0.8783,0.8777,1.0144,1.1091,1.1839,1.4064,1.5324,1.606,1.6806,1.7114,1.7114,1.7114,1.7114,1.7114,1.7114,1.7114,1.7205,1.7657,1.8335,1.8919,1.9478,2.0049,2.0762,2.1592,2.3364,2.5726,2.8072,2.9369,2.9955,2.9955,2.9955,3.0294,3.1707,3.2588,3.374,3.5836,3.6917,3.7655,3.8385,3.8485,3.8485,3.8485,3.8485,3.8485,3.8485,3.8485,3.8983,4.023,4.1485,4.2659,4.4026,4.5186,4.5864,4.5864,4.6504,4.7435,4.8744,5.0023,5.1303,5.2583,5.3252,5.3699,5.3699,5.3699,5.3699,5.3699,5.3699,5.3699,5.3699,5.3699,5.3699,0.0,0.0,0.0,0.0,0.0,0.0,0.0,0.5641,0.0,0.0,0.0,0.0,0.0,0.0,0.0,0.0,0.0,0.0,0.0,0.0,0.0,0.0,0.0,0.0,0.0,0.8783,0.8783,0.8783,0.8783,0.8783,0.8783,0.8783,0.8783,0.8783,0.8783,0.8783,0.8783,0.8783,0.8783,0.8783,0.8783,0.8783,0.8777,0.9824,1.0455,1.0765,1.3102,1.4481,1.5013,1.6175,1.6703,1.6691,1.7012,1.7114,1.7127,1.7244,1.7283,1.7361,1.7932,1.8504,1.9062,1.9516,2.0049,2.0652,2.0652,2.1714,2.3469,2.5962,2.8072,2.9482,2.9842,2.9955,3.0181,3.1394,3.1838,3.2786,3.5335,3.6171,3.6688,3.7857,3.8083,3.816,3.8485,3.8485,3.8485,3.8485,3.8485,3.8884,3.9965,4.1108,4.232,4.3643,4.4813,4.5612,4.5864,4.5864,4.6446,4.7696,4.886,5.0082,5.1623,5.267,5.3436,5.3699,5.3699,5.3699,5.3699,5.3436,5.3339,5.3699,5.3699,5.3699,0.0,0.0,0.0,0.0,0.0,0.0,0.846,0.725,0.0,0.0,0.0,0.0,0.0,0.0,0.0,0.0,0.0,0.0,0.0,0.0,0.0,0.0,0.0,0.0,0.0,0.8783,0.8783,0.8783,0.8783,0.8783,0.8783,0.8783,0.8783,0.8783,0.8783,0.8783,0.8783,0.8783,0.8783,0.8783,0.8783,0.8783,0.8783,0.8884,0.9618,1.0667,1.0985,1.2577,1.5013,1.5117,1.522,1.5324,1.6588,1.7114,1.7179,1.758,1.776,1.7838,1.853,1.9101,1.9581,1.9646,2.0049,2.0652,2.0652,2.1714,2.2989,2.3349,2.5592,2.8205,2.9596,2.9955,2.9955,3.0181,3.1171,3.2478,3.4062,3.544,3.6378,3.6585,3.6585,3.7019,3.8284,3.8485,3.8485,3.8485,3.8485,3.8585,3.8685,3.9842,4.104,4.2293,4.3526,4.4755,4.578,4.5864,4.6446,4.7696,4.7929,4.918,5.1594,5.1827,5.2437,5.3669,5.3699,5.3699,5.3699,5.2437,5.2495,5.3699,5.3699,5.3699,0.0,0.0,0.0,0.0,0.0,0.0,0.0,0.5694,0.0,0.0,0.0,0.0,0.0,0.0,0.0,0.0,0.0,0.0,0.0,0.0,0.0,0.0,0.0,0.0,0.0,0.0,0.0,0.8783,0.8783,0.8783,0.8783,0.8783,0.8783,0.8783,0.8783,0.8783,0.8783,0.8783,0.8783,0.8783,0.8783,0.8783,0.8783,0.8783,0.9098,0.9618,1.0348,1.1408,1.2577,1.3426,1.4436,1.5672,1.7066,1.7815,1.814,1.8374,1.8465,1.8543,1.9114,1.9465,1.9724,2.0062,2.0335,2.0652,2.0652,2.0994,2.1822,2.2642,2.4544,2.6797,2.9255,2.9955,2.9955,2.9955,3.0407,3.1263,3.2676,3.3416,3.4382,3.6067,3.6378,3.6791,3.8284,3.8485,3.8485,3.8485,3.8485,3.8485,3.8485,3.9647,4.0615,4.1135,4.2896,4.429,4.4813,4.5527,4.6126,4.6679,4.7348,4.8248,4.9413,5.0169,5.0838,5.1361,5.1361,5.1739,5.2495,5.1187,5.0838,5.1361,5.1361,5.1361,0.3356,0.0,0.0,0.0,0.0,0.0,0.0,0.0,0.0,0.0,0.0,0.0,0.0,0.0,0.0,0.0,0.0,0.0,0.0,0.0,0.0,0.0,0.0,0.0,0.0,0.0,0.0,0.0,0.892,0.892,0.892,0.892,0.888,0.891,0.8903,0.8863,0.8783,0.8863,0.8863,0.8783,0.8863,0.8863,0.8783,0.8783,0.8783,0.8777,0.9725,1.0252,1.043,1.1965,1.3671,1.5617,1.6963,1.7996,1.8841,1.8997,1.9049,1.914,1.9698,1.9906,1.9971,2.0386,2.0652,2.0652,2.0652,2.0652,2.0885,2.1943,2.3364,2.5271,2.7975,2.9255,2.9955,2.9955,2.9955,3.0294,3.1727,3.1727,3.2259,3.468,3.5545,3.6171,3.7655,3.8184,3.8485,3.8485,3.8485,3.8485,3.8485,3.9255,4.0037,4.0423,4.2004,4.3374,4.4026,4.4928,4.5527,4.5864,4.6795,4.7406,4.7754,4.8773,4.9413,4.9791,4.9791,5.0227,5.1158,4.9878,4.9442,4.9791,4.9791,4.9791,0.0,0.0,0.0,0.0,0.0,0.0,0.0,0.0,0.0,0.0,0.0,0.0,0.0,0.0,0.0,0.0,0.0,0.0,0.0,0.0,0.0,0.0,0.0,0.0,0.0,0.0,0.0,0.0,0.9533,0.9533,0.9533,0.9533,0.9408,0.9111,0.9104,0.8966,0.8783,0.8959,0.8959,0.8783,0.8966,0.8953,0.8783,0.8783,0.8783,0.8783,0.8777,0.911,0.9651,1.1156,1.2655,1.438,1.5756,1.7395,1.8893,1.9439,1.9633,1.9724,2.0309,2.0626,2.0626,2.0639,2.0652,2.0652,2.0652,2.0652,2.0652,2.0652,2.1822,2.3349,2.505,2.7628,2.9955,2.9955,2.9955,3.0294,3.1727,3.0948,3.0407,3.1948,3.3308,3.4702,3.6171,3.7529,3.8485,3.8485,3.8485,3.8485,3.8485,3.8485,3.9082,4.0327,4.0519,4.1538,4.3937,4.4114,4.4639,4.578,4.5923,4.6504,4.7725,4.7842,4.8511,4.9762,4.9791,4.9791,4.982,4.8569,4.8569,4.9791,4.9791,4.9791,0.2236,0.0,0.0,0.0,0.0,0.0,0.0,0.0,0.0,0.0,0.0,0.0,0.0,0.0,0.0,0.0,0.0,0.0,0.0,0.0,0.0,0.0,0.0,0.0,0.0,0.0,0.0,0.0,0.0,0.0,0.9559,0.9559,0.952,0.9414,0.9414,0.9362,0.9263,0.9362,0.9362,0.9263,0.9362,0.9362,0.9263,0.9263,0.9263,0.9263,0.9263,0.9375,0.9678,1.107,1.2831,1.4829,1.6259,1.8142,2.0104,2.0166,2.0244,2.027,2.0587,2.0652,2.0652,2.0652,2.0652,2.0652,2.0652,2.0652,2.0652,2.0652,2.17,2.2989,2.3604,2.6079,2.8665,2.9709,2.9955,3.0068,3.0519,3.0294,3.0407,3.1838,3.2478,3.3524,3.5963,3.6791,3.7428,3.8385,3.8485,3.8485,3.8485,3.8485,3.8685,3.9082,3.994,4.0807,4.1631,4.3194,4.429,4.4639,4.5442,4.6068,4.6533,4.6533,4.6737,4.7173,4.7173,4.7173,4.7173,4.6766,4.6766,4.7173,4.7173,4.7173,0.0,0.0,0.0,0.0,0.0,0.0,0.0,0.0,0.0,0.0,0.0,0.0,0.0,0.0,0.0,0.0,0.0,0.0,0.0,0.0,0.0,0.0,0.0,0.0,0.0,0.0,0.0,0.0,0.0,0.9876,0.9869,0.9869,0.9869,0.9869,0.9764,0.9711,0.9711,0.9711,0.9658,0.9559,0.9658,0.9658,0.9559,0.9559,0.9559,0.9573,0.9777,0.9869,0.9991,1.083,1.2392,1.4421,1.59,1.7829,1.9777,2.0406,2.0652,2.0652,2.0652,2.0652,2.0652,2.0652,2.0652,2.0652,2.0652,2.0652,2.0652,2.0652,2.1348,2.2293,2.2762,2.4425,2.643,2.855,2.9141,2.9255,2.9842,2.9955,3.0181,3.1171,3.1707,3.2786,3.523,3.6067,3.6814,3.8284,3.8485,3.8485,3.8485,3.8485,3.8485,3.8485,3.9279,3.994,4.0423,4.1911,4.3194,4.4026,4.4813,4.5442,4.5864,4.5864,4.5864,4.5864,4.5864,4.5864,4.5864,4.5864,4.5864,4.5864,4.5864,4.5864,0.0,0.0,0.0,0.0,0.0,0.0,0.0,0.0,0.0,0.0,0.0,0.0,0.0,0.0,0.0,0.0,0.0,0.0,0.0,0.0,0.0,0.0,0.0,0.0,0.0,0.0,0.0,0.0,1.0449,1.0443,1.0552,1.0552,1.0552,1.0552,1.0146,0.9994,0.9994,0.9994,0.9863,0.9612,0.9869,0.9863,0.9606,0.9606,0.9606,0.9638,1.0186,1.0552,1.0552,1.0552,1.156,1.3188,1.4836,1.6618,1.8276,2.0024,2.0652,2.0652,2.0652,2.0652,2.0652,2.0652,2.0652,2.0652,2.0652,2.0652,2.0652,2.0652,2.0652,2.1007,2.2414,2.2883,2.3709,2.678,2.7512,2.809,2.9615,2.9955,2.9955,2.9955,3.106,3.2478,3.3955,3.5335,3.6791,3.826,3.8485,3.8485,3.8485,3.8485,3.8485,3.8485,3.8485,3.8983,4.023,4.0423,4.1444,4.376,4.4026,4.4639,4.5696,4.5864,4.5864,4.5864,4.578,4.578,4.5864,4.5864,4.5864,4.5864,4.5864,4.5864,0.0,0.0,0.0,0.0,0.0,0.0,0.0,0.0,0.0,0.0,0.0,0.0,0.0,0.0,0.0,0.0,0.0,0.0,0.0,0.0,0.0,0.0,0.0,0.0,0.0,0.0,0.0,0.0,0.9002,1.0443,1.0552,1.0552,1.0552,1.0552,1.035,1.0311,1.0311,1.0311,1.0271,1.0205,1.0271,1.0271,1.0199,1.0199,1.0199,1.0212,1.0485,1.0552,1.0552,1.0552,1.156,1.3188,1.4836,1.6618,1.8276,2.0024,2.0652,2.0652,2.0652,2.0652,2.0652,2.0652,2.0652,2.0652,2.0652,2.0652,2.0652,2.0652,2.0652,2.0652,2.1117,2.2051,2.3469,2.5389,2.6797,2.809,2.9615,2.9955,2.9955,2.9955,3.0181,3.1263,3.374,3.4489,3.565,3.8083,3.8485,3.8485,3.8485,3.8485,3.8485,3.8485,3.8485,3.8585,3.8983,3.9842,4.0711,4.135,4.3104,4.429,4.4552,4.5442,4.5864,4.5864,4.4985,4.4985,4.5864,4.5864,4.5864,4.5864,4.5864,4.5864,-0.0126,0.0,0.0,0.0,0.0,0.0,0.0,0.0,0.0,0.0,0.0,0.0,0.0,0.0,0.0,0.0,0.0,0.0,0.0,0.0,0.0,0.0,0.0,0.0,0.0,0.0,0.0,0.0,0.9414,1.0456,1.0436,1.0559,1.0552,1.0552,1.0552,1.0552,1.0552,1.0552,1.0552,1.0552,1.0552,1.0552,1.0552,1.0552,1.0552,1.0552,1.0552,1.0552,1.0552,1.0552,1.1053,1.2057,1.3823,1.4962,1.6105,1.8637,1.9529,1.9653,2.0406,2.0652,2.0652,2.0652,2.0652,2.0652,2.0652,2.0652,2.0652,2.0652,2.0652,2.0652,2.0652,2.1239,2.2293,2.3844,2.5389,2.703,2.855,2.9482,2.9955,2.9955,2.9955,3.0612,3.2895,3.3847,3.5019,3.7224,3.8059,3.8485,3.8485,3.8485,3.8485,3.8485,3.8485,3.8485,3.8485,3.9156,3.9842,4.0423,4.1725,4.2714,4.3257,4.3854,4.4496,4.5071,4.4465,4.4726,4.5864,4.5864,4.5864,4.5864,4.5864,4.5864,0.0,0.0,0.0,0.0,0.0,0.0,0.0,0.0,0.0,0.0,0.0,0.0,0.0,0.0,0.0,0.0,0.0,0.0,0.0,0.0,0.0,0.0,0.0,0.0,0.0,0.0,0.0,0.0,1.0099,0.9944,1.0456,1.0436,1.0552,1.0552,1.0552,1.0552,1.0552,1.0552,1.0552,1.0552,1.0552,1.0552,1.0552,1.0552,1.0552,1.0552,1.0552,1.0552,1.0552,1.0552,1.0552,1.0674,1.2305,1.3061,1.3443,1.6879,1.8027,1.8276,2.0024,2.0652,2.0652,2.0652,2.0652,2.0652,2.0652,2.0652,2.0652,2.0652,2.0652,2.0652,2.0652,2.0652,2.1007,2.2535,2.4083,2.5625,2.7048,2.8665,2.9955,2.9955,2.9955,3.0294,3.1596,3.3004,3.4489,3.6067,3.7428,3.8284,3.8485,3.8485,3.8485,3.8485,3.8485,3.8485,3.8485,3.8485,3.8983,4.0134,4.0327,4.0876,4.1924,4.2109,4.2686,4.3671,4.376,4.4465,4.5612,4.578,4.5864,4.5864,4.5864,4.5864,0.0,0.0,-0.0,0.0,0.0,0.0,0.0,0.0,0.0,0.0,0.0,0.0,0.0,0.0,0.0,0.0,0.0,0.0,0.0,0.0,0.0,0.0,0.0,0.0,0.0,0.0,0.0,0.0,0.0,0.7426,1.032,1.0436,1.0552,1.0552,1.0552,1.0552,1.0552,1.0552,1.0552,1.0552,1.0552,1.0552,1.0552,1.0552,1.0552,1.0552,1.0552,1.0552,1.0552,1.0552,1.0552,1.0674,1.2305,1.3061,1.3443,1.6879,1.8027,1.8276,2.0024,2.0652,2.0652,2.0652,2.0652,2.0652,2.0652,2.0652,2.0652,2.0652,2.0652,2.0652,2.0652,2.0652,2.1007,2.2535,2.4083,2.5405,2.5641,2.7975,2.9955,2.9955,2.9955,3.0068,3.0294,3.1485,3.3329,3.5963,3.6585,3.7122,3.8284,3.8485,3.8485,3.8485,3.8485,3.8485,3.8485,3.8485,3.8585,3.8784,3.9842,4.0519,4.0685,4.1646,4.1832,4.1066,4.2044,4.314,4.4406,4.5442,4.5864,4.5864,4.5864,4.5864,0.0,0.0,0.0,0.0,0.0,0.0,0.0,0.0,0.0,0.0,0.0,0.0,0.0,0.0,0.0,0.0,0.0,0.0,0.0,0.0,0.0,0.0,0.0,0.0,0.0,0.0,0.0,0.0,0.0,0.6773,1.034,1.0443,1.0552,1.0552,1.0552,1.0552,1.0552,1.0552,1.0552,1.0552,1.0552,1.0552,1.0552,1.0552,1.0552,1.0552,1.0552,1.0552,1.0552,1.0552,1.0552,1.0552,1.1431,1.168,1.2064,1.5486,1.6754,1.7119,1.9764,2.0652,2.0652,2.0652,2.0652,2.0652,2.0652,2.0652,2.0652,2.0652,2.0652,2.0652,2.0652,2.0652,2.0762,2.1592,2.3499,2.5287,2.5287,2.7744,2.9955,2.9955,2.9955,2.9955,2.9955,3.05,3.1908,3.4786,3.5859,3.6917,3.8284,3.8485,3.8485,3.8485,3.8485,3.8485,3.8485,3.8485,3.8485,3.8485,3.9082,3.9476,3.9476,3.9986,4.0276,4.0423,4.0945,4.2255,4.4114,4.4639,4.5243,4.5864,4.5864,4.5864,0.0,-0.4117,0.0,0.0,0.0,0.0,0.0,0.0,0.0,0.0,0.0,0.0,0.0,0.0,0.0,0.0,0.0,0.0,0.0,0.0,0.0,0.0,0.0,0.0,0.0,0.0,0.0,0.0,0.0,0.0,1.0353,1.0449,1.0552,1.0552,1.0552,1.0552,1.0552,1.0552,1.0552,0.0,1.0552,1.0552,1.0552,1.0552,1.0552,1.0552,1.0552,1.0552,1.0552,1.0552,1.0552,1.0552,1.0552,1.0552,1.0803,1.3832,1.5224,1.598,1.901,2.027,2.0652,2.0652,2.0652,2.0652,2.0652,2.0652,2.0652,2.0652,2.0652,2.0652,2.0652,2.0652,2.0652,2.0652,2.3033,2.5287,2.5287,2.7744,2.9955,2.9955,2.9955,2.9955,2.9955,2.9955,3.0705,3.2983,3.4786,3.6378,3.7857,3.8284,3.8485,3.8485,3.8485,3.8485,3.8485,3.8485,3.8485,3.8485,3.8485,3.8485,3.8485,3.8485,3.8983,3.994,4.0352,4.135,4.3284,4.3849,4.4552,4.5527,4.578,4.5864,-0.7657,0.0,0.0,0.0,0.0,0.0,0.0,0.0,0.0,0.0,0.0,0.0,0.0,0.0,0.0,0.0,0.0,0.0,0.0,0.0,0.0,0.0,0.0,0.0,0.0,0.0,0.0,0.0,0.0,0.0,0.0,1.0463,1.0443,1.0552,1.0552,1.0552,1.0552,1.0552,1.0552,1.0552,1.0552,1.0552,1.0552,1.0552,1.0552,1.0552,1.0552,1.0552,1.0552,1.0552,1.0552,1.0552,1.0552,1.0552,1.0674,1.256,1.4204,1.5854,1.7641,1.927,2.0652,2.0652,2.0652,2.0652,2.0652,2.0652,2.0652,2.0652,2.0652,2.0652,2.0652,2.0652,2.0652,2.0652,2.3033,2.5287,2.5287,2.7744,2.9955,2.9955,2.9955,2.9955,2.9955,2.9955,3.0068,3.0275,3.2656,3.4891,3.6378,3.7655,3.8485,3.8485,3.8485,3.8485,3.8485,3.8485,3.8485,3.8485,3.8485,3.8485,3.8485,3.8485,3.8585,3.8685,3.9842,4.0519,4.0807,4.3014,4.4202,4.429,4.5328,4.5864,-0.6659,0.0,0.0,0.0,0.0,0.0,0.0,0.0,0.0,0.0,0.0,0.0,0.0,0.0,0.0,0.0,0.0,0.0,0.0,0.0,0.0,0.0,0.0,0.0,0.0,0.0,0.0,0.0,0.0,0.0,0.0,0.9402,1.0443,1.0552,1.0552,1.0552,1.0552,1.0552,1.0552,1.0552,1.0552,1.0552,1.0552,1.0552,1.0552,1.0552,1.0552,1.0552,1.0552,1.0552,1.0552,1.0552,1.0552,1.0552,1.0674,1.2432,1.3443,1.4457,1.713,1.8525,1.927,2.027,2.0652,2.0652,2.0652,2.0652,2.0652,2.0652,2.0652,2.0652,2.0652,2.0652,2.0652,2.0652,2.3033,2.5287,2.5287,2.7744,2.9955,2.9955,2.9955,2.9955,2.9955,2.9955,2.9955,2.9955,3.1596,3.374,3.6067,3.6893,3.7553,3.8385,3.8485,3.8485,3.8485,3.8485,3.8485,3.8485,3.8485,3.8485,3.8485,3.8485,3.8485,3.8485,3.8983,3.9647,4.0423,4.1444,4.2649,4.4114,4.4581,4.5186,-0.656,-0.6033,0.0,0.0,0.0,0.0,0.0,-0.9538,0.0,0.0,0.0,0.0,0.0,0.0,0.0,0.0,0.0,0.0,0.0,0.0,0.0,0.0,0.0,0.0,0.0,0.0,0.0,0.0,0.0,0.0,0.0,0.9133,1.0555,1.0436,1.0559,1.0559,1.0552,1.0552,1.0552,1.0552,1.0552,1.0552,1.0552,1.0552,1.0552,1.0552,1.0552,1.0552,1.0552,1.0552,1.0552,1.0552,1.0552,1.0552,1.0681,1.1808,1.256,1.3316,1.5728,1.7255,1.8276,1.9529,2.0147,2.0652,2.0652,2.0652,2.0652,2.0652,2.0652,2.0652,2.0652,2.0652,2.0652,2.0652,2.3033,2.5287,2.5287,2.7744,2.9955,2.9955,2.9955,2.9955,2.9955,2.9955,2.9955,2.9955,3.0836,3.2348,3.4808,3.544,3.6378,3.8284,3.8485,3.8485,3.8485,3.8485,3.8485,3.8485,3.8485,3.8485,3.8485,3.8485,3.8485,3.8485,3.8485,3.8983,3.9842,4.023,4.135,4.3014,4.376,4.4581,-0.8287,-0.7316,0.0,0.0,0.0,0.0,-0.7802,-0.8406,-0.9437,-1.0424,0.0,-0.9396,0.0,0.0,0.0,0.0,0.0,0.0,0.0,0.0,0.0,0.0,0.0,0.0,0.0,0.0,0.0,0.0,0.0,0.0,0.0,1.0544,1.0531,1.0463,1.0456,1.0443,1.0552,1.0552,1.0552,1.0552,1.0552,1.0552,1.0552,1.0552,1.0552,1.0552,1.0552,1.0552,1.0552,1.0552,1.0552,1.0552,1.0552,1.0552,1.0552,1.0552,1.156,1.3061,1.3061,1.5214,1.8027,1.8151,1.9282,2.0652,2.0652,2.0652,2.0652,2.0652,2.0652,2.0652,2.0652,2.0652,2.0652,2.0652,2.3033,2.5287,2.5287,2.7744,2.9955,2.9955,2.9955,2.9955,2.9955,2.9955,2.9955,2.9955,2.9955,3.05,3.1948,3.3329,3.5313,3.816,3.8485,3.8485,3.8485,3.8485,3.8485,3.8485,3.8485,3.8485,3.8485,3.8485,3.8485,3.8485,3.8485,3.8485,3.8485,3.9842,4.0423,4.0519,4.3014,4.4114,-0.7293,-0.7153,-0.7272,0.0,0.0,0.0,-0.7965,-0.9003,-1.0055,-0.9648,-0.9451,0.0,0.0,0.0,0.0,0.0,0.0,0.0,0.0,0.0,0.0,0.0,0.0,0.0,0.0,0.0,0.0,0.0,0.0,0.0,0.0,1.0557,1.0634,1.0926,1.0589,1.0613,1.0726,1.0522,1.0552,1.0552,1.0627,1.0726,1.072,1.0515,1.0552,1.0552,1.0552,1.0552,1.0552,1.0552,1.0552,1.0552,1.0552,1.0552,1.0552,1.0552,1.0803,1.1431,1.2687,1.4457,1.6492,1.7641,1.927,2.0652,2.0652,2.0652,2.0652,2.0652,2.0652,2.0652,2.0652,2.0652,2.0652,2.0652,2.3033,2.5287,2.5287,2.7744,2.9955,2.9955,2.9955,2.9955,2.9955,2.9955,2.9955,2.9955,2.9955,3.0068,3.0519,3.2765,3.4595,3.5418,3.7326,3.8485,3.8485,3.8485,3.8485,3.8485,3.8485,3.8485,3.8485,3.8485,3.8485,3.8485,3.8485,3.8485,3.8485,3.8884,3.9549,4.0423,4.1255,4.2558,-0.8263,-0.822,-0.8174,-0.8928,-0.9669,0.0,0.0,-1.0,-0.9966,-0.9633,-0.9318,0.0,0.0,0.0,0.0,0.0,0.0,0.0,0.0,0.0,0.0,0.0,0.0,0.0,0.0,0.0,0.0,0.0,0.0,0.0,0.6343,0.6479,0.788,1.0797,1.076,1.0789,1.0906,1.0845,1.0746,1.0746,1.0931,1.0964,1.0858,1.0674,1.0528,1.0552,1.0552,1.0552,1.0552,1.0552,1.0552,1.0552,1.0552,1.0552,1.0552,1.0552,1.0552,1.0681,1.168,1.3197,1.4836,1.6618,1.8264,1.9777,2.0406,2.0652,2.0652,2.0652,2.0652,2.0652,2.0652,2.0652,2.0652,2.0652,2.3033,2.5287,2.5287,2.7744,2.9955,2.9955,2.9955,2.9955,2.9955,2.9955,2.9955,2.9955,2.9955,2.9955,2.9955,3.1908,3.3632,3.4169,3.6275,3.7857,3.8485,3.8485,3.8485,3.8485,3.8485,3.8485,3.8485,3.8485,3.8485,3.8485,3.8485,3.8485,3.8485,3.8485,3.8884,3.9745,4.023,4.1255,-1.0653,-1.0132,-0.9254,-0.9653,-1.0564,0.0,-1.3237,-1.1182,0.0,-1.0062,0.0,0.0,0.0,0.0,0.0,0.0,0.0,0.0,0.0,0.0,0.0,0.0,0.0,0.0,0.0,0.0,0.0,0.0,0.0,0.0,-0.0,-0.0,0.3211,1.0458,1.1001,1.1251,1.1084,1.1173,1.13,1.1339,1.132,1.1175,1.0924,1.0904,1.0733,1.0585,1.0585,1.0572,1.0552,1.0552,1.0552,1.0552,1.0552,1.0552,1.0552,1.0552,1.0552,1.0552,1.0552,1.1552,1.3316,1.4836,1.6618,1.84,1.99,2.0529,2.0652,2.0652,2.0652,2.0652,2.0652,2.0652,2.0652,2.0652,2.2912,2.505,2.505,2.7628,2.9728,2.9728,2.9842,2.9955,2.9955,2.9955,2.9955,2.9955,2.9955,2.9955,2.9955,3.1171,3.2588,3.3955,3.5418,3.6917,3.8184,3.8385,3.8485,3.8485,3.8485,3.8485,3.8485,3.8485,3.8485,3.8485,3.8485,3.8485,3.8485,3.8485,3.8485,3.8485,3.977,4.0327,-1.0812,-1.1201,-1.1483,-1.1553,0.0,0.0,0.0,0.0,0.0,0.0,0.0,0.0,0.0,0.0,0.0,0.0,0.0,0.0,0.0,0.0,0.0,0.0,0.0,0.0,0.0,0.0,0.0,0.0,0.0,0.0,-0.0,-0.0,0.3624,1.1636,1.1113,1.0971,1.1512,1.1297,1.1401,1.1985,1.1755,1.1603,1.1511,1.128,1.103,1.0766,1.0766,1.0634,1.0552,1.0552,1.0552,1.0552,1.0552,1.0552,1.0552,1.0552,1.0552,1.0552,1.0552,1.1552,1.3061,1.3443,1.5602,1.8151,1.8525,1.9529,2.0652,2.0652,2.0652,2.0652,2.0652,2.0652,2.0652,2.0652,2.2065,2.3484,2.3484,2.5962,2.8205,2.8205,2.9141,2.9955,2.9955,2.9955,2.9955,2.9955,2.9955,2.9955,2.9955,3.1171,3.2149,3.2588,3.4808,3.6482,3.6791,3.7857,3.8485,3.8485,3.8485,3.8485,3.8485,3.8485,3.8485,3.8485,3.8485,3.8485,3.8485,3.8485,3.8485,3.8485,3.8784,3.9451,-1.2204,-1.3161,-1.3799,-1.3099,-1.3787,-1.431,0.0,0.0,0.0,0.0,0.0,0.0,0.0,0.0,0.0,0.0,0.0,0.0,0.0,0.0,0.0,0.0,0.0,0.0,0.0,0.0,0.0,0.0,0.0,0.0,-0.0,-0.0,0.1984,0.6423,0.9685,1.1436,1.1857,1.1707,1.0868,0.943,1.1125,1.188,1.1728,1.1557,1.1326,1.1049,0.0,1.0845,1.0792,1.0528,1.0502,1.0614,1.0605,1.0552,1.0552,1.0552,1.0552,1.0552,1.0552,1.1053,1.1929,1.2807,1.4204,1.598,1.7641,1.8773,1.9653,2.0393,2.0652,2.0652,2.0652,2.0652,2.0652,2.0652,2.1822,2.3003,2.3003,2.4781,2.6581,2.6581,2.7859,2.8912,2.8912,2.9482,2.9955,2.9955,2.9955,2.9955,2.9955,3.0612,3.1394,3.2039,3.3416,3.4702,3.5335,3.6688,3.7529,3.7529,3.7529,3.7756,3.8485,3.8485,3.8485,3.8485,3.8485,3.8485,3.8485,3.8485,3.8485,3.8485,3.8485,3.8884,-1.3953,-1.5602,-1.6721,-1.5515,-1.5011,-1.4618,-1.3809,0.0,0.0,0.0,0.0,0.0,0.0,-0.8397,0.0,0.0,0.0,0.0,0.0,0.0,0.0,0.0,0.0,0.0,0.0,0.0,0.0,0.0,0.0,-0.0,-0.0,-0.0,-0.0,-0.0,0.6728,1.0432,1.0432,1.0432,0.9178,0.6995,1.0516,1.2084,1.1681,1.1807,1.1629,1.1339,0.0,1.1102,1.124,1.0753,1.068,1.0845,1.0588,1.0592,1.0552,1.0552,1.0552,1.0552,1.0552,1.0552,1.0674,1.2185,1.2807,1.357,1.6492,1.7641,1.84,1.9777,2.027,2.027,2.0529,2.0652,2.0652,2.0652,2.1592,2.2642,2.2642,2.3844,2.4931,2.4931,2.633,2.7628,2.7628,2.8912,2.9955,2.9955,2.9955,2.9955,2.9955,2.9955,3.0407,3.1616,3.1928,3.2588,3.374,3.523,3.6067,3.6067,3.6275,3.7019,3.8385,3.8485,3.8485,3.8485,3.8485,3.8485,3.8485,3.8485,3.8485,3.8485,3.8485,3.8485,-1.4977,-1.832,-2.181,-2.1618,-2.0949,-1.9958,-1.8438,0.0,0.0,0.0,0.0,0.0,0.0,-0.833,0.0,0.0,0.0,0.0,0.0,0.0,0.0,0.0,0.0,0.0,0.0,0.0,0.0,0.0,0.0,-0.0,-0.0,-0.0,-0.0,-0.0,0.1221,0.1832,0.1832,0.1832,0.5039,1.1357,1.1978,1.2243,1.2163,1.2144,1.1966,1.1531,0.0,0.0,1.1267,1.1181,1.1036,1.0865,1.0812,1.0647,1.0552,1.0552,1.0552,1.0552,1.0552,1.0552,1.0552,1.0803,1.1808,1.3061,1.3697,1.5854,1.8151,1.84,1.8525,1.8773,2.027,2.0652,2.0652,2.0652,2.0762,2.1007,2.1007,2.2186,2.3229,2.3229,2.5609,2.7628,2.7628,2.8912,2.9955,2.9955,2.9955,2.9955,2.9955,2.9955,3.0068,3.0294,3.1394,3.2169,3.2369,3.374,3.4595,3.4595,3.5627,3.7019,3.8385,3.8485,3.8485,3.8485,3.8485,3.8485,3.8485,3.8485,3.8485,3.8485,3.8485,3.8485,-1.7836,-2.0817,-2.3642,-2.2601,-2.1981,-2.1226,-1.9295,-1.7308,0.0,0.0,0.0,0.0,0.0,0.0,0.0,0.0,0.0,0.0,0.0,0.0,0.0,0.0,0.0,0.0,0.0,0.0,0.0,0.0,0.0,-0.0,-0.0,-0.0,-0.0,-0.0,-0.0,-0.0,-0.0,-0.0,0.1832,0.5654,1.0122,1.2295,1.2117,0.9905,0.9991,0.0,0.0,0.0,1.1768,1.1303,1.1186,1.1333,1.1155,1.0911,1.066,1.066,1.0561,1.0552,1.0552,1.0552,1.0552,1.0552,1.1053,1.1808,1.2807,1.471,1.6743,1.6743,1.8004,1.9653,2.0406,2.0652,2.0652,2.0652,2.0652,2.0652,2.0652,2.1117,2.1943,2.2762,2.4781,2.6581,2.7495,2.8912,2.9955,2.9955,2.9955,2.9955,2.9955,2.9955,2.9955,2.9955,3.05,3.0948,3.0948,3.1465,3.2238,3.3004,3.3632,3.5019,3.7224,3.7326,3.7655,3.8485,3.8485,3.8485,3.8485,3.8485,3.8485,3.8485,3.8485,3.8485,-2.1868,0.0,-2.4842,-2.3003,-2.2577,-2.1989,0.0,-1.8368,0.0,0.0,0.0,0.0,0.0,0.0,-1.1655,0.0,0.0,0.0,0.0,0.0,0.0,0.0,0.0,0.0,0.0,0.0,0.0,0.0,0.0,-0.0,-0.0,-0.0,-0.0,-0.0,-0.0,-0.0,-0.0,-0.0,-0.0,-0.0,0.642,0.935,0.9345,0.8081,0.9299,0.0,0.0,0.0,1.0807,1.1141,1.1479,1.1583,1.1478,1.1208,1.0957,1.0891,1.072,1.0515,1.0572,1.0552,1.0552,1.0552,1.0552,1.0674,1.2057,1.3324,1.4466,1.4845,1.7108,1.9517,1.99,2.0283,2.0652,2.0652,2.0652,2.0652,2.0652,2.0652,2.1117,2.2642,2.4202,2.5759,2.7379,2.8912,2.9955,2.9955,2.9955,2.9955,2.9955,2.9955,2.9955,2.9955,2.9955,2.9955,2.9955,2.9955,3.05,3.1948,3.2059,3.3221,3.5755,3.6171,3.6917,3.7958,3.8284,3.8485,3.8485,3.8485,3.8485,3.8485,3.8485,3.8485,0.0,-2.7599,-2.6723,-2.5319,-2.4978,-2.4372,-2.1779,0.0,0.0,0.0,-1.5034,-1.4622,-1.375,-1.2248,-1.1648,-1.3223,-1.111,0.0,0.0,0.0,0.0,0.0,0.0,0.0,0.0,0.0,0.0,0.0,0.0,0.0,-0.0,-0.0,-0.0,-0.0,-0.0,-0.0,-0.0,-0.0,-0.0,-0.0,0.0611,0.0916,0.1069,0.8421,1.1985,0.0,0.0,0.0,0.0,1.0621,1.1985,1.1603,1.1709,1.1511,1.1214,1.0964,1.0852,1.0792,1.0515,1.0552,1.0552,1.0552,1.0552,1.0552,1.0681,1.0803,1.1182,1.2815,1.4457,1.6231,1.7891,1.9406,2.0652,2.0652,2.0652,2.0652,2.0652,2.0652,2.1117,2.2642,2.4202,2.5759,2.7379,2.8912,2.9955,2.9955,2.9955,2.9955,2.9955,2.9955,2.9955,2.9955,2.9955,2.9955,2.9955,2.9955,3.05,3.1948,3.2059,3.2786,3.4276,3.5627,3.6378,3.6482,3.7857,3.8485,3.8485,3.8485,3.8485,3.8485,3.8485,3.8485,-2.9829,-2.9676,-2.8616,-2.7966,-2.7356,0.0,0.0,0.0,0.0,0.0,-1.7021,-1.6437,-1.5523,-1.4183,-1.3857,-1.596,-1.3982,0.0,0.0,0.0,0.0,0.0,0.0,0.0,0.0,0.0,0.0,0.0,0.0,0.0,-0.8607,-0.3073,-0.0,-0.0,-0.0,-0.0,-0.0,-0.0,-0.0,-0.0,-0.0,-0.0,0.0153,0.3206,0.4581,0.0,0.0,0.0,0.0,0.6685,0.9841,1.2051,1.2012,1.1821,1.1537,1.1438,1.128,1.1082,1.0799,1.07,1.0667,1.0612,1.0552,1.0552,1.0552,1.0552,1.0796,1.256,1.4962,1.7255,1.7891,1.927,2.0652,2.0652,2.0652,2.0652,2.0652,2.0652,2.1361,2.3844,2.4813,2.6095,2.8665,2.9482,2.9955,2.9955,2.9955,2.9955,2.9955,2.9955,2.9955,2.9955,2.9955,2.9955,2.9955,2.9955,3.0181,3.0724,3.0744,3.1374,3.2786,3.3416,3.4467,3.6275,3.6893,3.7631,3.8485,3.8485,3.8485,3.8485,3.8485,3.8485,-3.1279,-3.0654,-2.9462,-2.885,-2.8228,-2.7101,-2.4711,0.0,0.0,-2.0009,-1.8691,-1.7892,-1.7641,-1.6011,-1.5447,-1.7724,-1.6059,-1.4924,0.0,0.0,0.0,0.0,0.0,0.0,0.0,0.0,0.0,0.0,0.0,0.0,-1.3866,-0.4969,-0.0,-0.0,-0.0,-0.0,-0.0,-0.0,-0.0,-0.0,-0.0,-0.0,-0.0,-0.0,-0.0,0.0,0.0,0.0,0.0,0.5788,0.9618,1.2256,1.2203,1.2058,1.186,1.1761,1.159,1.1372,1.1095,1.0937,1.0832,1.0627,1.0625,1.0552,1.0552,1.0552,1.0674,1.1937,1.4339,1.6618,1.713,1.8513,1.99,2.0529,2.0652,2.0652,2.0652,2.0652,2.1483,2.4694,2.5287,2.6213,2.9369,2.9955,2.9955,2.9955,2.9955,2.9955,2.9955,2.9955,2.9955,2.9955,2.9955,2.9955,2.9955,2.9955,2.9955,2.9955,2.9955,3.0407,3.1394,3.1838,3.3004,3.4891,3.5836,3.6814,3.7857,3.8284,3.8485,3.8485,3.8485,3.8485,-3.1496,-3.04,-2.903,-2.7798,-2.7383,-2.7069,0.0,0.0,0.0,-2.1688,-1.9939,-1.9019,-2.0065,-1.7682,-1.6278,-1.8176,-1.6589,-1.4936,0.0,0.0,0.0,0.0,0.0,0.0,0.0,0.0,0.0,0.0,0.0,0.0,-1.3802,-0.5075,-0.0169,-0.0169,-0.0169,-0.0167,-0.0,-0.0,-0.0,-0.0,-0.0,-0.0,-0.0,-0.0,-0.0,-0.0,0.0,0.0,0.0,0.8883,1.2302,1.2295,1.2229,1.2203,1.2163,1.1847,1.1722,1.1682,1.1386,1.1102,1.0871,1.0871,1.0667,1.0552,1.0552,1.0552,1.0552,1.0552,1.168,1.3443,1.5098,1.6743,1.8525,2.0147,2.0652,2.0652,2.0652,2.0652,2.1483,2.4694,2.5287,2.6213,2.9369,2.9842,2.9955,2.9955,2.9955,2.9955,2.9955,2.9955,2.9955,2.9955,2.9955,2.9955,2.9955,2.9955,2.9955,2.9955,2.9955,2.9955,2.9955,3.1283,3.2039,3.2059,3.4914,3.6275,3.6378,3.7756,3.8485,3.8485,3.8485,3.8485,-3.2185,-3.0623,-2.8923,-2.9191,-2.8797,-2.7943,0.0,0.0,0.0,-2.2806,-2.2525,-2.2506,-2.2092,-2.0637,-1.9582,-1.9962,-1.9193,-1.7935,0.0,0.0,0.0,0.0,0.0,0.0,0.0,0.0,0.0,0.0,0.0,0.0,-1.3751,-0.8114,-0.6383,-0.9535,-0.9738,-0.6579,-0.0,-0.0,-0.0,-0.0,-0.0,-0.0,-0.0,-0.0,-0.0,-0.0,-0.0,0.0,0.0,0.8883,1.2302,1.2295,1.2229,1.2203,1.219,1.2078,1.2038,1.1992,1.1695,1.1537,1.1405,1.0997,1.0805,1.0733,1.0733,1.0588,1.0552,1.0552,1.0803,1.168,1.3324,1.5854,1.8525,2.0147,2.0652,2.0652,2.0652,2.0652,2.1239,2.3244,2.3604,2.4306,2.633,2.7628,2.8321,2.8321,2.9255,2.9955,2.9955,2.9955,2.9955,2.9955,2.9955,2.9955,2.9955,2.9955,2.9955,2.9955,2.9955,2.9955,2.9955,3.0294,3.106,3.2059,3.2895,3.4361,3.6378,3.6791,3.7529,3.8485,3.8485,3.8485,-3.225,-3.1075,-2.9936,-3.0771,-3.0619,-2.9727,-2.7715,0.0,0.0,-2.4209,-2.4106,-2.414,-2.3434,-2.2734,0.0,0.0,0.0,0.0,0.0,0.0,0.0,0.0,0.0,0.0,0.0,0.0,0.0,0.0,0.0,0.0,-1.383,-1.1154,-1.0981,-1.3669,-1.3864,-1.1172,-0.5485,-0.182,-0.0,-0.0,-0.0,-0.0,-0.0,-0.0,-0.0,-0.0,-0.0,0.0,0.0,0.5349,0.7342,0.7651,1.1017,1.2236,1.2216,1.219,1.2177,1.2144,1.1966,1.1821,1.1662,1.132,1.1208,1.1161,1.0937,1.0739,1.0575,1.0585,1.0552,1.0674,1.1808,1.4086,1.6618,1.9022,2.0147,2.0652,2.0652,2.0652,2.1117,2.2642,2.3003,2.3484,2.505,2.6095,2.6914,2.7495,2.8435,2.9255,2.9842,2.9955,2.9955,2.9955,2.9955,2.9955,2.9955,2.9955,2.9955,2.9955,2.9955,2.9955,2.9955,2.9955,3.0294,3.1171,3.1838,3.3221,3.5545,3.6067,3.7122,3.8485,3.8485,3.8485,-3.2279,-3.1792,-3.153,-3.2328,-3.2395,-3.1853,-2.9309,0.0,0.0,0.0,-2.5086,-2.4661,-2.4335,0.0,0.0,0.0,0.0,-2.2969,0.0,0.0,0.0,0.0,0.0,0.0,0.0,0.0,0.0,0.0,0.0,0.0,-1.3764,-1.3784,-1.3797,-1.3803,-1.3843,-1.3862,-1.3869,-0.5471,-0.0846,-0.0,-0.0,-0.0,-0.0,-0.0,-0.0,-0.0,-0.0,0.0,0.0,-0.0,-0.0,0.0763,0.904,1.2282,1.2243,1.2216,1.219,1.2177,1.2321,1.1992,1.1761,1.1728,1.1722,1.1616,1.1069,1.0884,1.0805,1.0509,1.0552,1.0552,1.0552,1.1808,1.3823,1.6869,1.9022,2.0406,2.0529,2.0652,2.1007,2.2414,2.2762,2.3124,2.4559,2.505,2.5759,2.7147,2.7628,2.8321,2.9728,2.9955,2.9955,2.9955,2.9955,2.9955,2.9955,2.9955,2.9955,2.9955,2.9955,2.9955,2.9955,2.9955,2.9955,2.9955,3.1171,3.2676,3.4169,3.5523,3.6893,3.8485,3.8485,3.8485,-3.3909,-3.3146,-3.229,-3.248,-3.2395,-3.1853,-2.9309,-2.8659,0.0,0.0,0.0,0.0,0.0,0.0,0.0,0.0,0.0,0.0,0.0,0.0,0.0,0.0,0.0,0.0,0.0,0.0,0.0,0.0,0.0,0.0,-1.3719,-1.3725,-1.3745,-1.3777,-1.379,-1.3817,-1.3869,-1.1843,-0.728,-0.0,-0.0,-0.0,-0.0,-0.0,-0.0,-0.0,-0.0,0.0,0.0,-0.0,-0.0,0.0763,0.904,1.2295,1.2282,1.2223,1.2203,1.2196,1.2177,1.213,1.2038,1.1794,1.1722,1.1656,1.13,1.1036,1.0805,1.0509,1.0552,1.0552,1.0552,1.1808,1.3188,1.395,1.6367,1.9022,2.0283,2.0652,2.0639,2.1007,2.1117,2.1239,2.1483,2.3619,2.5405,2.5743,2.7842,2.9615,2.9842,2.9955,2.9955,2.9955,2.9955,2.9955,2.9955,2.9955,2.9955,2.9955,2.9955,2.9955,2.9955,2.9955,2.9955,2.9955,3.0294,3.1687,3.4169,3.4467,3.5963,3.8485,3.8485,3.8485,-3.4077,-3.373,-3.322,-3.3619,-3.3713,-3.3163,-3.1037,0.0,0.0,0.0,0.0,-2.846,-2.5901,0.0,0.0,0.0,0.0,0.0,0.0,0.0,0.0,0.0,0.0,0.0,0.0,0.0,0.0,0.0,0.0,-1.3878,-1.3878,-1.3878,-1.3719,-1.3738,-1.3764,-1.379,-1.3823,-1.3878,-1.1375,-0.6527,-0.2159,-0.0,-0.0,-0.0,-0.0,-0.0,-0.0,0.0,-0.0,-0.0,-0.0,0.0458,0.4734,0.8731,1.2302,1.2262,1.2236,1.2216,1.2196,1.219,1.2157,1.2005,1.1946,1.1854,1.1412,1.1175,1.097,1.0542,1.0552,1.0552,1.0552,1.1182,1.2057,1.2807,1.4972,1.738,1.9022,2.0024,2.0652,2.0652,2.0652,2.0652,2.0652,2.2549,2.444,2.5168,2.7263,2.9026,2.9842,2.9955,2.9955,2.9955,2.9955,2.9955,2.9955,2.9955,2.9955,2.9955,2.9955,2.9955,2.9955,2.9955,2.9955,2.9955,2.9955,3.1374,3.4169,3.4169,3.565,3.8485,3.8485,3.8485,-3.373,-3.3884,-3.4169,-3.4852,-3.5004,-3.4437,-3.2505,-3.2031,0.0,0.0,0.0,-2.9799,-2.6732,-2.9305,0.0,-2.7796,0.0,0.0,0.0,0.0,-1.9941,0.0,0.0,0.0,0.0,0.0,0.0,0.0,0.0,-1.3878,-1.3878,-1.3878,-1.3878,-1.3878,-1.3745,-1.3764,-1.3771,-1.383,-1.3862,-1.3688,-0.4443,-0.0,-0.0,-0.0,-0.0,-0.0,-0.0,0.0,-0.0,-0.0,-0.0,-0.0,-0.0,0.4124,1.028,1.168,1.2282,1.2091,1.1435,1.1586,1.2203,1.2203,1.219,1.2065,1.1517,1.1353,1.1234,1.066,1.0502,1.0619,1.0565,1.0552,1.0796,1.2312,1.3823,1.5602,1.7255,1.9022,2.0283,2.0529,2.0652,2.0652,2.0652,2.1943,2.3484,2.505,2.6564,2.8205,2.9728,2.9955,2.9955,2.9955,2.9955,2.9955,2.9955,2.9955,2.9955,2.9955,2.9955,2.9955,2.9955,2.9955,2.9955,2.9955,2.9955,3.1374,3.4169,3.4169,3.565,3.8485,3.8485,3.8485,-3.365,-3.4302,-3.4871,-3.4985,-3.5004,-3.4156,-3.0799,-3.0069,-2.9852,-2.8919,0.0,0.0,-2.9612,0.0,-2.992,-2.7774,0.0,-2.8188,-2.7509,-2.3474,-2.0537,-2.0537,-1.6553,-1.3878,-1.3878,-1.3878,-1.3878,-1.3878,-1.3878,-1.3878,-1.3878,-1.3878,-1.3878,-1.3878,-1.3884,-1.3732,-1.3771,-1.3797,-1.383,-1.3688,-0.4443,-0.0,-0.0,-0.0,-0.0,-0.0,-0.0,-0.0,-0.0,-0.0,-0.0,-0.0,-0.0,0.0611,0.2442,0.9654,1.2302,1.1668,0.8068,0.9274,1.2203,1.2203,1.219,1.2111,1.1768,1.1662,1.1544,1.097,1.0805,1.0746,1.0489,1.0552,1.0552,1.0803,1.2185,1.3823,1.5476,1.7255,1.8898,2.0283,2.0652,2.0652,2.0652,2.1943,2.3484,2.505,2.6564,2.8205,2.9728,2.9955,2.9955,2.9955,2.9955,2.9955,2.9955,2.9955,2.9955,2.9955,2.9955,2.9955,2.9955,2.9955,2.9955,2.9955,2.9955,3.1374,3.4169,3.4169,3.565,3.8485,3.8485,3.8485,-3.3429,-3.4378,-3.5004,-3.5004,-3.4171,-3.3133,-3.1476,-3.0592,-2.9675,-2.8149,-2.8609,0.0,0.0,0.0,0.0,0.0,0.0,0.0,-2.6936,-2.4309,-2.1955,0.0,-1.7774,0.0,-1.3878,-1.3878,-1.3878,0.0,-1.5071,-1.5242,-1.3878,-1.3878,-1.3878,-1.3878,-1.3878,-1.3719,-1.3738,-1.3771,-1.2555,-0.9931,-0.8478,-0.5075,-0.0,-0.0,-0.0,-0.0,0.0,-0.0,-0.0,-0.0,-0.0,-0.0,-0.0,-0.0,0.0458,0.3971,0.5349,0.5804,0.8555,1.0708,1.2256,1.2229,1.221,1.213,1.1814,1.1722,1.1603,1.103,1.0865,1.0799,1.0502,1.0552,1.0552,1.0552,1.1808,1.3443,1.5214,1.6869,1.8525,2.027,2.0652,2.0652,2.0652,2.1943,2.3484,2.505,2.6564,2.7859,2.855,2.9369,2.9955,2.9955,2.9955,2.9955,2.9955,2.9955,2.9955,2.9955,2.9955,2.9955,2.9955,2.9955,3.0294,3.1171,3.1171,3.2546,3.544,3.544,3.6482,3.8485,3.8485,3.8485,-3.285,-3.3732,-3.4342,-3.4343,-3.3315,-3.2051,-3.1102,-3.0144,-2.9096,-2.744,-2.8554,-2.9113,0.0,0.0,0.0,-2.7096,-2.7602,0.0,-2.7027,-2.5274,0.0,-2.1641,0.0,-1.7273,-1.4899,-1.5235,0.0,0.0,-1.5755,-1.5584,-1.3878,-1.3878,-1.3878,-1.3878,-1.3878,-1.3878,-1.3878,-1.3738,-1.2175,-0.8857,-1.2244,-1.0273,-0.3436,-0.1145,-0.0,-0.0,-0.0,-0.0,-0.0,-0.0,-0.0,-0.0,-0.0,-0.0,-0.0,-0.0,-0.0,0.0916,0.7033,1.0432,1.2295,1.2262,1.2229,1.2157,1.192,1.184,1.1728,1.1227,1.103,1.0904,1.0608,1.0612,1.0552,1.0552,1.1431,1.2942,1.5098,1.6492,1.8015,2.0147,2.0652,2.0652,2.0652,2.1592,2.2883,2.444,2.5978,2.7164,2.7495,2.8912,2.9955,2.9955,2.9955,2.9955,2.9955,2.9955,2.9955,2.9955,2.9955,2.9955,2.9955,2.9955,3.0612,3.2059,3.2059,3.3524,3.6378,3.6378,3.7122,3.8485,3.8485,3.8485,-3.1582,-3.1986,-3.2511,-3.2386,-3.2339,-3.1374,-2.7685,-2.7356,-2.7648,-2.7547,-2.7445,-2.8071,0.0,0.0,-2.7889,-2.9556,-2.8504,-2.7654,-2.8061,-2.6227,-2.45,0.0,0.0,0.0,0.0,0.0,0.0,-1.7281,0.0,-1.3878,-1.3878,-1.3878,-1.3878,-1.3878,-1.3878,-1.3878,-1.3878,-1.3884,-1.3732,-1.3419,-1.3663,-1.3563,-1.2827,-0.3926,-0.0,-0.0,-0.0,-0.0,-0.0,-0.0,-0.0,-0.0,-0.0,-0.0,-0.0,-0.0,-0.0,-0.0,0.0458,0.5654,1.2302,1.2302,1.2256,1.2203,1.2183,1.2163,1.2078,1.1768,1.1471,1.1188,1.0911,1.0634,1.0552,1.0552,1.0552,1.156,1.4845,1.5602,1.6607,2.0024,2.0652,2.0652,2.0652,2.0639,2.1239,2.2883,2.444,2.5995,2.7379,2.8912,2.9955,2.9955,2.9955,2.9955,2.9955,2.9955,2.9955,2.9955,2.9955,2.9955,2.9955,2.9955,3.0612,3.2059,3.2059,3.3524,3.6378,3.6378,3.7122,3.8485,3.8485,3.8485,-3.2424,-3.2573,-3.2268,-3.1596,-3.0881,-2.9888,-2.7266,-2.6542,-2.6285,-2.588,-2.6579,-2.7476,-2.8052,-2.7393,-2.7144,-2.8166,-2.7547,-2.7035,-2.7606,-2.5778,-2.4157,-2.3975,-2.1955,-2.0289,0.0,0.0,0.0,-1.5405,-1.5755,-1.5413,-1.3878,-1.3878,-1.3878,-1.3878,-1.3878,-1.3878,-1.3878,-1.3878,-1.3884,-1.3732,-1.3798,-1.3883,-1.3491,-0.4191,-0.0,-0.0,-0.0,-0.0,-0.0,-0.0,-0.0,-0.0,-0.0,-0.0,-0.0,-0.0,-0.0,-0.0,-0.0,0.1984,0.5194,1.0584,1.0398,0.8816,1.1429,1.219,1.2111,1.1807,1.1643,1.1498,1.1208,1.1049,1.0931,1.0753,1.1611,1.2969,1.5029,1.6367,1.7891,2.0147,2.0652,2.0652,2.0652,2.0652,2.1117,2.2762,2.4321,2.586,2.7379,2.8912,2.9955,2.9955,2.9955,2.9955,2.9955,2.9955,2.9955,2.9955,2.9955,3.0387,3.1283,3.1283,3.2458,3.4808,3.4786,3.5755,3.7756,3.7756,3.7958,3.8485,3.8485,3.8485,-3.2115,0.0,-3.1641,-2.9956,-2.9574,-2.8922,-2.6281,-2.5543,-2.5321,-2.5126,-2.6152,-2.7035,-2.684,-2.6814,-2.6931,-2.732,-2.6386,-2.5761,-2.6134,-2.4306,-2.2789,-2.2789,-2.2133,0.0,0.0,0.0,0.0,-1.5235,-1.5747,-1.5413,-1.3878,-1.3878,-1.3878,-1.3878,-1.3878,-1.3878,-1.3878,-1.3878,-1.3878,-1.3878,-1.3746,-1.3709,-1.3435,-0.7059,-0.2654,-0.0,-0.0,-0.0,-0.0,-0.0,-0.0,-0.0,-0.0,-0.0,-0.0,-0.0,-0.0,-0.0,-0.0,-0.0,0.0916,0.642,0.7166,0.6832,1.0976,1.2196,1.213,1.1926,1.1801,1.1649,1.1353,1.1273,1.1181,1.0805,1.2095,1.3781,1.5184,1.6869,1.8525,2.027,2.0652,2.0652,2.0652,2.0652,2.1007,2.2065,2.3484,2.5271,2.7379,2.8912,2.9955,2.9955,2.9955,2.9955,2.9955,2.9955,2.9955,2.9955,3.0387,3.106,3.2059,3.2588,3.3955,3.6275,3.6378,3.7019,3.8485,3.8485,3.8485,3.8485,3.8485,3.8485,0.0,0.0,-3.0609,-2.7765,-2.8219,-2.8551,-2.4838,-2.4454,-2.5054,-2.5516,-2.61,-2.6671,-2.7256,-2.7359,-2.7359,-2.7372,-2.5322,-2.3952,-2.3786,-2.1955,-2.0457,-2.0625,-2.2456,-2.1955,0.0,-1.7281,-1.7281,-1.7281,-1.5071,-1.3878,-1.3878,-1.3878,-1.3878,-1.3878,-1.3878,-1.3878,-1.3878,-1.3878,-1.3878,-1.3878,-1.3878,-1.3569,-1.3129,-1.2486,-0.7828,-0.0,-0.0,-0.0,-0.0,-0.0,-0.0,-0.0,-0.0,-0.0,-0.0,-0.0,-0.0,-0.0,-0.0,-0.0,-0.0,-0.0,0.2735,0.6829,1.0987,1.2203,1.2321,1.2321,1.1959,1.1669,1.1366,1.1287,1.1279,1.0699,1.2071,1.3912,1.5311,1.7005,1.8649,2.027,2.0652,2.0652,2.0652,2.0652,2.0652,2.0639,2.2065,2.4187,2.7263,2.8912,2.9955,2.9955,2.9955,2.9955,2.9955,2.9955,2.9955,2.9955,3.1283,3.2169,3.2149,3.3524,3.4891,3.6378,3.6378,3.7122,3.8485,3.8485,3.8485,3.8485,3.8485,3.8485,-3.3448,0.0,0.0,-2.7814,-2.8019,-2.8089,-2.4942,-2.4617,-2.5095,-2.5112,-2.5503,-2.6087,-2.6658,-2.6762,-2.6233,-2.5085,-2.4306,-2.3288,-2.1788,-1.9625,-1.879,-2.0457,-1.9794,-1.7943,-1.5071,-1.6259,-1.66,-1.4899,-1.4221,-1.3878,-1.3878,-1.3878,-1.3878,-1.3878,-1.3878,-1.3878,-1.3878,-1.3878,-1.3878,-1.3878,-1.3878,-1.3634,-1.3179,-1.2905,-0.8094,-0.0,-0.0,-0.0,-0.0,-0.0,-0.0,-0.0,-0.0,-0.0,-0.0,-0.0,-0.0,-0.0,-0.0,-0.0,-0.0,-0.0,0.2667,0.6835,1.0922,1.2196,1.2321,1.2321,1.2111,1.1979,1.1676,1.2435,1.325,1.2718,1.4849,1.7166,1.7353,1.8773,2.0024,2.0516,2.0652,2.0652,2.0652,2.0652,2.1007,2.2172,2.3604,2.5389,2.7379,2.8912,2.9955,2.9955,2.9955,2.9955,2.9955,2.9955,3.0387,3.1394,3.1838,3.3004,3.5102,3.5545,3.6378,3.7857,3.7857,3.8083,3.8485,3.8485,3.8485,3.8485,3.8485,3.8485,-3.3581,0.0,0.0,0.0,-2.6284,-2.6129,-2.4808,-2.4178,-2.3911,-2.4363,-2.4697,-2.5191,-2.6022,-2.6165,-2.5467,0.0,-2.2703,-2.1508,-1.9364,-1.7174,-1.6251,-1.7596,-1.6592,-1.5242,-1.3878,-1.5071,-1.5242,-1.3878,-1.3878,-1.3878,-1.3878,-1.3878,-1.3878,-1.3878,-1.3878,-1.3878,-1.3878,-1.3878,-1.3878,-1.3878,-1.3878,-1.3587,-1.3208,-1.3086,-0.9237,-0.2435,-0.0762,-0.0,-0.0,-0.0,-0.0,-0.0,-0.0,-0.0,-0.0,-0.0,-0.0,-0.0,-0.0,-0.0,-0.0,-0.0,0.3898,0.9006,1.135,1.1974,1.1794,1.1794,1.1794,1.1867,1.2265,1.325,1.4011,1.4219,1.6497,1.834,1.8129,1.9406,2.0652,2.0652,2.0652,2.0652,2.0652,2.0652,2.1361,2.3604,2.5271,2.6797,2.8435,2.9369,2.9955,2.9955,2.9955,3.0181,3.0724,3.0836,3.1374,3.2895,3.3545,3.4573,3.6275,3.6893,3.7655,3.8485,3.9082,3.9255,3.9255,3.9792,3.9792,3.9255,3.9255,3.9047,0.0,0.0,0.0,-2.4443,-2.3829,-2.3559,0.0,0.0,-2.2341,-2.3277,-2.3526,-2.3957,-2.5061,-2.5347,-2.4649,-2.2566,-2.0919,-1.8962,-1.6887,-1.501,-1.3831,-1.3831,-1.3831,-1.3845,-1.3878,-1.3878,-1.3878,-1.3878,-1.3878,-1.3878,-1.3878,-1.3878,-1.3878,-1.3878,-1.3878,-1.3878,-1.3878,-1.3878,-1.3878,-1.3878,-1.3878,-1.3581,-1.3027,-1.3215,-1.0814,-0.653,-0.2895,-0.1374,-0.1374,-0.0305,-0.0,-0.0,-0.0,-0.0,-0.0,-0.0,-0.0,-0.0,-0.0,0.0282,0.0564,0.0843,0.5909,1.2054,1.1767,1.1453,1.1273,1.1273,1.1413,1.1893,1.3048,1.3866,1.461,1.5545,1.7306,1.8669,1.8369,1.9529,2.0652,2.0652,2.0652,2.0652,2.0652,2.0762,2.1957,2.5034,2.6681,2.8205,2.9728,3.0068,3.0181,3.0181,3.0294,3.0929,3.2149,3.2259,3.2895,3.4382,3.5627,3.6378,3.6585,3.7857,3.8585,3.8685,3.9842,4.0468,4.0435,4.1487,4.1407,4.0254,4.0254,3.9606,0.0,0.0,0.0,0.0,0.0,0.0,0.0,0.0,-2.1137,-2.0889,-2.1328,-2.1932,-2.2716,-2.3269,-2.2694,-1.9773,-1.9327,-1.8145,-1.4576,-1.3675,-1.3548,-1.3548,-1.3548,-1.3634,-1.3858,-1.3878,-1.3878,-1.3878,-1.3878,-1.3878,-1.3878,-1.3878,-1.3878,-1.3878,-1.3878,-1.3878,-1.3878,-1.3878,-1.3878,-1.3878,-1.3878,-1.3581,-1.3027,-1.3215,-1.2422,-1.097,-1.0252,-0.9812,-0.935,-0.2749,-0.0,-0.0,-0.0,-0.0,-0.0,-0.0,-0.0,-0.0,-0.0,0.1914,0.4375,0.5735,0.8488,1.1309,1.1373,1.1287,1.1273,1.1273,1.2241,1.3266,1.3449,1.5515,1.7554,1.7649,1.8969,2.015,2.0172,2.0406,2.0652,2.0652,2.0652,2.0652,2.0652,2.1714,2.3604,2.6681,2.7379,2.8205,2.9728,3.0948,3.1616,3.1616,3.2676,3.3524,3.374,3.3847,3.4382,3.5859,3.6171,3.6917,3.8059,3.8284,3.8983,4.0037,4.0327,4.0435,4.0411,4.0681,4.0111,3.8856,3.8856,3.8705,0.0,0.0,0.0,0.0,0.0,0.0,0.0,0.0,0.0,0.0,0.0,-2.0009,0.0,0.0,-2.0941,-1.7865,-1.796,-1.7145,-1.3616,-1.3152,-1.3245,-1.3245,-1.3245,-1.3304,-1.3436,-1.3587,-1.3673,-1.3673,-1.3798,-1.3878,-1.3878,-1.3878,-1.3878,-1.3878,-1.3878,-1.3878,-1.3878,-1.3878,-1.3878,-1.3878,-1.3739,-1.3442,-1.3021,-1.2882,-1.2748,-1.221,-1.2249,-1.2282,-1.168,-0.3359,-0.0,-0.0,-0.0,-0.0,-0.0,-0.0,0.1099,0.2843,0.4677,0.6389,0.7993,0.8787,0.9862,1.0965,1.1859,1.2162,1.2295,1.3219,1.4015,1.4895,1.5601,1.6966,1.845,1.9206,2.0024,2.0652,2.0652,2.0652,2.0652,2.0652,2.0652,2.0885,2.1592,2.3724,2.6046,2.8345,2.9294,3.0329,3.1888,3.2676,3.2755,3.1725,3.2243,3.2634,3.2634,3.3348,3.4484,3.6206,3.7019,3.7756,3.8485,3.7997,3.8289,3.9413,3.954,4.0074,4.0983,4.1587,4.1249,4.0037,3.979,3.9638,0.0,0.0,0.0,0.0,0.0,0.0,0.0,0.0,0.0,0.0,0.0,0.0,0.0,0.0,0.0,-1.6629,-1.691,-1.6286,-1.3502,-1.2814,-1.2796,-1.2856,-1.2902,-1.2961,-1.3021,-1.3245,-1.3383,-1.3383,-1.3587,-1.3713,-1.3713,-1.3772,-1.3798,-1.3798,-1.3798,-1.3798,-1.3798,-1.3739,-1.3713,-1.3713,0.0,0.0,-1.2928,-1.2691,-1.244,-1.2203,-1.2229,-1.1788,-1.0421,-0.3037,-0.0,-0.0,-0.0,-0.0,0.0136,0.1484,0.3845,0.6627,0.9531,1.098,1.1497,1.1475,1.1468,1.171,1.307,1.3679,0.0,1.5573,1.644,1.7314,1.859,1.9233,1.9862,2.1239,2.1239,2.0994,2.0994,2.0994,2.0994,2.0994,2.1361,2.1957,2.3124,2.5945,2.8387,2.9458,3.1186,3.2769,3.3564,3.4248,3.398,3.232,3.2067,3.2067,3.2067,3.2632,3.3924,3.624,3.7081,3.7582,3.7582,3.6481,3.649,3.8151,3.8145,3.9333,4.185,4.2752,4.2632,4.138,3.8883,3.8404,0.0,0.0,0.0,0.0,0.0,0.0,0.0,0.0,0.0,0.0,0.0,0.0,0.0,0.0,0.0,0.0,-1.603,-1.5806,-1.4733,-1.3029,-1.1966,-1.2236,-1.248,-1.2737,-1.2994,-1.3053,-1.3073,-1.3073,-1.3106,-1.3119,-1.3119,0.0,0.0,0.0,0.0,-1.3515,-1.3515,-1.3251,-1.3119,-1.3119,-1.3086,-1.2922,-1.2632,-1.2592,-1.2434,-1.2177,-1.2223,-1.0219,-0.6375,-0.1786,-0.0,-0.0,-0.0,-0.0,0.0812,0.7013,0.9537,0.9972,1.037,0.0,0.0,1.4972,1.4972,1.4972,1.5224,1.6294,1.7361,1.7608,1.9674,2.1989,2.2123,2.3275,2.4559,2.4694,2.3724,2.2642,2.2642,2.2642,2.2642,2.2642,2.3844,2.4813,2.4916,2.7523,2.9401,2.9056,3.185,3.3351,3.1668,3.4133,3.5976,3.5746,0.0,0.0,3.5724,3.3318,3.3115,3.6193,3.5074,3.4312,3.4312,3.2645,3.3427,3.6912,3.6383,3.822,4.2644,4.2741,4.219,4.0674,3.1255,2.975,0.0,0.0,0.0,0.0,0.0,0.0,0.0,0.0,0.0,0.0,0.0,0.0,0.0,0.0,0.0,0.0,-1.459,-1.4315,-1.4052,-1.293,-1.1946,-1.174,-1.1906,-1.213,-1.2256,-1.2566,-1.2763,-1.2763,-1.2928,-1.3027,-1.3027,-1.3146,-1.3212,-1.3212,-1.3225,-1.3231,-1.3061,-1.297,-1.308,-1.308,-1.2742,-1.2435,-1.2469,-1.246,-1.2322,-1.221,-1.2256,-0.8481,-0.2378,-0.0738,-0.0,0.0,0.0,0.0,0.0,0.0,1.2273,1.4732,1.4732,1.6346,1.8226,1.8226,1.8226,1.8472,1.9467,2.0174,2.0889,2.1911,2.3796,2.5413,2.5413,2.6576,2.7515,2.6678,2.5979,2.5276,2.4425,2.4321,2.4321,2.4321,2.4813,0.0,2.8725,3.0291,3.1584,3.3083,3.4485,3.5437,3.5423,3.668,3.6775,3.4737,3.4523,3.4227,3.3429,3.2119,0.0,0.0,0.0,3.4823,3.6413,3.4446,0.0,0.0,0.0,0.0,0.0,0.0,0.0,0.0,3.6194,3.3969,0.0,0.0,0.0,0.0,0.0,0.0,0.0,0.0,0.0,0.0,0.0,0.0,0.0,0.0,0.0,0.0,0.0,-1.3452,-1.3452,-1.2647,-1.1808,-1.1291,-1.1498,-1.1504,-1.1267,-1.1834,-1.2223,-1.2387,-1.2506,-1.2684,-1.2855,-1.3008,-1.3095,-1.3095,-1.2948,-1.2294,-1.0982,-1.1102,-1.1085,-1.108,-1.073,-1.0484,-1.0479,-1.0607,-1.0527,-1.0522,-0.9415,-0.4932,0.1466,0.1449,0.1426,0.1812,0.5311,0.7117,0.7941,1.1181,1.4973,1.8559,1.9062,2.0166,2.1259,2.1259,2.1345,2.1646,2.287,2.3795,2.4746,2.6206,2.7722,2.8959,2.9183,3.0098,3.0615,2.9558,2.8674,2.7797,2.6729,2.6196,2.5877,2.5877,2.6111,2.7413,3.0766,3.195,3.2901,3.441,3.5655,0.0,3.7168,3.7651,3.6957,3.4344,3.3377,3.2507,3.1399,3.0599,3.1568,3.4969,3.3744,3.4133,3.6968,3.471,3.4484,3.6765,3.3518,3.5002,0.0,0.0,0.0,0.0,0.0,0.0,0.0,0.0,0.0,0.0,0.0,0.0,0.0,0.0,0.0,0.0,0.0,0.0,0.0,0.0,0.0,0.0,0.0,0.0,-1.3622,-1.2065,-1.0986,-1.1229,-1.1317,-1.0957,-1.0107,-1.0812,-1.1473,-1.164,-1.1629,-1.1814,-1.2314,-1.2708,-1.3018,-1.3018,-1.2527,-1.0276,-0.6297,-0.6311,-0.6237,-0.6237,-0.6233,-0.623,-0.623,-0.6227,-0.6223,-0.6065,-0.2075,0.1763,0.5126,0.5037,0.5063,0.543,0.8939,1.1696,1.3818,1.6046,1.829,2.0365,2.1975,2.3212,2.3935,2.3935,2.4174,2.4343,2.4449,2.6345,2.8806,2.9872,3.1329,3.279,3.3696,3.404,3.404,3.404,3.1766,2.9634,2.9634,2.846,2.7512,2.7512,2.8391,2.9294,2.9396,3.1532,3.2493,3.0457,3.4053,0.0,3.4214,3.5404,3.6355,3.6286,3.3761,3.2067,3.2067,2.9293,2.883,3.1986,3.0589,3.0815,3.3302,3.1278,3.0346,3.0959,3.4983,3.5986,3.3743,0.0,0.0,0.0,0.0,0.0,0.0,0.0,0.0,0.0,0.0,0.0,0.0,0.0,0.0,0.0,0.0,0.0,0.0,0.0,0.0,0.0,0.0,0.0,0.0,0.0,-1.1866,-1.0945,-1.0415,-0.9797,-0.8809,-0.9682,-1.0364,-1.0186,-0.8757,-0.7954,-0.8102,-0.8227,-0.8377,-0.8377,-0.5577,-0.3519,-0.2052,-0.2037,-0.203,-0.203,-0.203,-0.2028,-0.2025,-0.2025,-0.0723,0.1588,0.2867,0.4107,0.5294,0.5206,0.6646,0.9067,1.269,1.5242,1.6933,1.8578,2.0324,2.2068,2.3779,2.4472,2.5068,2.6983,2.762,2.785,2.8607,2.9534,3.0337,3.0753,3.1859,3.3152,3.349,3.48,3.5732,3.4755,3.3648,3.2298,3.0862,2.9392,2.8198,2.7536,2.7972,2.8274,2.772,3.0757,3.231,2.9681,3.3099,3.5922,3.5922,3.5593,3.5209,3.493,3.3221,3.1727,3.0724,2.9726,2.9917,3.1888,3.0846,3.1431,3.4149,3.293,3.3218,3.5569,3.8324,3.5885,2.8025,0.0,0.0,0.0,0.0,0.0,0.0,0.0,0.0,0.0,0.0,0.0,0.0,0.0,0.0,0.0,0.0,0.0,0.0,0.0,0.0,0.0,0.0,0.0,0.0,0.0,0.0,-1.1287,-0.9866,0.0,-0.7878,-0.8478,-0.8214,-0.6705,-0.5284,-0.4333,-0.3964,-0.3814,-0.3925,-0.3901,-0.1395,-0.0,-0.0,-0.0,-0.0,-0.0,-0.0,0.0707,0.1976,0.3106,0.4944,0.7064,0.7137,0.7177,0.7183,0.799,1.0151,1.3121,1.5479,1.7793,1.9918,2.1101,2.2597,2.4177,2.5438,2.5879,2.6246,2.8207,2.8439,2.8102,2.8875,2.8837,2.8874,2.9992,3.1276,3.2553,3.3682,3.5193,3.6126,3.5264,3.4133,3.2893,3.1449,2.9364,2.7913,2.7811,2.839,2.8241,2.6251,2.8485,2.9921,2.8162,3.0535,3.3113,3.4927,3.4437,3.3796,3.3055,3.2054,3.0948,3.0068,2.9955,3.0159,3.0847,3.0614,3.1409,3.3455,3.3605,3.4224,3.5462,3.7279,3.4997,0.0,0.0,0.0,0.0,0.0,0.0,0.0,0.0,0.0,0.0,0.0,0.0,0.0,0.0,0.0,0.0,0.0,0.0,0.0,0.0,0.0,0.0,0.0,0.0,0.0,0.0,0.0,-1.1858,-0.9641,0.0,0.0,0.0,0.0,-0.2079,-0.1795,-0.132,-0.0112,-0.0,-0.0,-0.0,-0.0,-0.0,-0.0,-0.0,0.014,0.028,0.042,0.2241,0.5602,0.8998,1.0436,1.043,1.0569,1.0589,1.0792,1.2845,1.5006,1.6929,1.7029,1.9207,2.2338,2.3398,2.4692,2.6006,2.6956,2.7259,2.7274,2.7647,2.6666,2.5384,2.5293,2.4656,0.0,0.0,2.9309,3.0871,3.4141,3.502,3.5093,3.5172,3.3279,3.1445,3.1401,2.8742,2.6691,0.0,2.9203,2.8648,2.4475,0.0,2.5331,2.5486,2.6468,2.8324,3.1262,3.2052,3.2012,3.1077,3.0269,2.9898,2.9898,2.9898,2.9556,2.8721,2.9788,3.0737,3.1302,3.3152,3.3024,3.0823,3.1916,0.0,0.0,0.0,0.0,0.0,0.0,0.0,0.0,0.0,0.0,0.0,0.0,0.0,0.0,0.0,0.0,0.0,0.0,0.0,0.0,0.0,0.0,0.0,0.0,0.0,0.0,-1.0304,-0.9659,-0.9864,-0.7933,-0.6283,0.0,0.0,0.0,0.0,0.0,0.0,-0.009,-0.0,-0.0,-0.0,-0.0,-0.0,-0.0,-0.0,0.1126,0.3248,0.5887,0.7652,0.8773,0.9668,1.0027,1.0049,1.1004,1.1482,1.1705,1.2633,1.3666,1.4613,1.5443,1.666,1.8287,2.145,2.202,2.1626,2.4776,2.5512,2.49,2.3869,2.3912,2.4012,2.2466,0.0,0.0,0.0,0.0,2.5307,2.8602,3.0046,3.1001,3.2426,3.2162,3.1249,3.0625,2.8926,2.7049,0.0,2.4855,2.2825,1.7049,0.0,0.0,0.0,0.0,2.5658,2.8093,2.8911,2.9672,3.0828,2.9849,2.9044,2.9044,2.9044,2.8702,2.7848,2.917,3.0617,3.2271,3.0586,3.0293,3.1739,0.0,0.0,0.0,0.0,0.0,0.0,0.0,0.0,0.0,0.0,0.0,0.0,0.0,0.0,0.0,0.0,0.0,0.0,0.0,0.0,0.0,0.0,0.0,0.0,0.0,0.0,0.0,-0.9312,-0.8903,-0.8712,-0.6797,-0.5366,0.0,0.0,0.0,0.0,0.0,0.0,0.0,0.0,0.0,-0.0,-0.0,0.0293,0.0736,0.1981,0.3709,0.5737,0.8236,0.9599,0.9704,0.9704,1.0136,1.0736,1.1383,1.2064,1.2897,1.3628,1.3906,1.3974,0.0,0.0,0.0,0.0,1.9359,1.9058,2.1886,2.2187,0.0,2.1171,0.0,0.0,0.0,0.0,0.0,0.0,0.0,0.0,0.0,0.0,3.0589,3.1653,3.1075,3.0216,3.0215,2.6962,2.3718,0.0,2.1714,1.9539,1.4137,0.0,0.0,0.0,0.0,2.2114,2.5023,2.6906,2.8184,2.8826,2.8469,2.8189,2.8189,2.8189,2.802,2.7646,2.9351,3.0251,2.9797,2.9401,2.694,0.0,0.0,0.0,0.0,0.0,0.0,0.0,0.0,0.0,0.0,0.0,0.0,0.0,0.0,0.0,0.0,0.0,0.0,0.0,0.0,0.0,0.0,0.0,0.0,0.0,0.0,0.0,0.0,0.0,-0.8346,-0.7816,0.0,0.0,0.0,0.0,0.0,0.0,0.0,0.0,0.0,0.0,0.0,0.0,0.0,0.0961,0.2101,0.4614,0.6351,0.7348,0.8417,0.9005,0.9104,0.9104,0.9964,1.1472,1.134,0.0,1.3848,1.44,0.0,0.0,0.0,0.0,0.0,0.0,0.0,0.0,0.0,0.0,0.0,0.0,0.0,0.0,0.0,0.0,0.0,0.0,0.0,0.0,0.0,0.0,3.0596,3.0557,2.9361,2.835,0.0,2.4014,1.9308,1.9438,1.8977,0.0,0.0,0.0,0.0,0.0,0.0,0.0,2.2042,2.5493,2.7216,2.6333,2.688,2.7213,2.7213,2.7213,2.7425,2.7775,2.9271,2.8937,2.6314,2.8468,0.0,0.0,0.0,0.0,0.0,0.0,0.0,0.0,0.0,0.0,0.0,0.0,0.0,0.0,0.0,0.0,0.0,0.0,0.0,0.0,0.0,0.0,0.0,0.0,0.0,0.0,0.0,0.0,0.0,0.0,0.0,0.0,0.0,0.0,0.0,0.0,0.0,0.0,0.0,0.0,0.0,0.0,0.0,0.0,0.0,0.0,0.0,0.0,0.0,0.0,0.6494,0.6596,0.6678,0.7166,0.8435,1.0197,0.9663,1.0985,1.3477,1.1729,0.0,0.0,0.0,0.0,0.0,0.0,0.0,0.0,0.0,0.0,0.0,0.0,0.0,0.0,0.0,0.0,0.0,0.0,0.0,0.0,0.0,0.0,0.0,0.0,2.4471,2.559,0.0,0.0,0.0,0.0,0.0,0.0,0.0,0.0,0.0,0.0,0.0,0.0,1.8846,2.2937,2.5782,2.6196,2.6386,2.6462,2.6462,2.6462,2.6574,2.6956,2.5055,2.4869,0.0,0.0,0.0,0.0,0.0,0.0,0.0,0.0,0.0,0.0,0.0,0.0,0.0,0.0,0.0,0.0,0.0,0.0,0.0,0.0,0.0,0.0,0.0,0.0,0.0,0.0,0.0,0.0,0.0,0.0,0.0,0.0,0.0,0.0,0.0,0.0,0.0,0.0,0.0,0.0,0.0,0.0,0.0,0.0,0.0,0.0,0.0,0.0,0.0,0.0,0.0,0.0,0.0,0.0,0.0,0.0,0.0,0.0,0.0,0.9888,0.0,0.0,0.0,0.0,0.0,0.0,0.0,0.0,0.0,0.0,0.0,0.0,0.0,0.0,0.0,0.0,0.0,0.0,0.0,0.0,0.0,0.0,0.0,0.0,0.0,0.0,0.0,0.0,0.0,0.0,0.0,0.0,0.0,0.0,0.0,0.0,0.0,0.0,0.0,0.0,1.7645,2.2072,2.519,2.5589,2.5627,2.5627,2.5627,2.5627,2.5235,2.4235,2.3535,0.0,0.0,0.0,0.0,0.0,0.0,0.0,0.0,0.0,0.0,0.0,0.0,0.0,0.0,0.0,0.0,0.0,0.0,0.0,0.0,0.0,0.0,0.0,0.0,0.0,0.0,0.0,0.0,0.0,0.0,0.0,0.0,0.0,0.0,0.0,0.0,0.0,0.0,0.0,0.0,0.0,0.0,0.0,0.0,0.0,0.0,0.0,0.0,0.0,0.0,0.0,0.0,0.0,0.0,0.0,0.0,0.0,0.0,0.0,0.8484,0.0,0.0,0.0,0.0,0.0,0.0,0.0,0.0,0.0,0.0,0.0,0.0,0.0,0.0,0.0,0.0,0.0,0.0,0.0,0.0,0.0,0.0,0.0,0.0,0.0,0.0,0.0,0.0,0.0,0.0,0.0,0.0,0.0,0.0,0.0,0.0,0.0,0.0,0.0,0.0,0.0,1.7274,2.1906,2.5038,2.5038,2.5038,2.5038,2.5038,2.5038,2.4198,2.196,2.2133,0.0,0.0,0.0,0.0,0.0,0.0,0.0,0.0,0.0,0.0,0.0,0.0,0.0,0.0,0.0,0.0,0.0,0.0,0.0,0.0,0.0,0.0,0.0,0.0,0.0,0.0,0.0,0.0,0.0,0.0,0.0,0.0,0.0,0.0,0.0,0.0,0.0,0.0,0.0,0.0,0.0,0.0,0.0,0.0,0.0,0.0,0.0,0.0,0.0,0.0,0.0,0.0,0.0,0.0,0.0,0.0,0.0,0.0,0.0,0.0,0.0,0.0,0.0,0.0,0.0,0.0,0.0,0.0,0.0,0.0,0.0,0.0,0.0,0.0,0.0,0.0,0.0,0.0,0.0,0.0,0.0,0.0,0.0,0.0,0.0,0.0,0.0,0.0,0.0,0.0,0.0,0.0,0.0,0.0,0.0,0.0,0.0,0.0,0.0,0.0,0.0,1.7274,2.1906,2.5038,2.5038,2.5038,2.5038,2.5038,2.5038,2.4266,2.2285,0.0,0.0,0.0,0.0,0.0,0.0,0.0,0.0,0.0,0.0,0.0,0.0,0.0,0.0,0.0,0.0,0.0,0.0,0.0,0.0,0.0,0.0,0.0,0.0,0.0,0.0,0.0,0.0,0.0,0.0,0.0,0.0,0.0,0.0,0.0,0.0,0.0,0.0,0.0,0.0,0.0,0.0,0.0,0.0,0.0,0.0,0.0,0.0,0.0,0.0,0.0,0.0,0.0,0.0,0.0,0.0,0.0,0.0,0.0,0.0,0.0,0.0,0.0,0.0,0.0,0.0,0.0,0.0,0.0,0.0,0.0,0.0,0.0,0.0,0.0,0.0,0.0,0.0,0.0,0.0,0.0,0.0,0.0,0.0,0.0,0.0,0.0,0.0,0.0,0.0,0.0,0.0,0.0,0.0,0.0,0.0,0.0,0.0,0.0,0.0,0.0,0.0,1.6135,1.9991,2.2631,2.2631,2.2631,2.2631,2.2631,2.3307,2.2055,1.8123,0.0,0.0,0.0,0.0,0.0,0.0,0.0,0.0,0.0,0.0,0.0,0.0,0.0,0.0,0.0,0.0,0.0,0.0,0.0,0.0,0.0,0.0,0.0,0.0,0.0,0.0,0.0,0.0,0.0,0.0,0.0,0.0,0.0,0.0,0.0,0.0,0.0,0.0,0.0,0.0,0.0,0.0,0.0,0.0,0.0,0.0,0.0,0.0,0.0,0.0,0.0,0.0,0.0,0.0,0.0,0.0,0.0,0.0,0.0,0.0,0.0,0.0,0.0,0.0,0.0,0.0,0.0,0.0,0.0,0.0,0.0,0.0,0.0,0.0,0.0,0.0,0.0,0.0,0.0,0.0,0.0,0.0,0.0,0.0,0.0,0.0,0.0,0.0,0.0,0.0,0.0,0.0,0.0,0.0,0.0,0.0,0.0,0.0,0.0,0.0,0.0,0.0,1.5331,1.878,2.1019,2.1019,2.1019,2.1019,2.1019,2.2175,2.0651,1.517,0.0,0.0,0.0,0.0,0.0,0.0,0.0,0.0,0.0,0.0,0.0,0.0,0.0,0.0,0.0,0.0,0.0,0.0,0.0,0.0,0.0,0.0,0.0,0.0,0.0,0.0,0.0,0.0,0.0,0.0,0.0,0.0,0.0,0.0,0.0,0.0,0.0,0.0,0.0,0.0,0.0,0.0,0.0,0.0,0.0,0.0,0.0,0.0,0.0,0.0,0.0,0.0,0.0,0.0,0.0,0.0,0.0,0.0,0.0,0.0,0.0,0.0,0.0,0.0,0.0,0.0,0.0,0.0,0.0,0.0,0.0,0.0,0.0,0.0,0.0,0.0,0.0,0.0,0.0,0.0,0.0,0.0,0.0,0.0,0.0,0.0,0.0,0.0,0.0,0.0,0.0,0.0,0.0,0.0,0.0,0.0,0.0,0.0,0.0,0.0,0.0,0.0,1.5331,1.878,2.1019,2.1019,2.1019,2.1019,2.1019,2.2175,2.0564,0.0,0.0,0.0,0.0,0.0,0.0,0.0,0.0,0.0,0.0,0.0,0.0,0.0,0.0,0.0,0.0,0.0,0.0,0.0,0.0,0.0,0.0,0.0,0.0,0.0,0.0,0.0,0.0,0.0,0.0,0.0,0.0,0.0,0.0,0.0,0.0,0.0,0.0,0.0,0.0,0.0,0.0,0.0,0.0,0.0,0.0,0.0,0.0,0.0,0.0,0.0,0.0,0.0,0.0,0.0,0.0,0.0,0.0,0.0,0.0,0.0,0.0,0.0,0.0,0.0,0.0,0.0,0.0,0.0,0.0,0.0,0.0,0.0,0.0,0.0,0.0,0.0,0.0,0.0,0.0,0.0,0.0,0.0,0.0,0.0,0.0,0.0,0.0,0.0,0.0,0.0,0.0,0.0,0.0,0.0,0.0,0.0,0.0,0.0,0.0,0.0,0.0,0.0,1.33,1.5008,1.6587,0.0,1.8297,1.8297,1.8297,1.9563,1.8587,1.4549,0.0,0.0,0.0,0.0,0.0,0.0,0.0,0.0,0.0,0.0,0.0,0.0,0.0,0.0,0.0,0.0,0.0,0.0,0.0,0.0,0.0,0.0,0.0,0.0,0.0,0.0,0.0,0.0,0.0,0.0,0.0,0.0,0.0,0.0,0.0,0.0,0.0,0.0,0.0,0.0,0.0,0.0,0.0,0.0,0.0,0.0,0.0,0.0,0.0,0.0,0.0,0.0,0.0,0.0,0.0,0.0,0.0,0.0,0.0,0.0,0.0,0.0,0.0,0.0,0.0,0.0,0.0,0.0,0.0,0.0,0.0,0.0,0.0,0.0,0.0,0.0,0.0,0.0,0.0,0.0,0.0,0.0,0.0,0.0,0.0,0.0,0.0,0.0,0.0,0.0,0.0,0.0,0.0,0.0,0.0,0.0,0.0,0.0,0.0,0.0,0.0,0.0,0.0,1.3894,1.5517,0.0,1.7114,1.7114,1.7114,1.8297,1.7603,1.4195,0.0,0.0,0.0,0.0,0.0,0.0,0.0,0.0,0.0,0.0,0.0,0.0,0.0,0.0,0.0,0.0,0.0,0.0,0.0,0.0,0.0,0.0,0.0,0.0,0.0,0.0,0.0,0.0,0.0,0.0,0.0,0.0,0.0,0.0,0.0,0.0,0.0,0.0,0.0,0.0,0.0,0.0,0.0,0.0,0.0,0.0,0.0,0.0,0.0,0.0,0.0,0.0,0.0,0.0,0.0,0.0,0.0,0.0,0.0,0.0,0.0,0.0,0.0,0.0,0.0,0.0,0.0,0.0,0.0,0.0,0.0,0.0,0.0,0.0,0.0,0.0,0.0,0.0,0.0,0.0,0.0,0.0,0.0,0.0,0.0,0.0,0.0,0.0,0.0,0.0,0.0,0.0,0.0,0.0,0.0,0.0,0.0,0.0,0.0,0.0,0.0,0.0,0.0,1.4765,1.6893,1.7101,1.7114,1.7114,1.7114,1.8196,1.7435,1.387,1.3982,0.0,0.0,0.0,0.0,0.0,0.0,0.0,0.0,0.0,0.0,0.0,0.0,0.0,0.0,0.0,0.0,0.0,0.0,0.0,0.0,0.0,0.0,0.0,0.0,0.0,0.0,0.0,0.0,0.0,0.0,0.0,0.0,0.0,0.0,0.0,0.0,0.0,0.0,0.0,0.0,0.0,0.0,0.0,0.0,0.0,0.0,0.0,0.0,0.0,0.0,0.0,0.0,0.0,0.0,0.0,0.0,0.0,0.0,0.0,0.0,0.0,0.0,0.0,0.0,0.0,0.0,0.0,0.0,0.0,0.0,0.0,0.0,0.0,0.0,0.0,0.0,0.0,0.0,0.0,0.0,0.0,0.0,0.0,0.0,0.0,0.0,0.0,0.0,0.0,0.0,0.0,0.0,0.0,0.0,0.0,0.0,0.0,0.0,0.0,0.0,0.0,0.0,1.3585,1.4673,1.6881,1.7114,1.7114,1.7114,1.7422,1.6447,1.3784,1.3161,0.0,0.0,0.0,0.0,0.0,0.0,0.0,0.0,0.0,0.0,0.0,0.0,0.0,0.0,0.0,0.0,0.0,0.0,0.0,0.0,0.0,0.0,0.0,0.0,0.0,0.0,0.0,0.0,0.0,0.0,0.0,0.0,0.0,0.0,0.0,0.0,0.0,0.0,0.0,0.0,0.0,0.0,0.0,0.0,0.0,0.0,0.0,0.0,0.0,0.0,0.0,0.0,0.0,0.0,0.0,0.0,0.0,0.0,0.0,0.0,0.0,0.0,0.0,0.0,0.0,0.0,0.0,0.0,0.0,0.0,0.0,0.0,0.0,0.0,0.0,0.0,0.0,0.0,0.0,0.0,0.0,0.0,0.0,0.0,0.0,0.0,0.0,0.0,0.0,0.0,0.0,0.0,0.0,0.0,0.0,0.0,0.0,0.0,0.0,0.0,0.0,0.0,1.154,1.3206,1.6725,1.7114,1.7114,1.7114,1.6881,1.5899,1.3968,1.3146,0.0,0.0,0.0,0.0,0.0,0.0,0.0,0.0,0.0,0.0,0.0,0.0,0.0,0.0,0.0,0.0,0.0,0.0,0.0,0.0,0.0,0.0,0.0,0.0,0.0,0.0,0.0,0.0,0.0,0.0,0.0,0.0,0.0,0.0,0.0,0.0,0.0,0.0,0.0,0.0,0.0,0.0,0.0,0.0,0.0,0.0,0.0,0.0,0.0,0.0,0.0,0.0,0.0,0.0,0.0,0.0,0.0,0.0,0.0,0.0,0.0,0.0,0.0,0.0,0.0,0.0,0.0,0.0,0.0,0.0,0.0,0.0,0.0,0.0,0.0,0.0,0.0,0.0,0.0,0.0,0.0,0.0,0.0,0.0,0.0,0.0,0.0,0.0,0.0,0.0,0.0,0.0,0.0,0.0,0.0,0.0,0.0,0.0,0.0,0.0,0.0,0.0,0.0,1.2365,1.6153,1.6906,1.7088,1.6997,1.6754,1.5824,1.3968,0.0,0.0,0.0,0.0,0.0,0.0,0.0,0.0,0.0,0.0,0.0,0.0,0.0,0.0,0.0,0.0,0.0,0.0,0.0,0.0,0.0,0.0,0.0,0.0,0.0,0.0,0.0,0.0,0.0,0.0,0.0,0.0,0.0,0.0,0.0,0.0,0.0,0.0,0.0,0.0,0.0,0.0,0.0,0.0,0.0,0.0,0.0,0.0,0.0,0.0,0.0,0.0,0.0,0.0,0.0,0.0,0.0,0.0,0.0,0.0,0.0,0.0,0.0,0.0,0.0,0.0,0.0,0.0,0.0,0.0,0.0,0.0,0.0,0.0,0.0,0.0,0.0,0.0,0.0,0.0,0.0,0.0,0.0,0.0,0.0,0.0,0.0,0.0,0.0,0.0,0.0,0.0,0.0,0.0,0.0,0.0,0.0,0.0,0.0,0.0,0.0,0.0,0.0,0.0,1.241,1.4011,1.5946,1.6919,1.6452,1.7172,1.6115,1.2585,0.0,0.0,0.0,0.0,0.0,0.0,0.0,0.0,0.0,0.0,0.0,0.0,0.0,0.0]}],[{"header":{"parameterUnit":"kt","parameterCategory":2,"dx":1,"dy":1,"la1":29.285339999999998,"la2":30.599998999999997,"lo1":-89.70041500000002,"lo2":-87.6738589999976,"nx":112,"ny":82,"refTime":"2022-10-21T00:00:00:Z","depth":0,"parameterNumber":2,"parameterNumberName":"V-component_of_WINDS"},"data":[-3.8142,-4.0092,0.0,-3.0107,-2.9165,0.0,-1.8124,0.0,0.0,0.0,0.0,0.0,0.0,0.0,0.0,0.0,0.0,0.0,0.0,0.0,0.0,0.0,0.0,0.0,0.0,0.0,0.0,0.0,0.0,0.0,0.0,0.0,-4.6699,-4.8178,-4.8215,-4.8215,-4.8215,-4.8072,-4.7863,-4.7614,-4.7517,-4.7312,-4.7021,-4.7021,-4.7021,-4.7021,-4.6796,-4.6451,-4.6054,-4.5558,-4.489,-4.4115,-4.3929,-4.3612,-4.3389,-4.3737,-4.3944,-4.4453,-4.6787,-4.9154,-5.1226,-5.1719,-5.1883,-5.1883,-5.1883,-5.1883,-5.1818,-5.1554,-5.0981,-5.0393,-4.9646,-4.892,-4.8191,-4.709,-4.6878,-4.6715,-4.6032,-4.5864,-4.5864,-4.5864,-4.5864,-4.5527,-4.429,-4.4726,-4.4437,-4.1924,-4.1924,-4.1271,-3.876,-3.8485,-3.8924,-4.0151,-4.112,-4.2365,-4.3805,-4.4561,-4.4859,-4.4859,-4.4859,-4.4859,-4.4859,-4.4859,-4.4859,-4.4859,-4.4859,-4.4859,-4.4859,-4.4859,-4.4859,-4.4859,-4.4859,-4.4859,0.0,0.0,-3.553,-2.4291,0.0,0.0,0.0,0.0,0.0,0.0,0.0,0.0,0.0,0.0,0.0,0.0,0.0,0.0,0.0,0.0,0.0,0.0,0.0,0.0,0.0,0.0,0.0,0.0,0.0,0.0,0.0,-4.7036,-4.7638,-4.8522,-4.8559,-4.8559,-4.8559,-4.842,-4.8197,-4.7941,-4.7739,-4.7481,-4.7241,-4.7095,-4.7021,-4.7021,-4.7021,-4.6796,-4.6411,-4.6172,-4.5558,-4.4749,-4.4558,-4.4133,-4.3665,-4.4249,-4.4082,-4.4043,-4.6962,-4.9698,-5.1883,-5.1883,-5.1883,-5.1883,-5.1883,-5.1883,-5.1883,-5.1883,-5.1454,-5.0912,-5.0635,-5.0006,-4.9174,-4.7803,-4.7409,-4.717,-4.6115,-4.5864,-4.5864,-4.5864,-4.5864,-4.5612,-4.4813,-4.5357,-4.5129,-4.314,-4.2477,-4.1459,-3.9451,-3.8784,-3.8778,-3.951,-4.0584,-4.1657,-4.2731,-4.3805,-4.4586,-4.4835,-4.4859,-4.4859,-4.4859,-4.4859,-4.4859,-4.4859,-4.4859,-4.4859,-4.4859,-4.4859,-4.4859,-4.4859,-4.4859,-4.4859,0.0,0.0,0.0,-1.7327,0.0,0.0,0.0,0.0,-1.5688,0.0,0.0,0.0,0.0,0.0,0.0,0.0,0.0,0.0,0.0,0.0,0.0,0.0,0.0,0.0,0.0,0.0,0.0,0.0,0.0,0.0,-4.6326,-4.8381,-4.9185,-4.9185,-4.9185,-4.9185,-4.9185,-4.8789,-4.8617,-4.8593,-4.7941,-4.7611,-4.7647,-4.7241,-4.7058,-4.7058,-4.7021,-4.7021,-4.6984,-4.6335,-4.6096,-4.6013,-4.5381,-4.4749,-4.4265,-4.489,-4.4701,-4.4604,-4.7584,-5.0021,-5.1817,-5.1916,-5.1949,-5.1949,-5.1949,-5.1949,-5.1883,-5.1883,-5.1883,-5.1686,-5.0843,-5.0533,-5.0078,-4.7929,-4.7488,-4.717,-4.6115,-4.5864,-4.5864,-4.5864,-4.5864,-4.5864,-4.5864,-4.5864,-4.5442,-4.429,-4.3049,-4.1832,-4.0615,-3.9353,-3.8485,-3.8485,-3.951,-4.0689,-4.1633,-4.2731,-4.3805,-4.4738,-4.4835,-4.4859,-4.4859,-4.4859,-4.4859,-4.4859,-4.4859,-4.4859,-4.4859,-4.4859,-4.4859,-4.4859,-4.4859,-4.4859,-2.3485,0.0,0.0,0.0,0.0,0.0,0.0,0.0,0.0,0.0,0.0,0.0,0.0,0.0,0.0,0.0,0.0,0.0,0.0,0.0,0.0,0.0,0.0,0.0,0.0,0.0,0.0,0.0,0.0,0.0,-4.8231,-4.8998,-4.9185,-4.9185,-4.9185,-4.9185,-4.9185,-4.9089,-4.8891,-4.8617,-4.8423,-4.8251,-4.8043,-4.7647,-4.7484,-4.745,-4.7133,-4.7021,-4.7021,-4.6834,-4.6491,-4.6054,-4.5851,-4.5723,-4.5592,-4.5723,-4.5381,-4.5254,-4.825,-4.9665,-5.0557,-5.2857,-5.3219,-5.2769,-5.2769,-5.2365,-5.1883,-5.1883,-5.1883,-5.1818,-5.162,-5.1521,-5.1017,-4.8994,-4.8543,-4.8114,-4.6252,-4.5864,-4.5864,-4.5864,-4.5864,-4.5864,-4.5864,-4.5864,-4.5442,-4.429,-4.3821,-4.2805,-4.0711,-4.0134,-3.9549,-3.8585,-3.951,-4.0395,-4.0689,-4.2292,-4.3488,-4.378,-4.4421,-4.4859,-4.4859,-4.4859,-4.4859,-4.4859,-4.4859,-4.4859,-4.4859,-4.4859,-4.4859,-4.4859,-4.4859,-4.4859,0.0,0.0,0.0,0.0,0.0,0.0,-1.4473,0.0,-1.5194,0.0,0.0,0.0,0.0,0.0,0.0,0.0,0.0,0.0,0.0,0.0,0.0,0.0,0.0,0.0,0.0,0.0,0.0,0.0,0.0,-4.2337,-4.896,-4.9222,-4.9185,-4.9185,-4.9185,-4.9185,-4.9185,-4.9185,-4.9051,-4.8811,-4.8663,-4.8522,-4.8357,-4.7863,-4.7614,-4.7614,-4.7205,-4.7021,-4.7021,-4.7021,-4.6834,-4.6491,-4.6491,-4.6491,-4.6491,-4.6491,-4.6054,-4.5817,-4.8198,-4.9264,-4.9996,-5.242,-5.3379,-5.3455,-5.316,-5.2769,-5.2302,-5.2014,-5.1883,-5.1883,-5.1883,-5.1883,-5.1454,-4.9469,-4.9025,-4.8422,-4.6335,-4.5864,-4.5864,-4.5864,-4.5864,-4.5864,-4.5864,-4.5864,-4.5612,-4.4985,-4.4465,-4.3374,-4.1417,-4.0711,-3.994,-3.8585,-3.9071,-3.9656,-4.0249,-4.1316,-4.2414,-4.3317,-4.3951,-4.4513,-4.4835,-4.4859,-4.4859,-4.4859,-4.4859,-4.4859,-4.4859,-4.4859,-4.4859,-4.4859,-4.4859,-4.4859,0.0,0.0,0.0,0.0,-1.87,0.0,0.0,0.0,0.0,0.0,0.0,0.0,0.0,0.0,0.0,0.0,0.0,0.0,0.0,0.0,0.0,0.0,0.0,0.0,0.0,0.0,-4.3174,-4.8942,-4.3895,-4.3055,-4.8848,-4.9185,-4.9185,-4.9185,-4.9185,-4.9185,-4.9185,-4.9185,-4.9185,-4.9185,-4.8811,-4.8663,-4.864,-4.8028,-4.7707,-4.7679,-4.7277,-4.7095,-4.7021,-4.7021,-4.7021,-4.7021,-4.7021,-4.7021,-4.7021,-4.7021,-4.6683,-4.6383,-4.7843,-4.8999,-5.0059,-5.1631,-5.3237,-5.4338,-5.3571,-5.316,-5.2891,-5.211,-5.1883,-5.1883,-5.1883,-5.1883,-5.1454,-4.9614,-4.91,-4.8467,-4.65,-4.5948,-4.5864,-4.5864,-4.5864,-4.5864,-4.5864,-4.5864,-4.5864,-4.5864,-4.4985,-4.3821,-4.2568,-4.1417,-4.0134,-3.8884,-3.8585,-3.89,-3.99,-4.02,-4.1023,-4.3073,-4.3317,-4.3854,-4.4811,-4.4859,-4.4859,-4.4859,-4.4859,-4.4859,-4.4859,-4.4859,-4.4859,-4.4859,-4.4859,-4.4859,0.0,0.0,0.0,0.0,0.0,-1.8093,0.0,0.0,0.0,0.0,0.0,0.0,0.0,0.0,0.0,0.0,0.0,0.0,0.0,0.0,0.0,0.0,0.0,0.0,0.0,-4.7762,-4.797,-4.911,-4.8026,-4.7839,-4.911,-4.9185,-4.9185,-4.9185,-4.9185,-4.9185,-4.9185,-4.9185,-4.9185,-4.9185,-4.9109,-4.9051,-4.9032,-4.863,-4.8268,-4.8072,-4.7679,-4.7311,-4.7021,-4.7021,-4.7021,-4.7021,-4.7021,-4.7021,-4.7021,-4.7021,-4.6984,-4.7083,-4.8612,-5.0095,-5.1536,-5.3131,-5.469,-5.5789,-5.5042,-5.3993,-5.2891,-5.211,-5.1883,-5.1883,-5.1883,-5.1883,-5.162,-5.0533,-4.9646,-4.8619,-4.7409,-4.65,-4.5864,-4.5864,-4.5864,-4.5864,-4.5864,-4.5864,-4.5864,-4.5864,-4.5696,-4.5071,-4.3909,-4.2595,-4.1391,-4.023,-3.9082,-3.8582,-3.8802,-3.9656,-4.0706,-4.1999,-4.2902,-4.3854,-4.4811,-4.4859,-4.4859,-4.4859,-4.4859,-4.4859,-4.4859,-4.4859,-4.4859,-4.4859,-4.4859,-4.4859,0.0,0.0,0.0,-1.7679,0.0,0.0,0.0,0.0,0.0,0.0,0.0,0.0,0.0,0.0,0.0,0.0,0.0,0.0,0.0,0.0,0.0,0.0,0.0,0.0,0.0,-4.9316,-4.9259,-4.9185,-4.9185,-4.9185,-4.9185,-4.9185,-4.9185,-4.9185,-4.9185,-4.9185,-4.9185,-4.9185,-4.9185,-4.9185,-4.9185,-4.9185,-4.9147,-4.8767,-4.8522,-4.8383,-4.7863,-4.7515,-4.7311,-4.7132,-4.7021,-4.7021,-4.7021,-4.7021,-4.7021,-4.7021,-4.7021,-4.7271,-4.8843,-5.0375,-5.198,-5.3514,-5.5084,-5.6278,-5.5884,-5.5042,-5.3937,-5.2797,-5.2174,-5.1883,-5.1883,-5.1883,-5.1686,-5.0742,-5.0181,-4.9322,-4.7773,-4.7039,-4.65,-4.5948,-4.5864,-4.5864,-4.5864,-4.5864,-4.5864,-4.5864,-4.5864,-4.5442,-4.429,-4.2959,-4.1739,-4.0519,-3.9279,-3.8485,-3.8485,-3.9022,-3.9803,-4.0901,-4.1975,-4.3048,-4.4122,-4.4683,-4.4859,-4.4859,-4.4859,-4.4859,-4.4859,-4.4859,-4.4859,-4.4859,-4.4859,-4.4859,0.0,0.0,0.0,0.0,0.0,0.0,0.0,-1.9196,0.0,0.0,0.0,0.0,0.0,0.0,0.0,0.0,0.0,0.0,0.0,0.0,0.0,0.0,0.0,0.0,0.0,-4.9185,-4.9185,-4.9185,-4.9185,-4.9185,-4.9185,-4.9185,-4.9185,-4.9185,-4.9185,-4.9185,-4.9185,-4.9185,-4.9185,-4.9185,-4.9185,-4.9185,-4.9147,-4.8832,-4.8663,-4.8556,-4.8057,-4.7739,-4.7614,-4.7312,-4.7169,-4.7133,-4.7058,-4.7021,-4.7057,-4.7378,-4.7485,-4.7699,-4.9269,-5.0838,-5.2372,-5.3621,-5.5084,-5.6359,-5.6359,-5.5836,-5.4956,-5.3824,-5.2797,-5.211,-5.1949,-5.1883,-5.1752,-5.0981,-5.0705,-5.0006,-4.8191,-4.7567,-4.717,-4.6335,-4.6199,-4.6086,-4.5864,-4.5864,-4.5864,-4.5864,-4.5864,-4.5527,-4.4581,-4.3319,-4.2136,-4.0876,-3.9647,-3.8784,-3.8485,-3.8485,-3.8973,-4.02,-4.0998,-4.2023,-4.3317,-4.4195,-4.464,-4.4859,-4.4859,-4.4859,-4.4859,-4.464,-4.4757,-4.4859,-4.4859,-4.4859,0.0,0.0,0.0,0.0,0.0,0.0,-3.2713,-3.3041,0.0,0.0,0.0,0.0,0.0,0.0,0.0,0.0,0.0,0.0,0.0,0.0,0.0,0.0,0.0,0.0,0.0,-4.9185,-4.9185,-4.9185,-4.9185,-4.9185,-4.9185,-4.9185,-4.9185,-4.9185,-4.9185,-4.9185,-4.9185,-4.9185,-4.9185,-4.9185,-4.9185,-4.9185,-4.9185,-4.9128,-4.8912,-4.8617,-4.8546,-4.8197,-4.7614,-4.7581,-4.7548,-4.7515,-4.7169,-4.7021,-4.7199,-4.8629,-4.9129,-4.9343,-5.091,-5.2479,-5.3799,-5.3978,-5.5084,-5.6359,-5.6359,-5.5836,-5.5159,-5.5007,-5.3958,-5.2769,-5.2045,-5.1883,-5.1883,-5.1752,-5.1117,-5.0252,-4.91,-4.8114,-4.7409,-4.725,-4.725,-4.6959,-4.6032,-4.5864,-4.5864,-4.5864,-4.5864,-4.578,-4.5696,-4.4639,-4.3436,-4.2109,-4.0945,-3.977,-3.8585,-3.8485,-3.8973,-4.02,-4.0395,-4.1267,-4.3292,-4.3488,-4.4,-4.4835,-4.4859,-4.4859,-4.4859,-4.4,-4.4049,-4.4859,-4.4859,-4.4859,0.0,0.0,0.0,0.0,0.0,0.0,0.0,-3.0722,0.0,0.0,0.0,0.0,0.0,0.0,0.0,0.0,0.0,0.0,0.0,0.0,0.0,0.0,0.0,0.0,0.0,0.0,0.0,-4.9185,-4.9185,-4.9185,-4.9185,-4.9185,-4.9185,-4.9185,-4.9185,-4.9185,-4.9185,-4.9185,-4.9185,-4.9185,-4.9185,-4.9185,-4.9185,-4.9185,-4.9089,-4.8912,-4.8685,-4.8448,-4.8197,-4.8007,-4.8347,-4.8958,-4.853,-4.8947,-4.9839,-5.0482,-5.0731,-5.0945,-5.2515,-5.3478,-5.4192,-5.5119,-5.5869,-5.6359,-5.6359,-5.6151,-5.5754,-5.5343,-5.4485,-5.3455,-5.2238,-5.1883,-5.1883,-5.1883,-5.162,-5.1017,-5.0078,-4.9542,-4.8876,-4.7646,-4.7409,-4.709,-4.6032,-4.5864,-4.5864,-4.5864,-4.5864,-4.5864,-4.5864,-4.4813,-4.3937,-4.3347,-4.1605,-4.023,-3.9647,-3.8884,-3.8704,-3.9168,-3.9906,-4.0665,-4.1462,-4.2097,-4.2658,-4.3097,-4.3097,-4.3414,-4.4049,-4.2951,-4.2658,-4.3097,-4.3097,-4.3097,-1.3093,0.0,0.0,0.0,0.0,0.0,0.0,0.0,0.0,0.0,0.0,0.0,0.0,0.0,0.0,0.0,0.0,0.0,0.0,0.0,0.0,0.0,0.0,0.0,0.0,0.0,0.0,0.0,-5.0587,-5.0587,-5.0587,-5.0587,-5.0363,-4.9895,-4.9857,-4.9633,-4.9185,-4.9633,-4.9633,-4.9185,-4.9633,-4.9633,-4.9185,-4.9185,-4.9185,-4.9147,-4.8891,-4.9288,-5.0142,-4.9837,-5.0145,-5.0687,-5.0332,-5.0819,-5.1766,-5.2194,-5.2337,-5.2586,-5.4121,-5.4691,-5.487,-5.6011,-5.6359,-5.6359,-5.6359,-5.6359,-5.6233,-5.5706,-5.5042,-5.4193,-5.2891,-5.2238,-5.1883,-5.1883,-5.1883,-5.1686,-5.0774,-5.0774,-5.0393,-4.8619,-4.8037,-4.7567,-4.65,-4.6115,-4.5864,-4.5864,-4.5864,-4.5864,-4.5864,-4.5157,-4.4465,-4.4114,-4.2558,-4.1161,-4.0519,-3.9574,-3.8884,-3.8485,-3.9266,-3.9955,-4.0249,-4.0925,-4.1462,-4.1779,-4.1779,-4.2145,-4.2926,-4.1853,-4.1487,-4.1779,-4.1779,-4.1779,0.0,0.0,0.0,0.0,0.0,0.0,0.0,0.0,0.0,0.0,0.0,0.0,0.0,0.0,0.0,0.0,0.0,0.0,0.0,0.0,0.0,0.0,0.0,0.0,0.0,0.0,0.0,0.0,-5.4064,-5.4064,-5.4064,-5.4064,-5.3354,-5.1671,-5.1634,-5.0849,-4.9185,-5.0811,-5.0811,-4.9185,-5.0849,-5.0774,-4.9185,-4.9185,-4.9185,-4.9185,-4.9147,-5.1016,-5.4043,-5.3636,-5.3225,-5.2745,-5.2351,-5.1989,-5.1909,-5.3407,-5.3942,-5.4192,-5.5797,-5.6288,-5.6288,-5.6323,-5.6359,-5.6359,-5.6359,-5.6359,-5.6359,-5.6359,-5.5754,-5.5007,-5.4338,-5.3073,-5.1883,-5.1883,-5.1883,-5.1686,-5.0774,-5.1253,-5.162,-5.0635,-4.9614,-4.865,-4.7567,-4.6552,-4.5864,-4.5864,-4.5864,-4.5864,-4.5864,-4.5864,-4.5357,-4.4202,-4.4026,-4.3014,-4.0615,-4.0423,-3.9842,-3.8585,-3.8534,-3.9022,-4.0224,-4.0322,-4.0706,-4.1755,-4.1779,-4.1779,-4.1804,-4.0754,-4.0754,-4.1779,-4.1779,-4.1779,-1.8889,0.0,0.0,0.0,0.0,0.0,0.0,0.0,0.0,0.0,0.0,0.0,0.0,0.0,0.0,0.0,0.0,0.0,0.0,0.0,0.0,0.0,0.0,0.0,0.0,0.0,0.0,0.0,0.0,0.0,-5.4214,-5.4214,-5.3989,-5.3391,-5.3391,-5.3092,-5.2531,-5.3092,-5.3092,-5.2531,-5.3092,-5.3092,-5.2531,-5.2531,-5.2531,-5.2531,-5.2531,-5.3167,-5.4193,-5.3809,-5.3963,-5.4394,-5.4023,-5.4222,-5.4862,-5.5405,-5.5619,-5.569,-5.6181,-5.6359,-5.6359,-5.6359,-5.6359,-5.6359,-5.6359,-5.6359,-5.6359,-5.6359,-5.5801,-5.5159,-5.494,-5.3767,-5.2521,-5.1981,-5.1883,-5.1818,-5.1554,-5.1686,-5.162,-5.0705,-5.0252,-4.9469,-4.7725,-4.709,-4.6634,-4.5948,-4.5864,-4.5864,-4.5864,-4.5864,-4.5696,-4.5357,-4.4552,-4.376,-4.2923,-4.135,-4.023,-3.9842,-3.8983,-3.8656,-3.9046,-3.9046,-3.9217,-3.9583,-3.9583,-3.9583,-3.9583,-3.9241,-3.9241,-3.9583,-3.9583,-3.9583,0.0,0.0,0.0,0.0,0.0,0.0,0.0,0.0,0.0,0.0,0.0,0.0,0.0,0.0,0.0,0.0,0.0,0.0,0.0,0.0,0.0,0.0,0.0,0.0,0.0,0.0,0.0,0.0,0.0,-5.6008,-5.5971,-5.5971,-5.5971,-5.5971,-5.5373,-5.5074,-5.5074,-5.5074,-5.4775,-5.4214,-5.4775,-5.4775,-5.4214,-5.4214,-5.4214,-5.4289,-5.5448,-5.5971,-5.5949,-5.5716,-5.5895,-5.6269,-5.5909,-5.6121,-5.6632,-5.6448,-5.6359,-5.6359,-5.6359,-5.6359,-5.6359,-5.6359,-5.6359,-5.6359,-5.6359,-5.6359,-5.6359,-5.6359,-5.5977,-5.5526,-5.5294,-5.4538,-5.3595,-5.2583,-5.2302,-5.2238,-5.1949,-5.1883,-5.1752,-5.1117,-5.0742,-5.0006,-4.8268,-4.7646,-4.712,-4.6032,-4.5864,-4.5864,-4.5864,-4.5864,-4.5864,-4.5864,-4.5186,-4.4552,-4.4114,-4.2649,-4.135,-4.0519,-3.9647,-3.8983,-3.8485,-3.8485,-3.8485,-3.8485,-3.8485,-3.8485,-3.8485,-3.8485,-3.8485,-3.8485,-3.8485,-3.8485,0.0,0.0,0.0,0.0,0.0,0.0,0.0,0.0,0.0,0.0,0.0,0.0,0.0,0.0,0.0,0.0,0.0,0.0,0.0,0.0,0.0,0.0,0.0,0.0,0.0,0.0,0.0,0.0,-5.9261,-5.9224,-5.9089,-5.9089,-5.9089,-5.9089,-5.7541,-5.6681,-5.6681,-5.6681,-5.5934,-5.4513,-5.5971,-5.5934,-5.4476,-5.4476,-5.4476,-5.4662,-5.7766,-5.9089,-5.9089,-5.9089,-5.8784,-5.8284,-5.7887,-5.748,-5.7094,-5.6545,-5.6359,-5.6359,-5.6359,-5.6359,-5.6359,-5.6359,-5.6359,-5.6359,-5.6359,-5.6359,-5.6359,-5.6359,-5.6359,-5.6187,-5.5477,-5.5244,-5.4853,-5.3421,-5.3133,-5.283,-5.2078,-5.1883,-5.1883,-5.1883,-5.1185,-5.0252,-4.9174,-4.8191,-4.709,-4.6003,-4.5864,-4.5864,-4.5864,-4.5864,-4.5864,-4.5864,-4.5864,-4.5442,-4.429,-4.4114,-4.3104,-4.0807,-4.0519,-3.9842,-3.8685,-3.8485,-3.8485,-3.8485,-3.8585,-3.8585,-3.8485,-3.8485,-3.8485,-3.8485,-3.8485,-3.8485,0.0,0.0,0.0,0.0,0.0,0.0,0.0,0.0,0.0,0.0,0.0,0.0,0.0,0.0,0.0,0.0,0.0,0.0,0.0,0.0,0.0,0.0,0.0,0.0,0.0,0.0,0.0,0.0,-5.9345,-5.9224,-5.9089,-5.9089,-5.9089,-5.9089,-5.87,-5.8476,-5.8476,-5.8476,-5.8252,-5.7878,-5.8252,-5.8252,-5.7841,-5.7841,-5.7841,-5.7915,-5.8715,-5.9089,-5.9089,-5.9089,-5.8784,-5.8284,-5.7887,-5.748,-5.7094,-5.6545,-5.6359,-5.6359,-5.6359,-5.6359,-5.6359,-5.6359,-5.6359,-5.6359,-5.6359,-5.6359,-5.6359,-5.6359,-5.6359,-5.6359,-5.6105,-5.5622,-5.4956,-5.4138,-5.3455,-5.283,-5.2078,-5.1883,-5.1883,-5.1883,-5.1752,-5.1017,-4.9322,-4.8801,-4.7959,-4.6199,-4.5864,-4.5864,-4.5864,-4.5864,-4.5864,-4.5864,-4.5864,-4.578,-4.5442,-4.4639,-4.3849,-4.3194,-4.1444,-4.023,-3.994,-3.8983,-3.8485,-3.8485,-3.9451,-3.9451,-3.8485,-3.8485,-3.8485,-3.8485,-3.8485,-3.8485,-2.8816,0.0,0.0,0.0,0.0,0.0,0.0,0.0,0.0,0.0,0.0,0.0,0.0,0.0,0.0,0.0,0.0,0.0,0.0,0.0,0.0,0.0,0.0,0.0,0.0,0.0,0.0,0.0,-5.9435,-5.9299,-5.9187,-5.9126,-5.9089,-5.9089,-5.9089,-5.9089,-5.9089,-5.9089,-5.9089,-5.9089,-5.9089,-5.9089,-5.9089,-5.9089,-5.9089,-5.9089,-5.9089,-5.9089,-5.9089,-5.9089,-5.892,-5.8606,-5.8137,-5.7854,-5.7586,-5.6937,-5.6718,-5.6675,-5.6448,-5.6359,-5.6359,-5.6359,-5.6359,-5.6359,-5.6359,-5.6359,-5.6359,-5.6359,-5.6359,-5.6359,-5.6359,-5.6059,-5.5526,-5.4836,-5.4138,-5.3338,-5.2583,-5.211,-5.1883,-5.1883,-5.1883,-5.1454,-4.9935,-4.9248,-4.8422,-4.6797,-4.6169,-4.5864,-4.5864,-4.5864,-4.5864,-4.5864,-4.5864,-4.5864,-4.5864,-4.5243,-4.4639,-4.4114,-4.2832,-4.1792,-4.1229,-4.0538,-3.9889,-3.9353,-4.0037,-3.9745,-3.8485,-3.8485,-3.8485,-3.8485,-3.8485,-3.8485,0.0,0.0,0.0,0.0,0.0,0.0,0.0,0.0,0.0,0.0,0.0,0.0,0.0,0.0,0.0,0.0,0.0,0.0,0.0,0.0,0.0,0.0,0.0,0.0,0.0,0.0,0.0,0.0,-5.9553,-5.9425,-5.9299,-5.9187,-5.9089,-5.9089,-5.9089,-5.9089,-5.9089,-5.9089,-5.9089,-5.9089,-5.9089,-5.9089,-5.9089,-5.9089,-5.9089,-5.9089,-5.9089,-5.9089,-5.9089,-5.9089,-5.9089,-5.9028,-5.8516,-5.8313,-5.8226,-5.7443,-5.7173,-5.7094,-5.6545,-5.6359,-5.6359,-5.6359,-5.6359,-5.6359,-5.6359,-5.6359,-5.6359,-5.6359,-5.6359,-5.6359,-5.6359,-5.6359,-5.6187,-5.5428,-5.4732,-5.4027,-5.3371,-5.2521,-5.1883,-5.1883,-5.1883,-5.1686,-5.0811,-4.9863,-4.8801,-4.7646,-4.6634,-4.6032,-4.5864,-4.5864,-4.5864,-4.5864,-4.5864,-4.5864,-4.5864,-4.5864,-4.5442,-4.4378,-4.4202,-4.3643,-4.2477,-4.2293,-4.1765,-4.0902,-4.0807,-4.0037,-3.8784,-3.8585,-3.8485,-3.8485,-3.8485,-3.8485,0.0,0.0,-4.3395,0.0,0.0,0.0,0.0,0.0,0.0,0.0,0.0,0.0,0.0,0.0,0.0,0.0,0.0,0.0,0.0,0.0,0.0,0.0,0.0,0.0,0.0,0.0,0.0,0.0,0.0,-5.9409,-5.9284,-5.9187,-5.9089,-5.9089,-5.9089,-5.9089,-5.9089,-5.9089,-5.9089,-5.9089,-5.9089,-5.9089,-5.9089,-5.9089,-5.9089,-5.9089,-5.9089,-5.9089,-5.9089,-5.9089,-5.9089,-5.9028,-5.8516,-5.8313,-5.8226,-5.7443,-5.7173,-5.7094,-5.6545,-5.6359,-5.6359,-5.6359,-5.6359,-5.6359,-5.6359,-5.6359,-5.6359,-5.6359,-5.6359,-5.6359,-5.6359,-5.6359,-5.6187,-5.5428,-5.4732,-5.4173,-5.4061,-5.2891,-5.1883,-5.1883,-5.1883,-5.1818,-5.1686,-5.088,-4.9646,-4.7725,-4.725,-4.6878,-4.6032,-4.5864,-4.5864,-4.5864,-4.5864,-4.5864,-4.5864,-4.5864,-4.578,-4.5612,-4.4639,-4.4026,-4.3821,-4.275,-4.2568,-4.3464,-4.2412,-4.1297,-4.0159,-3.8983,-3.8485,-3.8485,-3.8485,-3.8485,0.0,0.0,0.0,0.0,0.0,0.0,0.0,0.0,0.0,0.0,0.0,0.0,0.0,0.0,0.0,0.0,0.0,0.0,0.0,0.0,0.0,0.0,0.0,0.0,0.0,0.0,0.0,0.0,0.0,-5.9449,-5.9396,-5.9224,-5.9089,-5.9089,-5.9089,-5.9089,-5.9089,-5.9089,-5.9089,-5.9089,-5.9089,-5.9089,-5.9089,-5.9089,-5.9089,-5.9089,-5.9089,-5.9089,-5.9089,-5.9089,-5.9089,-5.9089,-5.8809,-5.8721,-5.8644,-5.7795,-5.748,-5.7333,-5.6596,-5.6359,-5.6359,-5.6359,-5.6359,-5.6359,-5.6359,-5.6359,-5.6359,-5.6359,-5.6359,-5.6359,-5.6359,-5.6359,-5.6278,-5.5884,-5.5026,-5.4228,-5.4228,-5.3013,-5.1883,-5.1883,-5.1883,-5.1883,-5.1883,-5.1521,-5.0571,-4.8543,-4.7803,-4.7039,-4.6032,-4.5864,-4.5864,-4.5864,-4.5864,-4.5864,-4.5864,-4.5864,-4.5864,-4.5864,-4.5357,-4.5014,-4.5014,-4.4409,-4.4146,-4.4114,-4.3526,-4.2255,-4.0423,-3.9842,-3.9156,-3.8485,-3.8485,-3.8485,0.0,-3.7589,0.0,0.0,0.0,0.0,0.0,0.0,0.0,0.0,0.0,0.0,0.0,0.0,0.0,0.0,0.0,0.0,0.0,0.0,0.0,0.0,0.0,0.0,0.0,0.0,0.0,0.0,0.0,0.0,-5.9471,-5.9261,-5.9089,-5.9089,-5.9089,-5.9089,-5.9089,-5.9089,-5.9089,0.0,-5.9089,-5.9089,-5.9089,-5.9089,-5.9089,-5.9089,-5.9089,-5.9089,-5.9089,-5.9089,-5.9089,-5.9089,-5.9089,-5.9089,-5.9005,-5.8174,-5.7825,-5.7621,-5.6814,-5.6457,-5.6359,-5.6359,-5.6359,-5.6359,-5.6359,-5.6359,-5.6359,-5.6359,-5.6359,-5.6359,-5.6359,-5.6359,-5.6359,-5.6359,-5.5264,-5.4228,-5.4228,-5.3013,-5.1883,-5.1883,-5.1883,-5.1883,-5.1883,-5.1883,-5.1355,-4.9831,-4.8543,-4.7409,-4.6335,-4.6032,-4.5864,-4.5864,-4.5864,-4.5864,-4.5864,-4.5864,-4.5864,-4.5864,-4.5864,-4.5864,-4.5864,-4.5864,-4.5442,-4.4552,-4.423,-4.3194,-4.1255,-4.0711,-3.994,-3.8884,-3.8585,-3.8485,-3.9856,0.0,0.0,0.0,0.0,0.0,0.0,0.0,0.0,0.0,0.0,0.0,0.0,0.0,0.0,0.0,0.0,0.0,0.0,0.0,0.0,0.0,0.0,0.0,0.0,0.0,0.0,0.0,0.0,0.0,0.0,-5.9336,-5.9224,-5.9089,-5.9089,-5.9089,-5.9089,-5.9089,-5.9089,-5.9089,-5.9089,-5.9089,-5.9089,-5.9089,-5.9089,-5.9089,-5.9089,-5.9089,-5.9089,-5.9089,-5.9089,-5.9089,-5.9089,-5.9089,-5.9028,-5.8462,-5.8045,-5.7656,-5.7254,-5.6766,-5.6359,-5.6359,-5.6359,-5.6359,-5.6359,-5.6359,-5.6359,-5.6359,-5.6359,-5.6359,-5.6359,-5.6359,-5.6359,-5.6359,-5.5264,-5.4228,-5.4228,-5.3013,-5.1883,-5.1883,-5.1883,-5.1883,-5.1883,-5.1883,-5.1818,-5.1653,-5.0046,-4.8467,-4.7409,-4.65,-4.5864,-4.5864,-4.5864,-4.5864,-4.5864,-4.5864,-4.5864,-4.5864,-4.5864,-4.5864,-4.5864,-4.5864,-4.578,-4.5696,-4.4639,-4.4026,-4.376,-4.1538,-4.0327,-4.023,-3.9057,-3.8485,-3.0994,0.0,0.0,0.0,0.0,0.0,0.0,0.0,0.0,0.0,0.0,0.0,0.0,0.0,0.0,0.0,0.0,0.0,0.0,0.0,0.0,0.0,0.0,0.0,0.0,0.0,0.0,0.0,0.0,0.0,0.0,-5.936,-5.9224,-5.9089,-5.9089,-5.9089,-5.9089,-5.9089,-5.9089,-5.9089,-5.9089,-5.9089,-5.9089,-5.9089,-5.9089,-5.9089,-5.9089,-5.9089,-5.9089,-5.9089,-5.9089,-5.9089,-5.9089,-5.9089,-5.9028,-5.8489,-5.8226,-5.7983,-5.7369,-5.7014,-5.6766,-5.6457,-5.6359,-5.6359,-5.6359,-5.6359,-5.6359,-5.6359,-5.6359,-5.6359,-5.6359,-5.6359,-5.6359,-5.6359,-5.5264,-5.4228,-5.4228,-5.3013,-5.1883,-5.1883,-5.1883,-5.1883,-5.1883,-5.1883,-5.1883,-5.1883,-5.0811,-4.9322,-4.7646,-4.7009,-4.6582,-4.5948,-4.5864,-4.5864,-4.5864,-4.5864,-4.5864,-4.5864,-4.5864,-4.5864,-4.5864,-4.5864,-4.5864,-4.5864,-4.5442,-4.4813,-4.4114,-4.3104,-4.1911,-4.0423,-3.9965,-3.9279,-2.5832,-2.9651,0.0,0.0,0.0,0.0,0.0,-4.8502,0.0,0.0,0.0,0.0,0.0,0.0,0.0,0.0,0.0,0.0,0.0,0.0,0.0,0.0,0.0,0.0,0.0,0.0,0.0,0.0,0.0,0.0,0.0,-6.0208,-5.986,-5.9187,-5.9126,-5.9126,-5.9089,-5.9089,-5.9089,-5.9089,-5.9089,-5.9089,-5.9089,-5.9089,-5.9089,-5.9089,-5.9089,-5.9089,-5.9089,-5.9089,-5.9089,-5.9089,-5.9089,-5.9089,-5.9066,-5.8696,-5.8462,-5.8255,-5.769,-5.7332,-5.7094,-5.6718,-5.6501,-5.6359,-5.6359,-5.6359,-5.6359,-5.6359,-5.6359,-5.6359,-5.6359,-5.6359,-5.6359,-5.6359,-5.5264,-5.4228,-5.4228,-5.3013,-5.1883,-5.1883,-5.1883,-5.1883,-5.1883,-5.1883,-5.1883,-5.1883,-5.132,-5.0291,-4.8574,-4.8114,-4.7409,-4.6032,-4.5864,-4.5864,-4.5864,-4.5864,-4.5864,-4.5864,-4.5864,-4.5864,-4.5864,-4.5864,-4.5864,-4.5864,-4.5864,-4.5442,-4.4639,-4.429,-4.3194,-4.1538,-4.0807,-3.9965,-2.9141,-3.0182,0.0,0.0,0.0,0.0,-4.3691,-4.4274,-4.4881,-4.8009,0.0,-5.0694,0.0,0.0,0.0,0.0,0.0,0.0,0.0,0.0,0.0,0.0,0.0,0.0,0.0,0.0,0.0,0.0,0.0,0.0,0.0,-6.2173,-6.1289,-5.9336,-5.9299,-5.9224,-5.9089,-5.9089,-5.9089,-5.9089,-5.9089,-5.9089,-5.9089,-5.9089,-5.9089,-5.9089,-5.9089,-5.9089,-5.9089,-5.9089,-5.9089,-5.9089,-5.9089,-5.9089,-5.9089,-5.9089,-5.8784,-5.8313,-5.8313,-5.7789,-5.7173,-5.7134,-5.6802,-5.6359,-5.6359,-5.6359,-5.6359,-5.6359,-5.6359,-5.6359,-5.6359,-5.6359,-5.6359,-5.6359,-5.5264,-5.4228,-5.4228,-5.3013,-5.1883,-5.1883,-5.1883,-5.1883,-5.1883,-5.1883,-5.1883,-5.1883,-5.1883,-5.1521,-5.0635,-4.9646,-4.8161,-4.6086,-4.5864,-4.5864,-4.5864,-4.5864,-4.5864,-4.5864,-4.5864,-4.5864,-4.5864,-4.5864,-4.5864,-4.5864,-4.5864,-4.5864,-4.5864,-4.4639,-4.4114,-4.4026,-4.1538,-4.0423,-2.3854,-2.6697,-3.0583,0.0,0.0,0.0,-4.3507,-4.5783,-4.7816,-5.0221,-5.0993,0.0,0.0,0.0,0.0,0.0,0.0,0.0,0.0,0.0,0.0,0.0,0.0,0.0,0.0,0.0,0.0,0.0,0.0,0.0,0.0,-6.3942,-6.3544,-6.2762,-6.1626,-6.0967,-6.0832,-5.9673,-5.9089,-5.9089,-6.0271,-6.0832,-6.0794,-5.9635,-5.9089,-5.9089,-5.9089,-5.9089,-5.9089,-5.9089,-5.9089,-5.9089,-5.9089,-5.9089,-5.9089,-5.9089,-5.9005,-5.8809,-5.8434,-5.7983,-5.7516,-5.7254,-5.6766,-5.6359,-5.6359,-5.6359,-5.6359,-5.6359,-5.6359,-5.6359,-5.6359,-5.6359,-5.6359,-5.6359,-5.5264,-5.4228,-5.4228,-5.3013,-5.1883,-5.1883,-5.1883,-5.1883,-5.1883,-5.1883,-5.1883,-5.1883,-5.1883,-5.1818,-5.1554,-4.9975,-4.8725,-4.8084,-4.6715,-4.5864,-4.5864,-4.5864,-4.5864,-4.5864,-4.5864,-4.5864,-4.5864,-4.5864,-4.5864,-4.5864,-4.5864,-4.5864,-4.5864,-4.5527,-4.4899,-4.4114,-4.3284,-4.2004,-2.3334,-2.6269,-2.9725,-3.3611,-3.6085,0.0,0.0,-4.289,-4.4494,-4.6314,-4.7385,0.0,0.0,0.0,0.0,0.0,0.0,0.0,0.0,0.0,0.0,0.0,0.0,0.0,0.0,0.0,0.0,0.0,0.0,0.0,-6.5869,-6.578,-6.5359,-6.4518,-6.3446,-6.2786,-6.265,-6.1505,-6.0944,-6.0944,-6.1991,-6.2178,-6.1579,-6.0533,-5.971,-5.9089,-5.9089,-5.9089,-5.9089,-5.9089,-5.9089,-5.9089,-5.9089,-5.9089,-5.9089,-5.9089,-5.9089,-5.9066,-5.8721,-5.8321,-5.7887,-5.748,-5.7058,-5.6632,-5.6448,-5.6359,-5.6359,-5.6359,-5.6359,-5.6359,-5.6359,-5.6359,-5.6359,-5.6359,-5.5264,-5.4228,-5.4228,-5.3013,-5.1883,-5.1883,-5.1883,-5.1883,-5.1883,-5.1883,-5.1883,-5.1883,-5.1883,-5.1883,-5.1883,-5.0571,-4.9395,-4.9025,-4.7488,-4.6335,-4.5864,-4.5864,-4.5864,-4.5864,-4.5864,-4.5864,-4.5864,-4.5864,-4.5864,-4.5864,-4.5864,-4.5864,-4.5864,-4.5864,-4.5527,-4.4726,-4.429,-4.3284,-2.6202,-2.8028,-2.9804,-3.4515,-3.5952,0.0,-3.7642,-3.7155,0.0,-3.822,0.0,0.0,0.0,0.0,0.0,0.0,0.0,0.0,0.0,0.0,0.0,0.0,0.0,0.0,0.0,0.0,0.0,0.0,0.0,0.0,-6.7731,-6.7617,-6.6856,-6.5112,-6.4868,-6.4633,-6.4507,-6.4184,-6.4084,-6.4309,-6.4197,-6.3374,-6.1953,-6.1841,-6.0869,-5.9276,-5.9276,-5.9201,-5.9089,-5.9089,-5.9089,-5.9089,-5.9089,-5.9089,-5.9089,-5.9089,-5.9089,-5.9089,-5.9089,-5.8747,-5.8255,-5.7887,-5.748,-5.7054,-5.6589,-5.6404,-5.6359,-5.6359,-5.6359,-5.6359,-5.6359,-5.6359,-5.6359,-5.6359,-5.5314,-5.4338,-5.4338,-5.3073,-5.2014,-5.2014,-5.1949,-5.1883,-5.1883,-5.1883,-5.1883,-5.1883,-5.1883,-5.1883,-5.1883,-5.1117,-5.0181,-4.9174,-4.8084,-4.7039,-4.6115,-4.5948,-4.5864,-4.5864,-4.5864,-4.5864,-4.5864,-4.5864,-4.5864,-4.5864,-4.5864,-4.5864,-4.5864,-4.5864,-4.5864,-4.5864,-4.4755,-4.4202,-2.3318,-2.655,-2.9915,-3.1106,0.0,0.0,0.0,0.0,0.0,0.0,0.0,0.0,0.0,0.0,0.0,0.0,0.0,0.0,0.0,0.0,0.0,0.0,0.0,0.0,0.0,0.0,0.0,0.0,0.0,0.0,-6.9401,-6.9401,-6.9154,-6.8611,-6.7313,-6.6451,-6.6129,-6.4894,-6.5493,-6.7973,-6.6664,-6.5804,-6.5281,-6.3972,-6.2552,-6.1056,-6.1056,-6.0308,-5.9089,-5.9089,-5.9089,-5.9089,-5.9089,-5.9089,-5.9089,-5.9089,-5.9089,-5.9089,-5.9089,-5.8747,-5.8313,-5.8226,-5.7724,-5.7134,-5.7014,-5.6718,-5.6359,-5.6359,-5.6359,-5.6359,-5.6359,-5.6359,-5.6359,-5.6359,-5.5658,-5.4991,-5.4991,-5.3824,-5.2769,-5.2769,-5.2302,-5.1883,-5.1883,-5.1883,-5.1883,-5.1883,-5.1883,-5.1883,-5.1883,-5.1117,-5.0463,-5.0181,-4.8574,-4.733,-4.709,-4.6335,-4.5864,-4.5864,-4.5864,-4.5864,-4.5864,-4.5864,-4.5864,-4.5864,-4.5864,-4.5864,-4.5864,-4.5864,-4.5864,-4.5864,-4.5612,-4.4985,-2.4883,-2.8548,-3.1176,-2.891,-3.3492,-3.802,0.0,0.0,0.0,0.0,0.0,0.0,0.0,0.0,0.0,0.0,0.0,0.0,0.0,0.0,0.0,0.0,0.0,0.0,0.0,0.0,0.0,0.0,0.0,0.0,-6.9971,-6.9971,-6.9943,-6.9904,-6.8914,-6.8337,-6.8111,-6.7251,-6.7661,-6.9294,-6.8311,-6.7375,-6.6515,-6.5543,-6.4234,-6.2664,0.0,-6.1505,-6.1206,-5.971,-5.956,-6.0196,-5.9388,-5.9089,-5.9089,-5.9089,-5.9089,-5.9089,-5.9089,-5.892,-5.8633,-5.8369,-5.8045,-5.7621,-5.7254,-5.6932,-5.6675,-5.6413,-5.6359,-5.6359,-5.6359,-5.6359,-5.6359,-5.6359,-5.5754,-5.5194,-5.5194,-5.4377,-5.3605,-5.3605,-5.2952,-5.2428,-5.2428,-5.211,-5.1883,-5.1883,-5.1883,-5.1883,-5.1883,-5.1454,-5.0981,-5.0533,-4.9542,-4.865,-4.8191,-4.717,-4.6552,-4.6552,-4.6552,-4.6417,-4.5864,-4.5864,-4.5864,-4.5864,-4.5864,-4.5864,-4.5864,-4.5864,-4.5864,-4.5864,-4.5864,-4.5527,-2.7532,-3.1123,-3.2641,-2.8426,-3.0949,-3.3221,-2.8789,0.0,0.0,0.0,0.0,0.0,0.0,-3.827,0.0,0.0,0.0,0.0,0.0,0.0,0.0,0.0,0.0,0.0,0.0,0.0,0.0,0.0,0.0,-6.9971,-6.9971,-6.9971,-6.9971,-6.9971,-6.9875,-6.9803,-6.9803,-6.9803,-6.9711,-6.9467,-6.9329,-6.8534,-6.7101,-6.6963,-6.5954,-6.4309,0.0,-6.2963,-6.3748,-6.0981,-6.057,-6.1505,-6.0046,-5.9313,-5.9089,-5.9089,-5.9089,-5.9089,-5.9089,-5.9089,-5.9028,-5.858,-5.8369,-5.8197,-5.7516,-5.7254,-5.7054,-5.6632,-5.6457,-5.6457,-5.6404,-5.6359,-5.6359,-5.6359,-5.5884,-5.5343,-5.5343,-5.4836,-5.4392,-5.4392,-5.3687,-5.3073,-5.3073,-5.2428,-5.1883,-5.1883,-5.1883,-5.1883,-5.1883,-5.1883,-5.162,-5.0843,-5.0603,-5.0181,-4.9322,-4.8268,-4.7646,-4.7646,-4.7488,-4.6959,-4.5948,-4.5864,-4.5864,-4.5864,-4.5864,-4.5864,-4.5864,-4.5864,-4.5864,-4.5864,-4.5864,-4.5864,-2.6205,-2.9605,-3.2641,-3.19,-3.2569,-3.3053,-3.1615,0.0,0.0,0.0,0.0,0.0,0.0,-3.3725,0.0,0.0,0.0,0.0,0.0,0.0,0.0,0.0,0.0,0.0,0.0,0.0,0.0,0.0,0.0,-6.9971,-6.9971,-6.9971,-6.9971,-6.9971,-6.996,-6.9947,-6.9947,-6.9947,-6.9865,-6.9735,-6.9708,-6.9431,-6.8982,-6.887,-6.7861,-6.6241,0.0,0.0,-6.3898,-6.3411,-6.2589,-6.1617,-6.1318,-6.0383,-5.9089,-5.9089,-5.9089,-5.9089,-5.9089,-5.9089,-5.9089,-5.9005,-5.8696,-5.8313,-5.8167,-5.7656,-5.7134,-5.7054,-5.7014,-5.6932,-5.6457,-5.6359,-5.6359,-5.6359,-5.6278,-5.6187,-5.6187,-5.5609,-5.5058,-5.5058,-5.3993,-5.3073,-5.3073,-5.2428,-5.1883,-5.1883,-5.1883,-5.1883,-5.1883,-5.1883,-5.1818,-5.1686,-5.0981,-5.0495,-5.0323,-4.9322,-4.8725,-4.8725,-4.7929,-4.6959,-4.5948,-4.5864,-4.5864,-4.5864,-4.5864,-4.5864,-4.5864,-4.5864,-4.5864,-4.5864,-4.5864,-4.5864,-2.7076,-2.9593,-3.2097,-3.2884,-3.321,-3.3158,-3.2432,-3.0905,0.0,0.0,0.0,0.0,0.0,0.0,0.0,0.0,0.0,0.0,0.0,0.0,0.0,0.0,0.0,0.0,0.0,0.0,0.0,0.0,0.0,-6.9971,-6.9971,-6.9971,-6.9971,-6.9971,-6.9971,-6.9971,-6.9971,-6.9971,-6.9947,-6.9894,-6.981,-6.973,-6.9607,-6.9381,-6.8908,0.0,0.0,0.0,-6.6739,-6.4932,-6.4259,-6.4271,-6.3262,-6.1879,-6.0458,-6.0458,-5.9897,-5.9089,-5.9089,-5.9089,-5.9089,-5.9089,-5.892,-5.8696,-5.8369,-5.7919,-5.7443,-5.7443,-5.7101,-5.6675,-5.6448,-5.6359,-5.6359,-5.6359,-5.6359,-5.6359,-5.6359,-5.6105,-5.5706,-5.5294,-5.4377,-5.3605,-5.31,-5.2428,-5.1883,-5.1883,-5.1883,-5.1883,-5.1883,-5.1883,-5.1883,-5.1883,-5.1521,-5.1253,-5.1253,-5.0848,-5.0361,-4.9863,-4.9395,-4.8422,-4.6797,-4.6715,-4.65,-4.5864,-4.5864,-4.5864,-4.5864,-4.5864,-4.5864,-4.5864,-4.5864,-4.5864,-2.9961,0.0,-3.2669,-3.3943,-3.4273,-3.4022,0.0,-3.2138,0.0,0.0,0.0,0.0,0.0,0.0,-3.361,0.0,0.0,0.0,0.0,0.0,0.0,0.0,0.0,0.0,0.0,0.0,0.0,0.0,0.0,-7.0996,-7.0616,-7.0578,-7.0388,-7.0009,-7.035,-7.0388,-6.9971,-6.9971,-6.9971,-6.9971,-6.9866,-6.9841,-6.9804,-6.9579,-6.9465,0.0,0.0,0.0,-6.9208,-6.6577,-6.5942,-6.654,-6.5094,-6.3561,-6.214,-6.1766,-6.0794,-5.9635,-5.9201,-5.9089,-5.9089,-5.9089,-5.9089,-5.9028,-5.8606,-5.8293,-5.802,-5.7924,-5.7296,-5.6682,-5.6589,-5.6493,-5.6359,-5.6359,-5.6359,-5.6359,-5.6359,-5.6359,-5.6105,-5.5343,-5.4679,-5.4005,-5.316,-5.2428,-5.1883,-5.1883,-5.1883,-5.1883,-5.1883,-5.1883,-5.1883,-5.1883,-5.1883,-5.1883,-5.1883,-5.1883,-5.1521,-5.0635,-5.0565,-4.9718,-4.7881,-4.7567,-4.7039,-4.6252,-4.6032,-4.5864,-4.5864,-4.5864,-4.5864,-4.5864,-4.5864,-4.5864,0.0,-3.6295,-3.5625,-3.6497,-3.6686,-3.6133,-3.4022,0.0,0.0,0.0,-2.8727,-2.8853,-2.9321,-2.9938,-3.2001,-3.7083,-4.006,0.0,0.0,0.0,0.0,0.0,0.0,0.0,0.0,0.0,0.0,0.0,0.0,0.0,-7.24,-7.2325,-7.1603,-7.0047,-7.1527,-7.1565,-7.0009,-6.9971,-6.9971,-6.9971,-6.9968,-6.9965,-6.9962,-6.9844,-6.9746,0.0,0.0,0.0,0.0,-6.9006,-6.7973,-6.6652,-6.6403,-6.5281,-6.3598,-6.2178,-6.1542,-6.1206,-5.9635,-5.9089,-5.9089,-5.9089,-5.9089,-5.9089,-5.9066,-5.9005,-5.8896,-5.8407,-5.7983,-5.7551,-5.7176,-5.676,-5.6359,-5.6359,-5.6359,-5.6359,-5.6359,-5.6359,-5.6105,-5.5343,-5.4679,-5.4005,-5.316,-5.2428,-5.1883,-5.1883,-5.1883,-5.1883,-5.1883,-5.1883,-5.1883,-5.1883,-5.1883,-5.1883,-5.1883,-5.1883,-5.1521,-5.0635,-5.0565,-5.0006,-4.8951,-4.7929,-4.7409,-4.733,-4.6335,-4.5864,-4.5864,-4.5864,-4.5864,-4.5864,-4.5864,-4.5864,-3.9226,-4.0289,-4.0678,-4.2453,-4.2125,0.0,0.0,0.0,0.0,0.0,-3.0239,-2.9652,-3.0141,-3.167,-3.4734,-4.0516,-4.3679,0.0,0.0,0.0,0.0,0.0,0.0,0.0,0.0,0.0,0.0,0.0,0.0,0.0,-7.4104,-7.4083,-7.3805,-7.316,-7.2704,-7.2211,-7.1565,-7.0502,-6.9971,-6.9971,-6.9971,-6.9971,-6.997,-6.9935,-6.9897,0.0,0.0,0.0,0.0,-6.9422,-6.893,-6.8347,-6.8122,-6.7038,-6.543,-6.487,-6.3972,-6.2851,-6.1243,-6.0682,-6.0495,-5.9425,-5.9089,-5.9089,-5.9089,-5.9089,-5.8968,-5.8462,-5.7854,-5.7332,-5.7176,-5.6766,-5.6359,-5.6359,-5.6359,-5.6359,-5.6359,-5.6359,-5.6013,-5.4836,-5.4446,-5.3801,-5.2521,-5.211,-5.1883,-5.1883,-5.1883,-5.1883,-5.1883,-5.1883,-5.1883,-5.1883,-5.1883,-5.1883,-5.1883,-5.1883,-5.1752,-5.1387,-5.142,-5.0948,-5.0006,-4.9542,-4.877,-4.7488,-4.7009,-4.647,-4.5864,-4.5864,-4.5864,-4.5864,-4.5864,-4.5864,-4.2078,-4.3375,-4.4513,-4.6394,-4.6064,-4.4661,-4.2373,0.0,0.0,-3.3465,-3.1731,-3.0835,-3.1023,-3.2827,-3.6172,-4.2011,-4.5665,-4.9588,0.0,0.0,0.0,0.0,0.0,0.0,0.0,0.0,0.0,0.0,0.0,0.0,-7.5735,-7.5807,-7.5817,-7.5817,-7.4716,-7.3843,-7.3312,-7.1641,-7.0768,-7.0768,-7.0236,-6.9971,-6.9971,-6.9971,-6.9971,0.0,0.0,0.0,0.0,-6.9655,-6.9536,-6.9506,-6.9207,-6.8384,-6.7263,-6.6702,-6.573,-6.4496,-6.2925,-6.2028,-6.143,-6.0271,-5.95,-5.9089,-5.9089,-5.9089,-5.9028,-5.867,-5.8051,-5.748,-5.7369,-5.6978,-5.6589,-5.6404,-5.6359,-5.6359,-5.6359,-5.6359,-5.5966,-5.45,-5.4228,-5.3744,-5.2174,-5.1883,-5.1883,-5.1883,-5.1883,-5.1883,-5.1883,-5.1883,-5.1883,-5.1883,-5.1883,-5.1883,-5.1883,-5.1883,-5.1883,-5.1883,-5.1883,-5.162,-5.0981,-5.0705,-4.9863,-4.8467,-4.7773,-4.712,-4.6335,-4.6032,-4.5864,-4.5864,-4.5864,-4.5864,-4.4361,-4.5713,-4.6684,-4.7428,-4.7669,-4.6886,0.0,0.0,0.0,-3.4708,-3.302,-3.2287,-3.1647,-3.2908,-3.5514,-4.0115,-4.4666,-5.0021,0.0,0.0,0.0,0.0,0.0,0.0,0.0,0.0,0.0,0.0,0.0,0.0,-7.729,-7.7436,-7.7564,-7.7564,-7.7564,-7.6728,-7.5058,-7.335,-7.2514,-7.2476,-7.0806,-6.9971,-6.9971,-6.9971,-6.9971,-6.9971,0.0,0.0,0.0,-6.9826,-6.9768,-6.973,-6.9356,-6.9207,-6.8982,-6.7188,-6.6477,-6.6253,-6.4571,-6.2963,-6.1654,-6.1654,-6.0495,-5.9089,-5.9089,-5.9089,-5.9089,-5.9089,-5.8721,-5.8226,-5.7858,-5.7443,-5.7014,-5.6501,-5.6359,-5.6359,-5.6359,-5.6359,-5.5966,-5.45,-5.4228,-5.3744,-5.2174,-5.1949,-5.1883,-5.1883,-5.1883,-5.1883,-5.1883,-5.1883,-5.1883,-5.1883,-5.1883,-5.1883,-5.1883,-5.1883,-5.1883,-5.1883,-5.1883,-5.1883,-5.1883,-5.1049,-5.0533,-5.0565,-4.8498,-4.7488,-4.7409,-4.6417,-4.5864,-4.5864,-4.5864,-4.5864,-4.5965,-4.7608,-4.9101,-5.0307,-4.9878,-4.8398,0.0,0.0,0.0,-3.5798,-3.3395,-3.2442,-3.4181,-3.5211,-3.7616,-4.3054,-4.6335,-4.9954,0.0,0.0,0.0,0.0,0.0,0.0,0.0,0.0,0.0,0.0,0.0,0.0,-7.8995,-7.8856,-7.8901,-7.9079,-7.7907,-7.7132,-7.6804,-7.3957,-7.2514,-7.2476,-7.0806,-6.9971,-6.9971,-6.9971,-6.9971,-6.9971,-6.9971,0.0,0.0,-6.9826,-6.9768,-6.973,-6.9356,-6.9207,-6.9132,-6.8496,-6.8272,-6.801,-6.6328,-6.543,-6.4683,-6.2365,-6.128,-6.0869,-6.0869,-6.0046,-5.9089,-5.9089,-5.9005,-5.8721,-5.8293,-5.7656,-5.7014,-5.6501,-5.6359,-5.6359,-5.6359,-5.6359,-5.6059,-5.5093,-5.494,-5.4592,-5.3687,-5.3073,-5.2707,-5.2707,-5.2238,-5.1883,-5.1883,-5.1883,-5.1883,-5.1883,-5.1883,-5.1883,-5.1883,-5.1883,-5.1883,-5.1883,-5.1883,-5.1883,-5.1883,-5.1686,-5.1185,-5.0565,-4.9935,-4.8845,-4.7409,-4.709,-4.6552,-4.5864,-4.5864,-4.5864,-4.8038,-4.9973,-5.185,-5.3297,-5.3034,-5.1489,-4.8004,0.0,0.0,-3.6925,-3.4427,-3.3378,-3.5071,-3.6918,0.0,0.0,0.0,0.0,0.0,0.0,0.0,0.0,0.0,0.0,0.0,0.0,0.0,0.0,0.0,0.0,-7.9444,-7.9365,-7.939,-7.9549,-7.8629,-7.8251,-7.8435,-7.5833,-7.4527,-7.4489,-7.2135,-7.0996,-7.0958,-7.0274,-6.9971,-6.9971,-6.9971,0.0,0.0,-6.9918,-6.9852,-6.9857,-6.9559,-6.9394,-6.9282,-6.9132,-6.9057,-6.887,-6.7861,-6.7038,-6.6141,-6.4197,-6.3561,-6.3299,-6.2028,-6.0906,-5.9972,-5.9276,-5.9089,-5.9028,-5.8696,-5.8113,-5.748,-5.685,-5.6501,-5.6359,-5.6359,-5.6359,-5.6105,-5.5343,-5.5194,-5.4991,-5.4338,-5.3801,-5.3396,-5.31,-5.2645,-5.2238,-5.1949,-5.1883,-5.1883,-5.1883,-5.1883,-5.1883,-5.1883,-5.1883,-5.1883,-5.1883,-5.1883,-5.1883,-5.1883,-5.1883,-5.1686,-5.1117,-5.0705,-4.9718,-4.8037,-4.7646,-4.6878,-4.5864,-4.5864,-4.5864,-5.0425,-5.265,-5.4612,-5.5993,-5.6393,-5.5171,-5.0765,0.0,0.0,0.0,-3.5827,-3.4733,-3.4916,0.0,0.0,0.0,0.0,-5.685,0.0,0.0,0.0,0.0,0.0,0.0,0.0,0.0,0.0,0.0,0.0,0.0,-7.907,-7.9182,-7.9257,-7.9295,-7.9519,-7.9631,-7.9669,-7.8246,-7.7521,-7.7526,-7.4109,-7.2514,-7.2438,-7.0768,-6.9971,-6.9971,-6.9971,0.0,0.0,-6.9971,-6.9971,-6.9966,-6.9844,-6.9655,-6.9431,-6.9282,-6.9132,-6.9057,-6.8993,-6.801,-6.6702,-6.6515,-6.6477,-6.5879,-6.2776,-6.1729,-6.128,-5.9598,-5.9089,-5.9089,-5.9089,-5.8696,-5.8137,-5.7407,-5.685,-5.6448,-5.6404,-5.6359,-5.6187,-5.5477,-5.5294,-5.5144,-5.452,-5.4338,-5.4005,-5.3279,-5.3073,-5.2707,-5.2014,-5.1883,-5.1883,-5.1883,-5.1883,-5.1883,-5.1883,-5.1883,-5.1883,-5.1883,-5.1883,-5.1883,-5.1883,-5.1883,-5.1883,-5.1883,-5.1117,-5.0078,-4.9025,-4.8006,-4.7009,-4.5864,-4.5864,-4.5864,-5.3483,-5.4893,-5.5928,-5.6256,-5.6393,-5.5171,-5.0765,-4.7933,0.0,0.0,0.0,0.0,0.0,0.0,0.0,0.0,0.0,0.0,0.0,0.0,0.0,0.0,0.0,0.0,0.0,0.0,0.0,0.0,0.0,0.0,-7.8808,-7.8846,-7.8958,-7.9145,-7.922,-7.9369,-7.9669,-7.8075,-7.7374,-7.7526,-7.4109,-7.2514,-7.2438,-7.0768,-6.9971,-6.9971,-6.9971,0.0,0.0,-6.9971,-6.9971,-6.9966,-6.9844,-6.973,-6.9655,-6.9319,-6.9207,-6.9169,-6.9057,-6.8795,-6.8272,-6.6889,-6.6477,-6.6103,-6.4084,-6.2589,-6.128,-5.9598,-5.9089,-5.9089,-5.9089,-5.8696,-5.8284,-5.8107,-5.7552,-5.685,-5.6493,-5.6359,-5.6323,-5.6187,-5.6105,-5.6059,-5.5966,-5.4975,-5.4173,-5.3971,-5.2919,-5.2078,-5.1949,-5.1883,-5.1883,-5.1883,-5.1883,-5.1883,-5.1883,-5.1883,-5.1883,-5.1883,-5.1883,-5.1883,-5.1883,-5.1883,-5.1883,-5.1883,-5.1686,-5.071,-4.9025,-4.877,-4.7725,-4.5864,-4.5864,-4.5864,-5.5882,-5.6977,-5.7539,-5.8229,-5.8393,-5.744,-5.3757,0.0,0.0,0.0,0.0,-3.8638,-3.8399,0.0,0.0,0.0,0.0,0.0,0.0,0.0,0.0,0.0,0.0,0.0,0.0,0.0,0.0,0.0,0.0,-7.8704,-7.8704,-7.8704,-7.8808,-7.8921,-7.907,-7.922,-7.9407,-7.8704,-7.8452,-7.8546,-7.609,-7.4489,-7.3653,-7.1945,-7.0768,-6.9971,-6.9971,0.0,-6.9971,-6.9971,-6.9971,-6.9969,-6.9886,-6.9845,-6.9768,-6.9543,-6.9394,-6.9282,-6.9169,-6.9132,-6.8945,-6.8085,-6.7749,-6.7225,-6.472,-6.3374,-6.2215,-5.9785,-5.9089,-5.9089,-5.9089,-5.8896,-5.8606,-5.8369,-5.7891,-5.7294,-5.685,-5.6545,-5.6359,-5.6359,-5.6359,-5.6359,-5.6359,-5.5463,-5.4573,-5.4283,-5.3219,-5.2365,-5.1949,-5.1883,-5.1883,-5.1883,-5.1883,-5.1883,-5.1883,-5.1883,-5.1883,-5.1883,-5.1883,-5.1883,-5.1883,-5.1883,-5.1883,-5.1883,-5.1883,-5.0948,-4.9025,-4.9025,-4.7959,-4.5864,-4.5864,-4.5864,-5.7549,-5.8689,-5.9183,-6.0366,-6.0629,-5.9948,-5.7161,-5.52,0.0,0.0,0.0,-4.2955,-4.176,-4.5341,0.0,-5.397,0.0,0.0,0.0,0.0,-7.5075,0.0,0.0,0.0,0.0,0.0,0.0,0.0,0.0,-7.8704,-7.8704,-7.8704,-7.8704,-7.8704,-7.8958,-7.907,-7.9108,-7.9444,-7.9631,-7.9661,-7.8235,-7.6653,-7.4982,-7.3274,-7.1565,-6.9971,-6.9971,0.0,-6.9971,-6.9971,-6.9971,-6.9971,-6.9971,-6.9925,-6.9825,-6.9797,-6.9655,-6.9458,-6.9261,-6.9236,-6.9207,-6.9207,-6.9132,-6.8422,-6.5318,-6.4384,-6.3711,-6.0458,-5.956,-5.9463,-5.9164,-5.9089,-5.8968,-5.8553,-5.8137,-5.7724,-5.7332,-5.685,-5.6493,-5.6404,-5.6359,-5.6359,-5.6359,-5.5706,-5.4991,-5.4338,-5.3571,-5.2769,-5.2014,-5.1883,-5.1883,-5.1883,-5.1883,-5.1883,-5.1883,-5.1883,-5.1883,-5.1883,-5.1883,-5.1883,-5.1883,-5.1883,-5.1883,-5.1883,-5.1883,-5.0948,-4.9025,-4.9025,-4.7959,-4.5864,-4.5864,-4.5864,-5.7991,-5.9413,-6.0399,-6.0596,-6.0629,-6.0065,-5.7925,-5.7152,-5.5849,-5.1904,0.0,0.0,-4.7619,0.0,-5.482,-5.9561,0.0,-6.9769,-7.3576,-7.5598,-7.6644,-7.6644,-7.7874,-7.8704,-7.8704,-7.8704,-7.8704,-7.8704,-7.8704,-7.8704,-7.8704,-7.8704,-7.8704,-7.8704,-7.8741,-7.8883,-7.9108,-7.9257,-7.9444,-7.9661,-7.8235,-7.6653,-7.4982,-7.3274,-7.1565,-6.9971,-6.9971,-6.9971,-6.9971,-6.9971,-6.9971,-6.9971,-6.9971,-6.9968,-6.9928,-6.98,-6.9768,-6.9722,-6.9466,-6.9277,-6.9207,-6.9207,-6.9132,-6.8683,-6.6739,-6.6141,-6.5468,-6.2215,-6.128,-6.0944,-5.9486,-5.9089,-5.9089,-5.9005,-5.858,-5.8137,-5.7758,-5.7332,-5.6891,-5.6493,-5.6359,-5.6359,-5.6359,-5.5706,-5.4991,-5.4338,-5.3571,-5.2769,-5.2014,-5.1883,-5.1883,-5.1883,-5.1883,-5.1883,-5.1883,-5.1883,-5.1883,-5.1883,-5.1883,-5.1883,-5.1883,-5.1883,-5.1883,-5.1883,-5.1883,-5.0948,-4.9025,-4.9025,-4.7959,-4.5864,-4.5864,-4.5864,-5.79,-5.9544,-6.0629,-6.0629,-6.1016,-6.1024,-6.0144,-6.1024,-6.0842,-5.6769,-5.6453,0.0,0.0,0.0,0.0,0.0,0.0,0.0,-7.3505,-7.5373,-7.6566,0.0,-7.776,0.0,-7.8704,-7.8704,-7.8704,0.0,-7.8445,-7.8412,-7.8704,-7.8704,-7.8704,-7.8704,-7.8704,-7.8808,-7.8921,-7.9108,-7.9271,-7.9451,-7.9008,-7.7436,-7.502,-7.4261,-7.2476,-6.9971,0.0,-6.9971,-6.9971,-6.9971,-6.9971,-6.9971,-6.9971,-6.9971,-6.9969,-6.9934,-6.9918,-6.9844,-6.9675,-6.9569,-6.9506,-6.9356,-6.9244,-6.8795,-6.7001,-6.6477,-6.5804,-6.2552,-6.1617,-6.1243,-5.956,-5.9089,-5.9089,-5.9089,-5.8696,-5.8226,-5.7789,-5.7407,-5.7014,-5.6457,-5.6359,-5.6359,-5.6359,-5.5706,-5.4991,-5.4338,-5.3571,-5.2952,-5.2583,-5.2174,-5.1883,-5.1883,-5.1883,-5.1883,-5.1883,-5.1883,-5.1883,-5.1883,-5.1883,-5.1883,-5.1883,-5.1883,-5.1686,-5.1117,-5.1117,-5.0117,-4.8114,-4.8114,-4.733,-4.5864,-4.5864,-4.5864,-5.6612,-5.8426,-5.9784,-6.0701,-6.1358,-6.1899,-6.2381,-6.4278,-6.4968,-6.1632,-6.2296,-6.279,0.0,0.0,0.0,-6.6647,-6.9186,0.0,-7.3755,-7.5536,0.0,-7.6734,0.0,-7.7912,-7.8478,-7.8375,0.0,0.0,-7.8311,-7.8345,-7.8704,-7.8704,-7.8704,-7.8704,-7.8704,-7.8704,-7.8704,-7.8921,-7.91,-7.9273,-7.955,-7.8029,-7.4941,-7.4973,-7.3198,-6.9971,-6.9971,-6.9971,-6.9971,-6.9971,-6.9971,-6.9971,-6.9971,-6.9971,-6.9971,-6.9971,-6.9971,-6.9965,-6.9845,-6.9803,-6.973,-6.9543,-6.9356,-6.8945,-6.7599,-6.715,-6.6515,-6.3673,-6.2552,-6.1841,-6.0159,-5.9425,-5.9089,-5.9089,-5.8809,-5.8378,-5.7858,-5.7516,-5.7137,-5.6501,-5.6359,-5.6359,-5.6359,-5.5884,-5.5244,-5.4573,-5.3858,-5.3312,-5.31,-5.2428,-5.1883,-5.1883,-5.1883,-5.1883,-5.1883,-5.1883,-5.1883,-5.1883,-5.1883,-5.1883,-5.1883,-5.1883,-5.1454,-5.0565,-5.0565,-4.9469,-4.7409,-4.7409,-4.6878,-4.5864,-4.5864,-4.5864,-5.3615,-5.5401,-5.7463,-6.0909,-6.1792,-6.2245,-6.4054,-6.5637,-6.6749,-6.6503,-6.6669,-6.6943,0.0,0.0,-6.8169,-7.2696,-7.4255,-7.5466,-7.7096,-7.7819,-7.7703,0.0,0.0,0.0,0.0,0.0,0.0,-7.7949,0.0,-7.8704,-7.8704,-7.8704,-7.8704,-7.8704,-7.8704,-7.8704,-7.8704,-7.8741,-7.8883,-7.913,-7.9512,-7.7911,-7.4647,-7.4917,-7.3198,-6.9971,-6.9971,-6.9971,-6.9971,-6.9971,-6.9971,-6.9971,-6.9971,-6.9971,-6.9971,-6.9971,-6.9971,-6.9971,-6.9969,-6.9894,-6.9768,-6.9768,-6.9506,-6.9207,-6.9095,-6.8982,-6.8496,-6.6739,-6.5057,-6.3449,-6.1879,-6.0308,-5.9089,-5.9089,-5.9089,-5.8784,-5.7924,-5.7724,-5.7443,-5.6545,-5.6359,-5.6359,-5.6359,-5.6323,-5.6059,-5.5244,-5.4573,-5.3892,-5.316,-5.2428,-5.1883,-5.1883,-5.1883,-5.1883,-5.1883,-5.1883,-5.1883,-5.1883,-5.1883,-5.1883,-5.1883,-5.1883,-5.1454,-5.0565,-5.0565,-4.9469,-4.7409,-4.7409,-4.6878,-4.5864,-4.5864,-4.5864,-5.2397,-5.475,-5.7033,-5.9738,-6.1601,-6.3014,-6.4234,-6.6952,-6.8925,-6.7861,-7.0154,-7.2047,-7.1213,-7.0899,-7.1645,-7.4343,-7.417,-7.4277,-7.5847,-7.6488,-7.6617,-7.6038,-7.6566,-7.7064,0.0,0.0,0.0,-7.8341,-7.8311,-7.8379,-7.8704,-7.8704,-7.8704,-7.8704,-7.8704,-7.8704,-7.8704,-7.8704,-7.8741,-7.8883,-7.8255,-7.6774,-7.4607,-7.38,-7.2173,-6.9971,-6.9971,-6.9971,-6.9971,-6.9971,-6.9971,-6.9971,-6.9971,-6.9971,-6.9971,-6.9971,-6.9971,-6.9971,-6.9971,-6.9943,-6.9892,-6.978,-6.9578,-6.9298,-6.9223,-6.9132,-6.8683,-6.6963,-6.6029,-6.5206,-6.3561,-6.2664,-6.1991,-6.0981,-6.0437,-5.9733,-5.8112,-5.7552,-5.7176,-5.6501,-5.6359,-5.6359,-5.6359,-5.6359,-5.6105,-5.5294,-5.4626,-5.3915,-5.316,-5.2428,-5.1883,-5.1883,-5.1883,-5.1883,-5.1883,-5.1883,-5.1883,-5.1883,-5.1883,-5.1587,-5.1049,-5.1049,-5.022,-4.8574,-4.8543,-4.7881,-4.6417,-4.6417,-4.6252,-4.5864,-4.5864,-4.5864,-5.0169,0.0,-5.621,-5.8792,-6.1313,-6.3463,-6.4642,-6.742,-6.9568,-6.9033,-7.1852,-7.4277,-7.3742,-7.3671,-7.3992,-7.5062,-7.4511,-7.4287,-7.5363,-7.5932,-7.6322,-7.6322,-7.6555,0.0,0.0,0.0,0.0,-7.8375,-7.8273,-7.8379,-7.8704,-7.8704,-7.8704,-7.8704,-7.8704,-7.8704,-7.8704,-7.8704,-7.8704,-7.8704,-7.7956,-7.6767,-7.5235,-7.3314,-7.1516,-6.9971,-6.9971,-6.9971,-6.9971,-6.9971,-6.9971,-6.9971,-6.9971,-6.9971,-6.9971,-6.9971,-6.9971,-6.9971,-6.9971,-6.9971,-6.9965,-6.9866,-6.9641,-6.9369,-6.9297,-6.9169,-6.8795,-6.7636,-6.6926,-6.6066,-6.4384,-6.3935,-6.3411,-6.128,-6.0807,-6.0291,-5.8189,-5.7407,-5.7014,-5.6457,-5.6359,-5.6359,-5.6359,-5.6359,-5.6187,-5.5658,-5.4991,-5.4193,-5.316,-5.2428,-5.1883,-5.1883,-5.1883,-5.1883,-5.1883,-5.1883,-5.1883,-5.1883,-5.1587,-5.1185,-5.0565,-5.0181,-4.9174,-4.7488,-4.7409,-4.6959,-4.5864,-4.5864,-4.5864,-4.5864,-4.5864,-4.5864,0.0,0.0,-5.4656,-5.7885,-6.0862,-6.3381,-6.5129,-6.6732,-6.8372,-7.0103,-7.1709,-7.3279,-7.4884,-7.5169,-7.5169,-7.5205,-7.568,-7.5965,-7.6017,-7.6566,-7.7019,-7.6974,-7.6421,-7.6566,0.0,-7.7949,-7.7949,-7.7949,-7.8445,-7.8704,-7.8704,-7.8704,-7.8704,-7.8704,-7.8704,-7.8704,-7.8704,-7.8704,-7.8704,-7.8704,-7.8704,-7.7948,-7.6406,-7.3627,-7.148,-6.9971,-6.9971,-6.9971,-6.9971,-6.9971,-6.9971,-6.9971,-6.9971,-6.9971,-6.9971,-6.9971,-6.9971,-6.9971,-6.9933,-6.9895,-6.9895,-6.9895,-6.9613,-6.9331,-6.9372,-6.9207,-6.8993,-6.8993,-6.7823,-6.6178,-6.4458,-6.401,-6.3163,-5.9911,-5.9998,-6.0261,-5.8156,-5.7406,-5.6973,-5.6457,-5.6359,-5.6359,-5.6359,-5.6359,-5.6359,-5.6323,-5.5658,-5.4644,-5.3219,-5.2428,-5.1883,-5.1883,-5.1883,-5.1883,-5.1883,-5.1883,-5.1883,-5.1883,-5.1049,-5.0495,-5.0463,-4.9469,-4.8467,-4.7409,-4.7409,-4.6878,-4.5864,-4.5864,-4.5864,-4.5864,-4.5864,-4.5864,-4.7769,0.0,0.0,-5.4003,-5.6198,-5.8235,-6.0966,-6.2895,-6.495,-6.8068,-7.0068,-7.1673,-7.3243,-7.3528,-7.4081,-7.5519,-7.5932,-7.6171,-7.6614,-7.7275,-7.7521,-7.7019,-7.7232,-7.7721,-7.8445,-7.8169,-7.8097,-7.8478,-7.8642,-7.8704,-7.8704,-7.8704,-7.8704,-7.8704,-7.8704,-7.8704,-7.8704,-7.8704,-7.8704,-7.8704,-7.8704,-7.732,-7.474,-7.4133,-7.2443,-6.9971,-6.9971,-6.9971,-6.9971,-6.9971,-6.9971,-6.9971,-6.9971,-6.9971,-6.9971,-6.9971,-6.9971,-6.9819,-6.8566,-6.8148,-6.8148,-6.8034,-6.7868,-6.7881,-6.8959,-6.9169,-6.8993,-6.8993,-6.8683,-6.7936,-6.6216,-6.5498,-6.4408,-6.1145,-6.0115,-5.9376,-5.7659,-5.6932,-5.6545,-5.6368,-5.6359,-5.6359,-5.6359,-5.6359,-5.6187,-5.5574,-5.494,-5.4138,-5.316,-5.2428,-5.1883,-5.1883,-5.1883,-5.1883,-5.1883,-5.1883,-5.1587,-5.0981,-5.0705,-4.9863,-4.8314,-4.8037,-4.7409,-4.6335,-4.6335,-4.6199,-4.5864,-4.5864,-4.5864,-4.5864,-4.5864,-4.5864,-4.5382,0.0,0.0,0.0,-5.1033,-5.3278,-5.8801,-5.9842,-6.1092,-6.6038,-6.7856,-6.9211,-7.1495,-7.1887,-7.2419,0.0,-7.4842,-7.5628,-7.6244,-7.7467,-7.8131,-7.7762,-7.806,-7.8412,-7.8704,-7.8445,-7.8412,-7.8704,-7.8704,-7.8704,-7.8704,-7.8704,-7.8704,-7.8704,-7.8704,-7.8704,-7.8704,-7.8704,-7.8704,-7.8704,-7.8704,-7.7058,-7.3964,-7.4217,-7.2613,-6.9738,-6.9891,-6.9971,-6.9971,-6.9971,-6.9971,-6.9971,-6.9971,-6.9971,-6.9895,-6.9173,-6.849,-6.7731,-6.6744,-6.6402,-6.6364,-6.625,-6.6097,-6.6172,-6.6927,-6.705,-6.6889,-6.6889,-6.6889,-6.6452,-6.4602,-6.4408,-6.3858,-6.0384,-5.9487,-5.9064,-5.7499,-5.676,-5.6359,-5.6359,-5.6359,-5.6359,-5.6359,-5.6359,-5.6013,-5.494,-5.4193,-5.3455,-5.2645,-5.2174,-5.1883,-5.1883,-5.1883,-5.1752,-5.1387,-5.132,-5.0948,-4.9935,-4.95,-4.8694,-4.7488,-4.7009,-4.65,-4.5864,-4.5357,-4.5157,-4.5157,-4.4583,-4.4583,-4.5157,-4.5157,-4.4329,0.0,0.0,0.0,-4.4097,-4.5292,-4.7773,0.0,0.0,-5.5997,-6.2674,-6.4201,-6.5378,-6.8855,-6.964,-7.0091,-7.1028,-7.2953,-7.4662,-7.5392,-7.7219,-7.8442,-7.8442,-7.8442,-7.8517,-7.8704,-7.8704,-7.8704,-7.8704,-7.8704,-7.8704,-7.8704,-7.8704,-7.8704,-7.8704,-7.8704,-7.8704,-7.8704,-7.8704,-7.8704,-7.8704,-7.8704,-7.7021,-7.388,-7.4001,-7.2356,-6.9398,-6.9797,-6.9957,-6.9957,-6.997,-6.9971,-6.9971,-6.9971,-6.9743,-6.9249,-6.7731,-6.6212,-6.4883,-6.4693,-6.4617,-6.4577,-6.4422,-6.4309,-6.4256,-6.4271,-6.4134,-6.3935,-6.3935,-6.391,-6.3398,-6.1386,-6.1907,-6.2047,-5.8526,-5.8426,-5.8762,-5.7383,-5.6718,-5.6359,-5.6359,-5.6359,-5.6359,-5.6359,-5.6278,-5.5741,-5.4303,-5.3513,-5.2769,-5.2014,-5.1818,-5.1752,-5.1752,-5.1686,-5.122,-5.0463,-5.0393,-4.9935,-4.8876,-4.7929,-4.7409,-4.725,-4.6335,-4.578,-4.5696,-4.4639,-4.397,-4.3742,-4.2587,-4.2506,-4.3547,-4.3547,-4.1919,0.0,0.0,0.0,0.0,0.0,0.0,0.0,0.0,-4.665,-5.2693,-5.4846,-5.7136,-6.1991,-6.3931,-6.5907,-6.953,-7.1505,-7.3458,-7.5873,-7.658,-7.6834,-7.6834,-7.6834,-7.732,-7.8591,-7.8704,-7.8704,-7.8704,-7.8704,-7.8704,-7.8704,-7.8704,-7.8704,-7.8704,-7.8704,-7.8704,-7.8704,-7.8704,-7.8704,-7.8704,-7.8704,-7.7021,-7.388,-7.4001,-7.229,-6.9259,-6.9638,-6.9816,-6.9841,-6.9955,-6.9971,-6.9971,-6.9971,-6.83,-6.587,-6.5529,-6.5149,-6.458,-6.3213,-6.2652,-6.2566,-6.2418,-6.2372,-6.254,-6.3686,-6.401,-6.3935,-6.3935,-6.3718,-6.3086,-6.1299,-6.0535,-5.9738,-5.7728,-5.7107,-5.6903,-5.6573,-5.6448,-5.6359,-5.6359,-5.6359,-5.6359,-5.6359,-5.5836,-5.494,-5.3513,-5.316,-5.2769,-5.2014,-5.1253,-5.0843,-5.0843,-5.0078,-4.9469,-4.9322,-4.9248,-4.8876,-4.7803,-4.7567,-4.7039,-4.6169,-4.6032,-4.5442,-4.4465,-4.4202,-4.3172,-4.1302,-4.1037,-4.0639,-4.0061,-4.0061,-3.9732,0.0,0.0,0.0,0.0,0.0,0.0,0.0,0.0,0.0,0.0,0.0,-5.1122,0.0,0.0,-6.1251,-6.5529,-6.8216,-7.0732,-7.3465,-7.4591,-7.5114,-7.5114,-7.5114,-7.5451,-7.6198,-7.7058,-7.7544,-7.7544,-7.8255,-7.8704,-7.8704,-7.8704,-7.8704,-7.8704,-7.8704,-7.8704,-7.8704,-7.8704,-7.8704,-7.8704,-7.7918,-7.6236,-7.3843,-7.3058,-7.1385,-6.9244,-6.9468,-6.9655,-6.9797,-6.9928,-6.9477,-6.8642,-6.7769,-6.587,-6.3554,-6.3554,-6.2937,-6.2009,-6.1136,-6.079,-6.0715,-6.0605,-6.0555,-6.0635,-6.1008,-6.1142,-6.1115,-6.0883,-6.0705,-6.0299,-5.9257,-5.8683,-5.8074,-5.6988,-5.6545,-5.6359,-5.6359,-5.6359,-5.6359,-5.6359,-5.6359,-5.6233,-5.5884,-5.4888,-5.3699,-5.2478,-5.2042,-5.1489,-5.0539,-5.0078,-4.9253,-4.7932,-4.7355,-4.7041,-4.7041,-4.6537,-4.6602,-4.7398,-4.6959,-4.6417,-4.5864,-4.5283,-4.4436,-4.3391,-4.2033,-4.0249,-3.805,-3.7445,-3.7141,-3.7172,-3.4895,-3.3854,0.0,0.0,0.0,0.0,0.0,0.0,0.0,0.0,0.0,0.0,0.0,0.0,0.0,0.0,0.0,-5.9963,-6.3663,-6.719,-7.028,-7.1759,-7.2572,-7.2908,-7.317,-7.3506,-7.3843,-7.5114,-7.5899,-7.5899,-7.7058,-7.7769,-7.7769,-7.8105,-7.8255,-7.8255,-7.8255,-7.8255,-7.8255,-7.7918,-7.7769,-7.7769,0.0,0.0,-7.332,-7.1974,-7.0553,-6.9207,-6.9356,-6.951,-6.9728,-6.9563,-6.868,-6.7275,-6.5263,-6.3554,-6.215,-6.1828,-6.0699,-5.9313,-5.9339,-5.9243,-5.9144,-5.9033,-5.8995,-5.887,-5.835,-5.8093,0.0,-5.7615,-5.7333,-5.7076,-5.6793,-5.6658,-5.6481,-5.6059,-5.6059,-5.6151,-5.6151,-5.6151,-5.6151,-5.6151,-5.6013,-5.5741,-5.5144,-5.379,-5.2283,-5.0767,-5.0396,-4.9745,-4.8382,-4.846,-4.7859,-4.5731,-4.5584,-4.5584,-4.5584,-4.41,-4.4411,-4.7228,-4.5791,-4.4788,-4.4788,-4.3284,-4.1977,-4.0733,-3.8312,-3.62,-3.4345,-3.3401,-3.3308,-3.396,-2.8641,-2.6766,0.0,0.0,0.0,0.0,0.0,0.0,0.0,0.0,0.0,0.0,0.0,0.0,0.0,0.0,0.0,0.0,-5.7804,-6.2811,-6.7858,-6.7819,-6.7861,-6.9394,-7.0777,-7.2235,-7.3693,-7.403,-7.4142,-7.4142,-7.4329,-7.4404,-7.4404,0.0,0.0,0.0,0.0,-7.6647,-7.6647,-7.5152,-7.4404,-7.4404,-7.4217,-7.3282,-7.1637,-7.1413,-7.0515,-6.9057,-6.9319,-6.9412,-6.9375,-6.8201,-6.7617,-6.7123,-6.4048,-6.2605,-6.1993,-6.0377,-5.9376,-5.8804,-5.8813,0.0,0.0,-5.7891,-5.7891,-5.7891,-5.7825,-5.7296,-5.6784,-5.6707,-5.5944,-5.5116,-5.5103,-5.4833,-5.452,-5.45,-5.4888,-5.5343,-5.5343,-5.5343,-5.5343,-5.5343,-5.4836,-5.4446,-5.4358,-5.2871,-5.0669,-4.7649,-4.835,-4.8299,-4.5862,-4.6766,-4.7525,-4.7222,0.0,0.0,-4.7192,-4.4014,-4.3548,-4.7168,-4.3313,-4.0891,-4.0891,-3.8223,-3.5846,-3.4121,-3.233,-3.1227,-3.0699,-3.0628,-3.0094,-2.9146,-2.1081,-2.0256,0.0,0.0,0.0,0.0,0.0,0.0,0.0,0.0,0.0,0.0,0.0,0.0,0.0,0.0,0.0,0.0,-5.2609,-5.6883,-5.9097,-6.0829,-6.2924,-6.5742,-6.7524,-6.8795,-6.9506,-7.1263,-7.2385,-7.2385,-7.332,-7.388,-7.388,-7.4553,-7.4927,-7.4927,-7.5002,-7.5039,-7.5031,-7.4507,-7.4179,-7.4179,-7.3198,-7.2365,-7.1627,-7.0665,-6.988,-6.9244,-6.9506,-6.9072,-6.8107,-6.7651,-6.6857,0.0,0.0,0.0,0.0,0.0,-5.8368,-5.7482,-5.7482,-5.7005,-5.6512,-5.6512,-5.6512,-5.6432,-5.6137,-5.5806,-5.5501,-5.527,-5.4402,-5.3581,-5.3581,-5.3014,-5.2576,-5.3217,-5.3562,-5.3898,-5.4538,-5.4626,-5.4626,-5.4626,-5.4446,0.0,-5.2358,-5.1424,-5.0057,-4.7468,-4.7683,-4.7455,-4.5749,-4.6113,-4.6232,-4.5271,-4.5195,-4.542,-4.6011,-4.4616,0.0,0.0,0.0,-4.4773,-4.3588,-4.216,0.0,0.0,0.0,0.0,0.0,0.0,0.0,0.0,-2.0374,-1.9219,0.0,0.0,0.0,0.0,0.0,0.0,0.0,0.0,0.0,0.0,0.0,0.0,0.0,0.0,0.0,0.0,0.0,-5.0204,-5.0204,-5.4241,-5.8037,-6.0189,-6.3586,-6.5244,-6.3898,-6.7113,-6.9319,-6.9367,-7.0927,-7.1936,-7.1983,-7.2843,-7.3329,-7.3329,-7.3432,-7.3467,-7.3483,-7.3196,-7.3083,-7.3046,-7.1793,-7.1215,-7.1178,-6.993,-6.9405,-6.9367,-6.9181,-6.8388,-6.7183,-6.6424,-6.5361,-6.387,-6.0703,-5.9027,-5.8347,-5.82,-5.7381,-5.6283,-5.6155,-5.5405,-5.4669,-5.4669,-5.4187,-5.3576,-5.3231,-5.2823,-5.2469,-5.2562,-5.1865,-5.1185,-5.1581,-5.1097,-5.07,-5.1455,-5.1996,-5.2556,-5.3319,-5.371,-5.3949,-5.3949,-5.2948,-5.1556,-4.9718,-4.8965,-4.7871,-4.5663,-4.6049,0.0,-4.4491,-4.5472,-4.5843,-4.4759,-4.5107,-4.5785,-4.6551,-4.558,-4.5931,-4.813,-4.7747,-4.6766,-4.5247,-4.4427,-4.0198,-3.2242,-2.7021,-2.3058,0.0,0.0,0.0,0.0,0.0,0.0,0.0,0.0,0.0,0.0,0.0,0.0,0.0,0.0,0.0,0.0,0.0,0.0,0.0,0.0,0.0,0.0,0.0,0.0,-4.2877,-4.9305,-5.34,-5.1719,-5.8908,-6.214,-5.7317,-6.1318,-6.4247,-6.4371,-6.5954,-6.7001,-6.7258,-7.0274,-7.1992,-7.1992,-7.1964,-7.1974,-7.1974,-7.0372,-6.954,-6.954,-6.9502,-6.9464,-6.9464,-6.9426,-6.9388,-6.9326,-6.7927,-6.7328,-6.7003,-6.4002,-6.2591,-6.2065,-5.9815,-5.8137,-5.7006,-5.6893,-5.6292,-5.5575,-5.5081,-5.3703,-5.2218,-5.2218,-5.0681,-4.8825,-4.8771,-4.7774,-4.6778,-4.8038,-4.7784,-4.7487,-4.8799,-4.9069,-4.9069,-4.9069,-5.0346,-5.1586,-5.1586,-5.2416,-5.3133,-5.3133,-4.9673,-4.6654,-4.659,-4.5032,-4.2924,-4.0417,-4.2429,0.0,-4.0775,-4.4509,-4.7379,-4.7289,-4.9123,-5.0335,-5.0335,-4.6878,-4.6362,-5.0207,-4.5997,-4.3401,-4.3596,-4.132,-3.6487,-2.887,-2.3155,-1.8435,-1.4847,0.0,0.0,0.0,0.0,0.0,0.0,0.0,0.0,0.0,0.0,0.0,0.0,0.0,0.0,0.0,0.0,0.0,0.0,0.0,0.0,0.0,0.0,0.0,0.0,0.0,-4.8494,-4.9371,-5.4211,-5.556,-5.0606,-5.5618,-5.8775,-5.7766,-6.1338,-6.3629,-6.3687,-6.5814,-6.7019,-6.7019,-6.712,-6.7145,-6.7168,-6.6674,-6.6447,-6.6447,-6.6447,-6.6371,-6.6295,-6.6295,-6.6284,-6.6155,-6.5656,-6.4829,-6.3715,-6.2655,-6.0686,-5.8067,-5.5517,-5.4043,-5.3298,-5.2828,-5.2263,-5.1674,-5.0993,-5.0454,-4.9735,-4.8679,-4.7839,-4.7045,-4.6455,-4.5916,-4.5618,-4.6025,-4.5499,-4.4802,-4.526,-4.5557,-4.5941,-4.6543,-4.8278,-4.9735,-4.939,-5.0147,-5.061,-4.9675,-4.7017,-4.3747,-4.0145,-4.1756,-4.1917,-3.6981,-3.9974,-4.2811,-4.2811,-4.4747,-4.6724,-4.8299,-4.9718,-5.0774,-5.1387,-5.0214,-4.9791,-5.0539,-4.8187,-4.6163,-4.4908,-4.1771,-3.7878,-3.3168,-2.721,-2.1138,-1.498,0.0,0.0,0.0,0.0,0.0,0.0,0.0,0.0,0.0,0.0,0.0,0.0,0.0,0.0,0.0,0.0,0.0,0.0,0.0,0.0,0.0,0.0,0.0,0.0,0.0,0.0,-4.6564,-4.9599,0.0,-4.468,-4.8082,-5.0437,-5.0085,-5.3652,-5.6631,-5.8523,-6.0207,-6.195,-6.3777,-6.3919,-6.4238,-6.4769,-6.4883,-6.4921,-6.4845,-6.4845,-6.4803,-6.4663,-6.4657,-6.4618,-6.4498,-6.3878,-6.2995,-6.1848,-5.9681,-5.6846,-5.362,-5.1839,-5.0246,-4.8992,-4.9115,-4.8738,-4.8228,-4.8349,-4.8416,-4.8088,-4.6255,-4.4002,-4.186,-4.1238,-4.0242,-3.9559,-4.0905,-4.113,-4.1294,-4.2725,-4.3266,-4.363,-4.4135,-4.5918,-4.7415,-4.7067,-4.7683,-4.7625,-4.5607,-4.3717,-4.0709,-3.5314,-3.6956,-3.7616,-3.3562,-3.6229,-3.9815,-4.2748,-4.4879,-4.673,-4.8548,-5.0073,-5.1253,-5.1818,-5.1883,-5.1457,-5.0337,-4.9231,-4.723,-4.4195,-4.1131,-3.7023,-3.1651,-2.6714,-2.0924,0.0,0.0,0.0,0.0,0.0,0.0,0.0,0.0,0.0,0.0,0.0,0.0,0.0,0.0,0.0,0.0,0.0,0.0,0.0,0.0,0.0,0.0,0.0,0.0,0.0,0.0,0.0,-4.3123,-4.4876,0.0,0.0,0.0,0.0,-4.1406,-4.3282,-4.6527,-5.1481,-5.3342,-5.6569,-6.1694,-6.1846,-6.2681,-6.439,-6.4428,-6.4352,-6.4237,-6.4236,-6.4161,-6.4031,-6.4026,-6.4077,-6.404,-6.2323,-6.1626,-6.1206,-5.5091,-5.1069,-4.8819,-4.8423,-4.637,-4.3841,-4.543,-4.5476,-4.5044,-4.6688,-4.7215,-4.6767,-4.446,-3.9165,-3.3686,-3.3565,-3.1276,0.0,0.0,-3.4929,-3.679,-4.0688,-4.1735,-4.1822,-4.2102,-4.3566,-4.4908,-4.4846,-4.5116,-4.4421,0.0,-3.9647,-3.7166,-3.161,0.0,-3.0189,-2.9709,-3.1266,-3.4513,-4.0376,-4.4523,-4.7237,-4.8084,-5.0376,-5.1785,-5.1785,-5.1785,-5.1193,-4.9746,-4.8848,-4.6219,-4.1539,-3.8988,-3.3605,-2.4738,-2.1527,0.0,0.0,0.0,0.0,0.0,0.0,0.0,0.0,0.0,0.0,0.0,0.0,0.0,0.0,0.0,0.0,0.0,0.0,0.0,0.0,0.0,0.0,0.0,0.0,0.0,0.0,-3.3969,-3.6049,-3.9564,-3.8563,-3.5632,0.0,0.0,0.0,0.0,0.0,0.0,-4.1269,-4.2977,-4.6166,-5.114,-5.133,-5.3266,-5.7366,-5.7404,-5.7355,-5.7198,-5.7216,-5.716,-5.6999,-5.7008,-5.7601,-5.8483,-5.661,-5.6438,-5.6896,-4.8849,-4.505,-4.3672,-3.7984,-3.5126,-3.4393,-3.6054,-3.6109,-3.5992,-4.0431,-4.1227,-4.0043,-3.8761,-3.5619,-3.201,-3.0085,0.0,0.0,0.0,0.0,-3.0159,-3.3936,-3.5649,-3.7275,-4.0765,-4.3267,-4.4628,-4.3535,-4.3911,-4.2458,0.0,-3.3134,-2.9479,-2.0682,0.0,0.0,0.0,0.0,-3.3287,-3.6778,-4.1676,-4.5691,-4.7928,-4.9433,-5.0305,-5.0305,-5.0305,-4.9713,-4.8234,-4.5788,-4.3122,-4.0209,-3.397,-2.8249,-2.3166,0.0,0.0,0.0,0.0,0.0,0.0,0.0,0.0,0.0,0.0,0.0,0.0,0.0,0.0,0.0,0.0,0.0,0.0,0.0,0.0,0.0,0.0,0.0,0.0,0.0,0.0,0.0,-3.0223,-3.3225,-3.6289,-3.3409,-3.0049,0.0,0.0,0.0,0.0,0.0,0.0,0.0,0.0,0.0,-4.2901,-4.3091,-4.4761,-4.8211,-5.0417,-5.1424,-5.1352,-5.3509,-5.4438,-5.4342,-5.4342,-5.4688,-5.5231,-5.4132,-5.2778,-5.078,-4.4228,-4.0103,-3.7375,0.0,0.0,0.0,0.0,-3.0387,-3.0352,-3.3863,-3.4165,0.0,-3.1834,0.0,0.0,0.0,0.0,0.0,0.0,0.0,0.0,0.0,0.0,-3.6779,-3.9439,-4.1615,-4.2755,-4.1588,-3.8685,-3.4834,0.0,-2.7793,-2.4237,-1.6334,0.0,0.0,0.0,0.0,-3.0298,-3.5081,-4.065,-4.4885,-4.681,-4.809,-4.8826,-4.8826,-4.8826,-4.8046,-4.6239,-4.372,-4.0145,-3.5511,-2.9659,-2.2706,0.0,0.0,0.0,0.0,0.0,0.0,0.0,0.0,0.0,0.0,0.0,0.0,0.0,0.0,0.0,0.0,0.0,0.0,0.0,0.0,0.0,0.0,0.0,0.0,0.0,0.0,0.0,0.0,0.0,-3.2272,-3.2873,0.0,0.0,0.0,0.0,0.0,0.0,0.0,0.0,0.0,0.0,0.0,0.0,0.0,-3.67,-3.8478,-4.2996,-4.5191,-4.5116,-4.9634,-5.1729,-5.1634,-5.1634,-5.1862,-5.2288,-5.1151,0.0,-4.3921,-3.9565,0.0,0.0,0.0,0.0,0.0,0.0,0.0,0.0,0.0,0.0,0.0,0.0,0.0,0.0,0.0,0.0,0.0,0.0,0.0,0.0,0.0,0.0,-3.6625,-3.6904,-3.8437,-3.9563,0.0,-3.1867,-2.6094,-2.4657,-2.3226,0.0,0.0,0.0,0.0,0.0,0.0,0.0,-3.3942,-4.0209,-4.4413,-4.5382,-4.6557,-4.7373,-4.7373,-4.7373,-4.6326,-4.4021,-4.161,-3.7038,-2.9743,-2.5859,0.0,0.0,0.0,0.0,0.0,0.0,0.0,0.0,0.0,0.0,0.0,0.0,0.0,0.0,0.0,0.0,0.0,0.0,0.0,0.0,0.0,0.0,0.0,0.0,0.0,0.0,0.0,0.0,0.0,0.0,0.0,0.0,0.0,0.0,0.0,0.0,0.0,0.0,0.0,0.0,0.0,0.0,0.0,0.0,0.0,0.0,0.0,0.0,0.0,0.0,-3.6828,-3.7889,-3.7875,-3.7747,-4.0553,-4.5065,-3.8049,-3.65,-3.8323,-3.0959,0.0,0.0,0.0,0.0,0.0,0.0,0.0,0.0,0.0,0.0,0.0,0.0,0.0,0.0,0.0,0.0,0.0,0.0,0.0,0.0,0.0,0.0,0.0,0.0,-3.2473,-3.3959,0.0,0.0,0.0,0.0,0.0,0.0,0.0,0.0,0.0,0.0,0.0,0.0,-3.0306,-3.8173,-4.3989,-4.5373,-4.5702,-4.5834,-4.5834,-4.5834,-4.4889,-4.2517,-3.7321,-3.2409,0.0,0.0,0.0,0.0,0.0,0.0,0.0,0.0,0.0,0.0,0.0,0.0,0.0,0.0,0.0,0.0,0.0,0.0,0.0,0.0,0.0,0.0,0.0,0.0,0.0,0.0,0.0,0.0,0.0,0.0,0.0,0.0,0.0,0.0,0.0,0.0,0.0,0.0,0.0,0.0,0.0,0.0,0.0,0.0,0.0,0.0,0.0,0.0,0.0,0.0,0.0,0.0,0.0,0.0,0.0,0.0,0.0,0.0,0.0,-2.8718,0.0,0.0,0.0,0.0,0.0,0.0,0.0,0.0,0.0,0.0,0.0,0.0,0.0,0.0,0.0,0.0,0.0,0.0,0.0,0.0,0.0,0.0,0.0,0.0,0.0,0.0,0.0,0.0,0.0,0.0,0.0,0.0,0.0,0.0,0.0,0.0,0.0,0.0,0.0,0.0,-2.9659,-3.7847,-4.3631,-4.4321,-4.4387,-4.4387,-4.4387,-4.4387,-4.2416,-3.7859,-3.4084,0.0,0.0,0.0,0.0,0.0,0.0,0.0,0.0,0.0,0.0,0.0,0.0,0.0,0.0,0.0,0.0,0.0,0.0,0.0,0.0,0.0,0.0,0.0,0.0,0.0,0.0,0.0,0.0,0.0,0.0,0.0,0.0,0.0,0.0,0.0,0.0,0.0,0.0,0.0,0.0,0.0,0.0,0.0,0.0,0.0,0.0,0.0,0.0,0.0,0.0,0.0,0.0,0.0,0.0,0.0,0.0,0.0,0.0,0.0,-2.6305,0.0,0.0,0.0,0.0,0.0,0.0,0.0,0.0,0.0,0.0,0.0,0.0,0.0,0.0,0.0,0.0,0.0,0.0,0.0,0.0,0.0,0.0,0.0,0.0,0.0,0.0,0.0,0.0,0.0,0.0,0.0,0.0,0.0,0.0,0.0,0.0,0.0,0.0,0.0,0.0,0.0,-2.992,-3.7943,-4.3368,-4.3368,-4.3368,-4.3368,-4.3368,-4.3368,-4.0471,-3.3815,-3.1173,0.0,0.0,0.0,0.0,0.0,0.0,0.0,0.0,0.0,0.0,0.0,0.0,0.0,0.0,0.0,0.0,0.0,0.0,0.0,0.0,0.0,0.0,0.0,0.0,0.0,0.0,0.0,0.0,0.0,0.0,0.0,0.0,0.0,0.0,0.0,0.0,0.0,0.0,0.0,0.0,0.0,0.0,0.0,0.0,0.0,0.0,0.0,0.0,0.0,0.0,0.0,0.0,0.0,0.0,0.0,0.0,0.0,0.0,0.0,0.0,0.0,0.0,0.0,0.0,0.0,0.0,0.0,0.0,0.0,0.0,0.0,0.0,0.0,0.0,0.0,0.0,0.0,0.0,0.0,0.0,0.0,0.0,0.0,0.0,0.0,0.0,0.0,0.0,0.0,0.0,0.0,0.0,0.0,0.0,0.0,0.0,0.0,0.0,0.0,0.0,0.0,-2.992,-3.7943,-4.3368,-4.3368,-4.3368,-4.3368,-4.3368,-4.3368,-4.0386,-3.351,0.0,0.0,0.0,0.0,0.0,0.0,0.0,0.0,0.0,0.0,0.0,0.0,0.0,0.0,0.0,0.0,0.0,0.0,0.0,0.0,0.0,0.0,0.0,0.0,0.0,0.0,0.0,0.0,0.0,0.0,0.0,0.0,0.0,0.0,0.0,0.0,0.0,0.0,0.0,0.0,0.0,0.0,0.0,0.0,0.0,0.0,0.0,0.0,0.0,0.0,0.0,0.0,0.0,0.0,0.0,0.0,0.0,0.0,0.0,0.0,0.0,0.0,0.0,0.0,0.0,0.0,0.0,0.0,0.0,0.0,0.0,0.0,0.0,0.0,0.0,0.0,0.0,0.0,0.0,0.0,0.0,0.0,0.0,0.0,0.0,0.0,0.0,0.0,0.0,0.0,0.0,0.0,0.0,0.0,0.0,0.0,0.0,0.0,0.0,0.0,0.0,0.0,-3.0506,-3.8815,-4.4416,-4.4416,-4.4416,-4.4416,-4.4416,-4.4065,-3.9994,-3.092,0.0,0.0,0.0,0.0,0.0,0.0,0.0,0.0,0.0,0.0,0.0,0.0,0.0,0.0,0.0,0.0,0.0,0.0,0.0,0.0,0.0,0.0,0.0,0.0,0.0,0.0,0.0,0.0,0.0,0.0,0.0,0.0,0.0,0.0,0.0,0.0,0.0,0.0,0.0,0.0,0.0,0.0,0.0,0.0,0.0,0.0,0.0,0.0,0.0,0.0,0.0,0.0,0.0,0.0,0.0,0.0,0.0,0.0,0.0,0.0,0.0,0.0,0.0,0.0,0.0,0.0,0.0,0.0,0.0,0.0,0.0,0.0,0.0,0.0,0.0,0.0,0.0,0.0,0.0,0.0,0.0,0.0,0.0,0.0,0.0,0.0,0.0,0.0,0.0,0.0,0.0,0.0,0.0,0.0,0.0,0.0,0.0,0.0,0.0,0.0,0.0,0.0,-3.0918,-3.9373,-4.5075,-4.5075,-4.5075,-4.5075,-4.5075,-4.4476,-3.967,-2.9298,0.0,0.0,0.0,0.0,0.0,0.0,0.0,0.0,0.0,0.0,0.0,0.0,0.0,0.0,0.0,0.0,0.0,0.0,0.0,0.0,0.0,0.0,0.0,0.0,0.0,0.0,0.0,0.0,0.0,0.0,0.0,0.0,0.0,0.0,0.0,0.0,0.0,0.0,0.0,0.0,0.0,0.0,0.0,0.0,0.0,0.0,0.0,0.0,0.0,0.0,0.0,0.0,0.0,0.0,0.0,0.0,0.0,0.0,0.0,0.0,0.0,0.0,0.0,0.0,0.0,0.0,0.0,0.0,0.0,0.0,0.0,0.0,0.0,0.0,0.0,0.0,0.0,0.0,0.0,0.0,0.0,0.0,0.0,0.0,0.0,0.0,0.0,0.0,0.0,0.0,0.0,0.0,0.0,0.0,0.0,0.0,0.0,0.0,0.0,0.0,0.0,0.0,-3.0918,-3.9373,-4.5075,-4.5075,-4.5075,-4.5075,-4.5075,-4.4476,-3.9715,0.0,0.0,0.0,0.0,0.0,0.0,0.0,0.0,0.0,0.0,0.0,0.0,0.0,0.0,0.0,0.0,0.0,0.0,0.0,0.0,0.0,0.0,0.0,0.0,0.0,0.0,0.0,0.0,0.0,0.0,0.0,0.0,0.0,0.0,0.0,0.0,0.0,0.0,0.0,0.0,0.0,0.0,0.0,0.0,0.0,0.0,0.0,0.0,0.0,0.0,0.0,0.0,0.0,0.0,0.0,0.0,0.0,0.0,0.0,0.0,0.0,0.0,0.0,0.0,0.0,0.0,0.0,0.0,0.0,0.0,0.0,0.0,0.0,0.0,0.0,0.0,0.0,0.0,0.0,0.0,0.0,0.0,0.0,0.0,0.0,0.0,0.0,0.0,0.0,0.0,0.0,0.0,0.0,0.0,0.0,0.0,0.0,0.0,0.0,0.0,0.0,0.0,0.0,-3.1144,-3.6685,-4.1575,0.0,-4.6451,-4.6451,-4.6451,-4.5809,-4.1262,-3.1378,0.0,0.0,0.0,0.0,0.0,0.0,0.0,0.0,0.0,0.0,0.0,0.0,0.0,0.0,0.0,0.0,0.0,0.0,0.0,0.0,0.0,0.0,0.0,0.0,0.0,0.0,0.0,0.0,0.0,0.0,0.0,0.0,0.0,0.0,0.0,0.0,0.0,0.0,0.0,0.0,0.0,0.0,0.0,0.0,0.0,0.0,0.0,0.0,0.0,0.0,0.0,0.0,0.0,0.0,0.0,0.0,0.0,0.0,0.0,0.0,0.0,0.0,0.0,0.0,0.0,0.0,0.0,0.0,0.0,0.0,0.0,0.0,0.0,0.0,0.0,0.0,0.0,0.0,0.0,0.0,0.0,0.0,0.0,0.0,0.0,0.0,0.0,0.0,0.0,0.0,0.0,0.0,0.0,0.0,0.0,0.0,0.0,0.0,0.0,0.0,0.0,0.0,0.0,-3.7162,-4.2633,0.0,-4.7021,-4.7021,-4.7021,-4.6451,-4.1979,-3.2453,0.0,0.0,0.0,0.0,0.0,0.0,0.0,0.0,0.0,0.0,0.0,0.0,0.0,0.0,0.0,0.0,0.0,0.0,0.0,0.0,0.0,0.0,0.0,0.0,0.0,0.0,0.0,0.0,0.0,0.0,0.0,0.0,0.0,0.0,0.0,0.0,0.0,0.0,0.0,0.0,0.0,0.0,0.0,0.0,0.0,0.0,0.0,0.0,0.0,0.0,0.0,0.0,0.0,0.0,0.0,0.0,0.0,0.0,0.0,0.0,0.0,0.0,0.0,0.0,0.0,0.0,0.0,0.0,0.0,0.0,0.0,0.0,0.0,0.0,0.0,0.0,0.0,0.0,0.0,0.0,0.0,0.0,0.0,0.0,0.0,0.0,0.0,0.0,0.0,0.0,0.0,0.0,0.0,0.0,0.0,0.0,0.0,0.0,0.0,0.0,0.0,0.0,0.0,-3.9754,-4.6414,-4.6985,-4.7021,-4.7021,-4.7021,-4.6491,-4.2091,-3.2676,-2.8197,0.0,0.0,0.0,0.0,0.0,0.0,0.0,0.0,0.0,0.0,0.0,0.0,0.0,0.0,0.0,0.0,0.0,0.0,0.0,0.0,0.0,0.0,0.0,0.0,0.0,0.0,0.0,0.0,0.0,0.0,0.0,0.0,0.0,0.0,0.0,0.0,0.0,0.0,0.0,0.0,0.0,0.0,0.0,0.0,0.0,0.0,0.0,0.0,0.0,0.0,0.0,0.0,0.0,0.0,0.0,0.0,0.0,0.0,0.0,0.0,0.0,0.0,0.0,0.0,0.0,0.0,0.0,0.0,0.0,0.0,0.0,0.0,0.0,0.0,0.0,0.0,0.0,0.0,0.0,0.0,0.0,0.0,0.0,0.0,0.0,0.0,0.0,0.0,0.0,0.0,0.0,0.0,0.0,0.0,0.0,0.0,0.0,0.0,0.0,0.0,0.0,0.0,-3.7074,-4.0314,-4.6379,-4.7021,-4.7021,-4.7021,-4.6908,-4.2568,-3.2671,-2.8548,0.0,0.0,0.0,0.0,0.0,0.0,0.0,0.0,0.0,0.0,0.0,0.0,0.0,0.0,0.0,0.0,0.0,0.0,0.0,0.0,0.0,0.0,0.0,0.0,0.0,0.0,0.0,0.0,0.0,0.0,0.0,0.0,0.0,0.0,0.0,0.0,0.0,0.0,0.0,0.0,0.0,0.0,0.0,0.0,0.0,0.0,0.0,0.0,0.0,0.0,0.0,0.0,0.0,0.0,0.0,0.0,0.0,0.0,0.0,0.0,0.0,0.0,0.0,0.0,0.0,0.0,0.0,0.0,0.0,0.0,0.0,0.0,0.0,0.0,0.0,0.0,0.0,0.0,0.0,0.0,0.0,0.0,0.0,0.0,0.0,0.0,0.0,0.0,0.0,0.0,0.0,0.0,0.0,0.0,0.0,0.0,0.0,0.0,0.0,0.0,0.0,0.0,-3.107,-3.5797,-4.5951,-4.7021,-4.7021,-4.7021,-4.6379,-4.1965,-3.251,-2.7717,0.0,0.0,0.0,0.0,0.0,0.0,0.0,0.0,0.0,0.0,0.0,0.0,0.0,0.0,0.0,0.0,0.0,0.0,0.0,0.0,0.0,0.0,0.0,0.0,0.0,0.0,0.0,0.0,0.0,0.0,0.0,0.0,0.0,0.0,0.0,0.0,0.0,0.0,0.0,0.0,0.0,0.0,0.0,0.0,0.0,0.0,0.0,0.0,0.0,0.0,0.0,0.0,0.0,0.0,0.0,0.0,0.0,0.0,0.0,0.0,0.0,0.0,0.0,0.0,0.0,0.0,0.0,0.0,0.0,0.0,0.0,0.0,0.0,0.0,0.0,0.0,0.0,0.0,0.0,0.0,0.0,0.0,0.0,0.0,0.0,0.0,0.0,0.0,0.0,0.0,0.0,0.0,0.0,0.0,0.0,0.0,0.0,0.0,0.0,0.0,0.0,0.0,0.0,-3.3072,-4.4381,-4.645,-4.695,-4.67,-4.5414,-4.0692,-3.1558,0.0,0.0,0.0,0.0,0.0,0.0,0.0,0.0,0.0,0.0,0.0,0.0,0.0,0.0,0.0,0.0,0.0,0.0,0.0,0.0,0.0,0.0,0.0,0.0,0.0,0.0,0.0,0.0,0.0,0.0,0.0,0.0,0.0,0.0,0.0,0.0,0.0,0.0,0.0,0.0,0.0,0.0,0.0,0.0,0.0,0.0,0.0,0.0,0.0,0.0,0.0,0.0,0.0,0.0,0.0,0.0,0.0,0.0,0.0,0.0,0.0,0.0,0.0,0.0,0.0,0.0,0.0,0.0,0.0,0.0,0.0,0.0,0.0,0.0,0.0,0.0,0.0,0.0,0.0,0.0,0.0,0.0,0.0,0.0,0.0,0.0,0.0,0.0,0.0,0.0,0.0,0.0,0.0,0.0,0.0,0.0,0.0,0.0,0.0,0.0,0.0,0.0,0.0,0.0,-3.3865,-3.8494,-4.381,-4.6486,-4.5202,-4.4445,-3.9391,-2.8433,0.0,0.0,0.0,0.0,0.0,0.0,0.0,0.0,0.0,0.0,0.0,0.0,0.0,0.0]}]]]